[[{"header":{"parameterUnit":"m.s-1","parameterCategory":1,"la1":30.6,"la2":28.766,"lo1":-90.7593,"lo2":-88.6598,"dx":0.0162,"dy":0.0183,"nx":116,"ny":114,"refTime":"2022-12-04T06:00:00:Z","depth":0,"parameterNumber":2,"parameterNumberName":"U-component_of_WINDS"},"data":[0.0,0.0,0.0,0.0,0.0,0.0,0.0,0.0,0.0,0.0,0.0,0.0,0.0,0.0,0.0,0.0,0.0,0.0,0.0,0.0,0.0,0.0,0.0,0.0,0.0,0.0,0.0,0.0,0.0,0.0,0.0,0.0,0.0,0.0,0.0,0.0,0.0,0.0,0.0,0.0,0.0,0.0,0.0,0.0,0.0,0.0,0.0,0.0,0.0,0.0,0.0,0.0,0.0,0.0,0.0,0.0,0.0,0.0,0.0,0.0,0.0,0.0,0.0,0.0,0.0,0.0,0.0,0.0,0.0,0.0,0.0,0.0,0.0,0.0,0.0,0.0,0.0,0.0,0.0,0.0,0.0,0.0,0.0,0.0,0.0,0.0,0.0,0.0,0.0,0.0,0.0,0.0,0.0,0.0,0.0,0.0,0.0,0.0,0.0,0.0,0.0,0.0,0.0,0.0,0.0,0.0,0.0,0.0,0.0,0.0,0.0,0.0,0.0,0.0,0.0,0.0,0.0,0.0,0.0,0.0,0.0,0.0,0.0,0.0,0.0,0.0,0.0,0.0,0.0,0.0,0.0,0.0,0.0,0.0,0.0,0.0,0.0,0.0,0.0,0.0,0.0,0.0,0.0,0.0,0.0,0.0,0.0,0.0,0.0,0.0,0.0,0.0,0.0,0.0,0.0,0.0,0.0,0.0,0.0,0.0,0.0,0.0,0.0,0.0,0.0,0.0,0.0,0.0,0.0,0.0,0.0,0.0,0.0,0.0,0.0,0.0,0.0,0.0,0.0,0.0,0.0,0.0,0.0,0.0,0.0,0.0,0.0,0.0,0.0,0.0,0.0,0.0,0.0,0.0,0.0,0.0,0.0,0.0,0.0,0.0,0.0,0.0,0.0,0.0,0.0,0.0,0.0,0.0,0.0,0.0,0.0,0.0,0.0,0.0,0.0,0.0,0.0,0.0,0.0,0.0,0.0,0.0,0.0,0.0,0.0,0.0,0.0,0.0,0.0,0.0,0.0,0.0,0.0,0.0,0.0,0.0,0.0,0.0,0.0,0.0,0.0,0.0,0.0,0.0,0.0,0.0,0.0,0.0,0.0,0.0,0.0,0.0,0.0,0.0,0.0,0.0,0.0,0.0,0.0,0.0,0.0,0.0,0.0,0.0,0.0,0.0,0.0,0.0,0.0,0.0,0.0,0.0,0.0,0.0,0.0,0.0,0.0,0.0,0.0,0.0,0.0,0.0,0.0,0.0,0.0,0.0,0.0,0.0,0.0,0.0,0.0,0.0,0.0,0.0,0.0,0.0,0.0,0.0,0.0,0.0,0.0,0.0,0.0,0.0,0.0,0.0,0.0,0.0,0.0,0.0,0.0,0.0,0.0,0.0,0.0,0.0,0.0,0.0,0.0,0.0,0.0,0.0,0.0,0.0,0.0,0.0,0.0,0.0,0.0,0.0,0.0,0.0,0.0,0.0,0.0,0.0,0.0,0.0,0.0,0.0,0.0,0.0,0.0,0.0,0.0,0.0,0.0,0.0,0.0,0.0,0.0,0.0,0.0,0.0,0.0,0.0,0.0,0.0,0.0,0.0,0.0,0.0,0.0,0.0,0.0,0.0,0.0,0.0,0.0,0.0,0.0,0.0,0.0,0.0,0.0,0.0,0.0,0.0,0.0,0.0,0.0,0.0,0.0,0.0,0.0,0.0,0.0,0.0,0.0,0.0,0.0,0.0,0.0,0.0,0.0,0.0,0.0,0.0,0.0,0.0,0.0,0.0,0.0,0.0,0.0,0.0,0.0,0.0,0.0,0.0,0.0,0.0,0.0,0.0,0.0,0.0,0.0,0.0,0.0,0.0,0.0,0.0,0.0,0.0,0.0,0.0,0.0,0.0,0.0,0.0,0.0,0.0,0.0,0.0,0.0,0.0,0.0,0.0,0.0,0.0,0.0,0.0,0.0,0.0,0.0,0.0,0.0,0.0,0.0,0.0,0.0,0.0,0.0,0.0,0.0,0.0,0.0,0.0,0.0,0.0,0.0,0.0,0.0,0.0,0.0,0.0,0.0,0.0,0.0,0.0,0.0,0.0,0.0,0.0,0.0,0.0,0.0,0.0,0.0,0.0,0.0,0.0,0.0,0.0,0.0,0.0,0.0,0.0,0.0,0.0,0.0,0.0,0.0,0.0,0.0,0.0,0.0,0.0,0.0,0.0,0.0,0.0,0.0,0.0,0.0,0.0,0.0,0.0,0.0,0.0,0.0,0.0,0.0,0.0,0.0,0.0,0.0,0.0,0.0,0.0,0.0,0.0,0.0,0.0,0.0,0.0,0.0,0.0,0.0,0.0,0.0,0.0,0.0,0.0,0.0,0.0,0.0,0.0,0.0,0.0,0.0,0.0,0.0,0.0,0.0,0.0,0.0,0.0,0.0,0.0,0.0,0.0,0.0,0.0,0.0,0.0,0.0,0.0,0.0,0.0,0.0,0.0,0.0,0.0,0.0,0.0,0.0,0.0,0.0,0.0,0.0,0.0,0.0,0.0,0.0,0.0,0.0,0.0,0.0,0.0,0.0,0.0,0.0,0.0,0.0,0.0,0.0,0.0,0.0,0.0,0.0,0.0,0.0,0.0,0.0,0.0,0.0,0.0,0.0,0.0,0.0,0.0,0.0,0.0,0.0,0.0,0.0,0.0,0.0,0.0,0.0,0.0,0.0,0.0,0.0,0.0,0.0,0.0,0.0,0.0,0.0,0.0,0.0,0.0,0.0,0.0,0.0,0.0,0.0,0.0,0.0,0.0,0.0,0.0,0.0,0.0,0.0,0.0,0.0,0.0,0.0,0.0,0.0,0.0,0.0,0.0,0.0,0.0,0.0,0.0,0.0,0.0,0.0,0.0,0.0,0.0,0.0,0.0,0.0,0.0,0.0,0.0,0.0,0.0,0.0,0.0,0.0,0.0,0.0,0.0,0.0,0.0,0.0,0.0,0.0,0.0,0.0,0.0,0.0,0.0,0.0,0.0,0.0,0.0,0.0,0.0,0.0,0.0,0.0,0.0,0.0,0.0,0.0,0.0,0.0,0.0,0.0,0.0,0.0,0.0,0.0,0.0,0.0,0.0,0.0,0.0,0.0,0.0,0.0,0.0,0.0,0.0,0.0,0.0,0.0,0.0,0.0,0.0,0.0,0.0,0.0,0.0,0.0,0.0,0.0,0.0,0.0,0.0,0.0,0.0,0.0,0.0,0.0,0.0,0.0,0.0,0.0,0.0,0.0,0.0,0.0,0.0,0.0,0.0,0.0,0.0,0.0,0.0,0.0,0.0,0.0,0.0,0.0,0.0,0.0,0.0,0.0,0.0,0.0,0.0,0.0,0.0,0.0,0.0,0.0,0.0,0.0,0.0,0.0,0.0,0.0,0.0,0.0,0.0,0.0,0.0,0.0,0.0,0.0,0.0,0.0,0.0,0.0,0.0,0.0,0.0,0.0,0.0,0.0,0.0,0.0,0.0,0.0,0.0,0.0,0.0,0.0,0.0,0.0,0.0,0.0,0.0,0.0,0.0,0.0,0.0,0.0,0.0,0.0,0.0,0.0,0.0,0.0,0.0,0.0,0.0,0.0,0.0,0.0,0.0,0.0,0.0,0.0,0.0,0.0,0.0,0.0,0.0,0.0,0.0,0.0,0.0,0.0,0.0,0.0,0.0,0.0,0.0,0.0,0.0,0.0,0.0,0.0,0.0,0.0,0.0,0.0,0.0,0.0,0.0,0.0,0.0,0.0,0.0,0.0,0.0,0.0,0.0,0.0,0.0,0.0,0.0,0.0,0.0,0.0,0.0,0.0,0.0,0.0,0.0,0.0,0.0,0.0,0.0,0.0,0.0,0.0,0.0,0.0,0.0,0.0,0.0,0.0,0.0,0.0,0.0,0.0,0.0,0.0,0.0,0.0,0.0,0.0,0.0,0.0,0.0,0.0,0.0,0.0,0.0,0.0,0.0,0.0,0.0,0.0,0.0,0.0,0.0,0.0,0.0,0.0,0.0,0.0,0.0,0.0,0.0,0.0,0.0,0.0,0.0,0.0,0.0,0.0,0.0,0.0,0.0,0.0,0.0,0.0,0.0,0.0,0.0,0.0,0.0,0.0,0.0,0.0,0.0,0.0,0.0,0.0,0.0,0.0,0.0,0.0,0.0,0.0,0.0,0.0,0.0,0.0,0.0,0.0,0.0,0.0,0.0,0.0,0.0,0.0,0.0,0.0,0.0,0.0,0.0,0.0,0.0,0.0,0.0,0.0,0.0,0.0,0.0,0.0,0.0,0.0,0.0,0.0,0.0,0.0,0.0,0.0,0.0,0.0,0.0,0.0,0.0,0.0,0.0,0.0,0.0,0.0,0.0,0.0,0.0,0.0,0.0,0.0,0.0,0.0,0.0,0.0,0.0,0.0,0.0,0.0,0.0,0.0,0.0,0.0,0.0,0.0,0.0,0.0,0.0,0.0,0.0,0.0,0.0,0.0,0.0,0.0,0.0,0.0,0.0,0.0,0.0,0.0,0.0,0.0,0.0,0.0,0.0,0.0,0.0,0.0,0.0,0.0,0.0,0.0,0.0,0.0,0.0,0.0,0.0,0.0,0.0,0.0,0.0,0.0,0.0,0.0,0.0,0.0,0.0,0.0,0.0,0.0,0.0,0.0,0.0,0.0,0.0,0.0,0.0,0.0,0.0,0.0,0.0,0.0,0.0,0.0,0.0,0.0,0.0,0.0,0.0,0.0,0.0,0.0,0.0,0.0,0.0,0.0,0.0,0.0,0.0,0.0,0.0,0.0,0.0,0.0,0.0,0.0,0.0,0.0,0.0,0.0,0.0,0.0,0.0,0.0,0.0,0.0,0.0,0.0,0.0,0.0,0.0,0.0,0.0,0.0,0.0,0.0,0.0,0.0,0.0,0.0,0.0,0.0,0.0,0.0,0.0,0.0,0.0,0.0,0.0,0.0,0.0,0.0,0.0,0.0,0.0,0.0,0.0,0.0,0.0,0.0,0.0,0.0,0.0,0.0,0.0,0.0,0.0,0.0,0.0,0.0,0.0,0.0,0.0,0.0,0.0,0.0,0.0,0.0,0.0,0.0,0.0,0.0,0.0,0.0,0.0,0.0,0.0,0.0,0.0,0.0,0.0,0.0,0.0,0.0,0.0,0.0,0.0,0.0,0.0,0.0,0.0,0.0,0.0,0.0,0.0,0.0,0.0,0.0,0.0,0.0,0.0,0.0,0.0,0.0,0.0,0.0,0.0,0.0,0.0,0.0,0.0,0.0,0.0,0.0,0.0,0.0,0.0,0.0,0.0,0.0,0.0,0.0,0.0,0.0,0.0,0.0,0.0,0.0,0.0,0.0,0.0,0.0,0.0,0.0,0.0,0.0,0.0,0.0,0.0,0.0,0.0,0.0,0.0,0.0,0.0,0.0,0.0,0.0,0.0,0.0,0.0,0.0,0.0,0.0,0.0,0.0,0.0,0.0,0.0,0.0,0.0,0.0,0.0,0.0,0.0,0.0,0.0,0.0,0.0,0.0,0.0,0.0,0.0,0.0,0.0,0.0,0.0,0.0,0.0,0.0,0.0,0.0,0.0,0.0,0.0,0.0,0.0,0.0,0.0,0.0,0.0,0.0,0.0,0.0,0.0,0.0,0.0,0.0,0.0,0.0,0.0,0.0,0.0,0.0,0.0,0.0,0.0,0.0,0.0,0.0,0.0,0.0,0.0,0.0,0.0,0.0,0.0,0.0,0.0,0.0,0.0,0.0,0.0,0.0,0.0,0.0,0.0,0.0,0.0,0.0,0.0,0.0,0.0,0.0,0.0,0.0,0.0,0.0,0.0,0.0,0.0,0.0,0.0,0.0,0.0,0.0,0.0,0.0,0.0,0.0,0.0,0.0,0.0,0.0,0.0,0.0,0.0,0.0,0.0,0.0,0.0,0.0,0.0,0.0,0.0,0.0,0.0,0.0,0.0,0.0,0.0,0.0,0.0,0.0,0.0,0.0,0.0,0.0,0.0,0.0,0.0,0.0,0.0,0.0,0.0,0.0,0.0,0.0,0.0,0.0,0.0,0.0,0.0,3.0969,3.061,0.0,0.0,0.0,0.0,0.0,0.0,0.0,0.0,0.0,0.0,0.0,0.0,0.0,0.0,0.0,0.0,0.0,0.0,0.0,0.0,0.0,0.0,0.0,1.0417,1.0514,1.0867,1.0949,0.0,0.0,0.0,0.0,0.0,0.0,0.0,0.0,0.0,0.9388,1.0231,1.1095,1.2657,1.4798,1.4543,1.3557,1.1949,0.0,0.0,0.0,0.0,0.0,0.0,0.0,0.0,0.0,0.0,0.0,0.0,0.0,0.0,0.0,0.0,0.0,0.0,0.0,0.0,0.0,0.0,0.0,0.0,0.0,0.0,0.0,0.0,0.0,0.0,0.0,0.0,0.0,0.0,0.0,0.0,0.0,0.0,0.0,0.0,0.0,0.0,0.0,0.0,0.0,0.0,0.0,0.0,0.0,0.0,0.0,0.0,0.0,0.0,0.0,0.0,0.0,0.0,0.0,0.0,0.0,0.0,0.0,0.0,0.0,0.0,0.0,0.0,0.0,0.0,3.0665,3.0569,0.0,0.0,0.0,0.0,0.0,0.0,0.0,0.0,0.0,0.0,0.0,0.0,0.0,0.0,0.0,0.0,0.0,0.0,0.0,0.0,0.0,1.0176,1.0983,1.1024,1.1315,1.2113,1.223,1.2015,1.1368,1.1244,0.0,0.0,0.0,0.0,0.9474,0.9708,1.0259,1.1104,1.3491,1.5826,1.8089,1.9234,1.8339,1.573,1.3667,0.0,0.0,0.0,0.0,0.0,0.0,0.0,0.0,0.0,0.0,0.0,0.0,0.0,0.0,0.0,0.0,0.0,0.0,0.0,0.0,0.0,0.0,0.0,0.0,0.0,0.0,0.0,0.0,0.0,0.0,0.0,0.0,0.0,0.0,0.0,0.0,0.0,0.0,0.0,0.0,0.0,0.0,0.0,0.0,0.0,0.0,0.0,0.0,0.0,0.0,0.0,0.0,0.0,0.0,0.0,0.0,0.0,0.0,0.0,0.0,0.0,0.0,0.0,2.9202,2.9531,3.0247,3.0532,3.0571,3.0452,3.0983,3.096,3.0583,3.066,0.0,0.0,0.0,0.0,0.0,0.0,0.0,0.0,0.0,0.0,0.0,0.0,0.0,0.0,0.0,0.0,0.0,0.0,0.0,1.0043,1.0916,1.0941,1.125,1.204,1.2178,1.2226,1.2237,1.1532,0.0,0.0,0.0,1.0168,0.934,1.0581,1.1605,1.2354,1.7259,2.0014,2.0725,2.1876,2.2612,2.2878,1.9612,1.8306,1.8413,0.0,0.0,0.0,0.0,0.0,0.0,0.0,0.0,0.0,0.0,0.0,0.0,0.0,0.0,0.0,0.0,0.0,0.0,0.0,0.0,0.0,0.0,0.0,0.0,0.0,0.0,0.0,0.0,0.0,0.0,0.0,0.0,0.0,0.0,0.0,0.0,0.0,0.0,0.0,0.0,0.0,2.3964,2.4715,0.0,0.0,0.0,0.0,0.0,0.0,0.0,0.0,0.0,0.0,0.0,0.0,0.0,2.8766,2.978,2.9652,2.9693,2.9889,3.0397,3.0798,3.1184,3.2651,3.2899,3.2244,3.3449,0.0,3.0525,3.0641,0.0,0.0,0.0,0.0,0.0,0.0,0.0,0.0,0.0,0.0,0.0,0.0,0.0,0.0,0.0,0.0,0.0,0.0,0.0,0.0,0.0,1.2292,1.319,1.3877,1.4567,1.4575,1.3691,1.3234,0.0,0.0,1.1019,1.0606,0.9606,1.1629,1.4254,1.7503,2.0944,2.33,2.4647,2.5956,2.6815,2.7207,2.5712,2.3687,2.1316,2.0043,0.0,0.0,0.0,0.0,0.0,0.0,0.0,0.0,0.0,0.0,0.0,0.0,0.0,0.0,0.0,0.0,0.0,0.0,0.0,0.0,0.0,0.0,0.0,0.0,0.0,0.0,0.0,0.0,0.0,0.0,0.0,0.0,0.0,0.0,0.0,0.0,0.0,0.0,0.0,2.2398,2.382,2.5918,2.6008,2.6405,0.0,0.0,0.0,0.0,0.0,0.0,0.0,0.0,0.0,2.8559,2.8347,2.8913,3.0356,3.0265,3.0528,3.1178,3.1317,3.1464,3.1638,3.2977,3.3372,3.3066,3.4054,3.3564,3.1984,3.1676,3.0964,3.0093,0.0,0.0,0.0,0.0,2.8769,2.7871,0.0,0.0,0.0,0.0,0.0,0.0,0.0,0.0,0.0,0.0,0.0,0.0,1.1746,1.3414,1.4742,1.5395,1.6314,1.636,1.511,1.4591,1.3399,1.132,1.1235,1.0762,0.9726,1.2889,1.6879,2.1607,2.3915,2.5945,2.7683,2.9059,2.9742,2.9803,2.9861,2.7858,2.4355,2.3203,2.1735,1.9977,0.0,0.0,0.0,0.0,0.0,0.0,0.0,0.0,0.0,0.0,0.0,0.0,0.0,0.0,0.0,0.0,0.0,0.0,0.0,0.0,0.0,0.0,0.0,0.0,0.0,0.0,0.0,0.0,0.0,0.0,0.0,0.0,0.0,0.0,0.0,0.0,0.0,2.2503,2.3851,2.6303,2.5874,2.6043,0.0,0.0,0.0,0.0,0.0,0.0,2.8352,2.8295,2.8333,2.8502,2.8289,2.9013,3.0693,3.0565,3.1017,3.2011,3.202,3.2042,3.2166,3.3665,3.4241,3.4093,3.5055,3.4717,3.3451,3.2569,3.1309,2.9922,2.9922,2.9394,2.873,2.9609,2.9375,2.8848,0.0,0.0,0.0,0.0,0.0,0.0,0.0,0.0,0.0,0.0,0.0,1.115,1.2344,1.363,1.4726,1.5518,1.5976,1.6247,1.6225,1.4719,1.3419,1.245,1.1389,1.0396,0.9442,1.4545,1.8927,2.2434,2.5719,2.7773,2.8651,2.9939,3.0586,3.0642,3.064,2.9666,2.793,2.6211,2.4531,2.2753,2.0126,0.0,0.0,0.0,0.0,0.0,0.0,0.0,0.0,0.0,0.0,0.0,0.0,0.0,0.0,0.0,0.0,0.0,0.0,0.0,0.0,0.0,0.0,0.0,0.0,0.0,0.0,0.0,0.0,0.0,0.0,0.0,0.0,0.0,0.0,0.0,0.0,0.0,0.0,2.4227,2.5849,0.0,0.0,0.0,0.0,2.7911,2.7946,2.804,2.82,2.804,2.8208,2.8764,2.8512,2.8966,3.0221,3.0215,3.0743,3.1834,3.233,3.2674,3.3036,3.5773,3.655,3.5869,3.7439,3.667,3.4231,3.2782,3.166,3.082,3.082,3.0293,2.9648,3.0508,3.0273,2.9668,0.0,0.0,0.0,1.1774,1.0504,0.9363,0.8887,0.8735,0.8557,0.8247,0.9815,1.0963,1.1021,1.3533,1.5595,1.6485,1.7096,1.7294,1.6967,1.5174,1.3361,1.1671,1.0872,1.1626,1.4107,1.7953,2.15,2.4739,2.7061,2.8643,2.9479,3.025,3.0644,3.0698,3.0698,3.0287,2.952,2.8468,2.7053,2.5343,2.3251,2.0903,0.0,0.0,0.0,0.0,0.0,0.0,0.0,0.0,0.0,0.0,0.0,0.0,0.0,0.0,0.0,0.0,0.0,0.0,0.0,0.0,0.0,0.0,0.0,0.0,0.0,0.0,0.0,0.0,0.0,0.0,0.0,0.0,0.0,0.0,0.0,0.0,0.0,2.3199,2.3745,0.0,2.5948,2.5849,2.6016,2.6698,2.7182,2.7673,2.8232,2.8566,2.8737,2.8756,2.9017,2.9751,3.0962,3.0962,3.1673,3.308,3.3272,3.3419,3.3585,3.5492,3.6182,3.5945,3.6415,3.5784,3.4282,3.2819,3.1699,3.0898,3.0898,3.1055,3.1309,3.1621,3.1875,3.209,0.0,0.0,0.0,1.1486,0.9926,0.8598,0.8331,0.8273,0.8101,0.7624,0.9633,1.1053,1.092,1.3774,1.6042,1.6889,1.7481,1.7437,1.658,1.4776,1.2805,1.0706,1.0606,1.2619,1.6866,1.9823,2.2862,2.608,2.7787,2.9055,2.9907,3.0375,3.0625,3.0665,3.0599,3.0433,3.0167,2.9656,2.8698,2.7371,2.543,2.3101,2.0711,0.0,0.0,0.0,0.0,0.0,0.0,0.0,0.0,0.0,0.0,0.0,0.0,0.0,0.0,0.0,0.0,0.0,0.0,0.0,0.0,0.0,0.0,0.0,0.0,0.0,0.0,0.0,0.0,0.0,0.0,0.0,0.0,0.0,0.0,2.0181,2.1402,2.2387,2.2875,2.3703,2.5253,2.5146,2.5203,2.5657,2.6359,2.7025,2.7499,2.8343,2.8665,2.8303,2.9018,2.9855,3.0794,3.0931,3.1709,3.3117,3.3033,3.3239,3.3697,3.4943,3.5681,3.6026,3.5799,3.5213,3.4287,3.2817,3.1699,3.0898,3.0898,3.125,3.1797,3.209,3.2539,3.3008,0.0,0.0,1.1189,1.1158,0.9444,0.795,0.7562,0.7659,0.7708,0.7518,0.9574,1.1351,1.2141,1.4282,1.5927,1.6633,1.6967,1.6532,1.5052,1.3442,1.1668,0.9739,1.0739,1.3192,1.722,1.9985,2.2959,2.6292,2.783,2.904,2.9886,3.0375,3.0595,3.0587,3.0404,3.0186,2.9984,2.978,2.9452,2.8818,2.6485,2.5011,2.3893,0.0,0.0,0.0,0.0,0.0,0.0,0.0,0.0,0.0,0.0,0.0,0.0,0.0,0.0,0.0,0.0,0.0,0.0,0.0,0.0,0.0,0.0,0.0,0.0,0.0,0.0,0.0,0.0,0.0,0.0,0.0,0.0,0.0,1.7785,1.8952,2.0205,2.1642,2.3416,2.4852,2.5802,2.5923,2.5622,2.4914,2.5546,2.5969,2.6014,2.7345,2.7921,2.7515,2.8488,2.9223,2.9602,3.0008,3.0738,3.1793,3.1555,3.2089,3.3391,3.4223,3.5192,3.6171,3.576,3.509,3.4214,3.2758,3.166,3.0898,3.0898,3.0918,3.1035,3.1894,3.2226,3.2246,1.3381,1.2173,1.1015,0.9933,0.8704,0.7797,0.7542,0.7295,0.7162,0.7205,0.8938,1.0295,1.059,1.3182,1.5297,1.6268,1.6191,1.5584,1.4293,1.1994,1.0058,0.8608,1.2324,1.5415,1.7451,2.0954,2.3808,2.595,2.7718,2.892,2.9545,3.0266,3.0598,3.0594,3.0532,3.0242,2.978,2.9877,2.9664,2.9151,2.7585,2.5758,2.3917,0.0,0.0,0.0,0.0,0.0,0.0,0.0,0.0,0.0,0.0,0.0,0.0,0.0,0.0,0.0,0.0,0.0,0.0,0.0,0.0,0.0,0.0,0.0,0.0,0.0,0.0,0.0,0.0,0.0,0.0,0.0,1.4332,1.4626,1.6317,1.8024,1.9446,2.0463,2.2523,2.3907,2.4106,2.4568,2.4736,2.4531,2.4702,2.5233,2.6316,2.7549,2.8051,2.7657,2.9056,2.9745,2.9602,3.0008,3.0738,3.1793,3.1745,3.1952,3.2467,3.2917,3.3289,3.3593,3.3138,3.2839,3.259,3.1643,3.1113,3.0898,3.0898,3.1289,3.1875,3.2109,3.2578,3.3066,1.3163,1.1875,1.0698,0.995,0.8553,0.7508,0.7352,0.7202,0.716,0.7302,0.9101,1.0542,1.0955,1.3208,1.4953,1.5593,1.5134,1.4109,1.2524,1.0374,0.9204,0.9294,1.3265,1.6383,1.8355,2.162,2.4192,2.6023,2.7648,2.8819,2.9588,3.0199,3.0489,3.0569,3.0492,3.0199,2.9713,2.9729,2.9364,2.8639,2.75,2.6331,2.5219,2.4603,2.273,2.0506,2.1025,2.0201,1.8997,2.0029,0.0,0.0,0.0,0.0,0.0,0.0,0.0,0.0,0.0,0.0,0.0,0.0,0.0,0.0,0.0,0.0,0.0,0.0,0.0,0.0,0.0,0.0,0.0,0.0,1.2772,1.3383,1.5168,1.7113,1.8855,2.0322,2.2307,2.353,2.3432,2.4039,2.4177,2.3548,2.4276,2.5273,2.6371,2.7923,2.8506,2.7896,2.9334,2.9727,2.8891,2.9441,3.0105,3.0917,3.0833,3.1185,3.1936,3.1984,3.226,3.2691,3.2134,3.1918,3.1902,3.1181,3.0905,3.0906,0.0,0.0,0.0,0.0,3.25,3.2891,1.3254,1.1673,1.0441,1.044,0.872,0.7307,0.7146,0.7262,0.7444,0.7737,0.969,1.1351,1.2257,1.3741,1.4696,1.4696,1.3952,1.2489,1.0256,0.9024,0.9176,1.1028,1.3847,1.6725,1.9562,2.2042,2.4247,2.6169,2.755,2.8699,2.9698,3.0093,3.0387,3.0517,3.0385,3.0117,2.9746,2.9532,2.888,2.7886,2.6946,2.6761,2.6845,2.5161,2.362,2.2273,2.1383,2.0095,1.8914,1.9396,0.0,0.0,0.0,0.0,0.0,0.0,0.0,0.0,0.0,0.0,0.0,0.0,0.0,0.0,0.0,0.0,0.0,0.0,0.0,0.0,0.0,0.0,0.0,0.0,1.1729,1.2572,1.447,1.6307,1.8334,2.0569,2.2393,2.343,2.3181,2.3824,2.3755,2.2425,2.4163,2.5577,2.6165,2.8088,0.0,0.0,0.0,2.9246,2.7915,2.8601,2.9188,2.9696,2.9513,3.0181,3.1552,3.1312,3.1728,3.2596,3.2008,3.1741,3.1727,3.1124,3.0882,3.0871,3.088,3.0875,3.0956,3.1738,3.2031,3.2031,1.2336,1.1688,1.0767,0.9195,0.8549,0.8039,0.7435,0.7108,0.7405,0.8811,0.962,1.0574,1.1861,1.3271,1.4002,1.3588,1.32,1.1865,0.9197,0.9973,1.0958,1.1831,1.5225,1.8148,2.0326,2.2278,2.3996,2.5397,2.7285,2.845,2.8936,2.9865,3.0404,3.0582,3.0554,3.0393,3.0081,2.9771,2.9415,2.8994,2.7932,2.6914,2.5844,2.4531,2.3572,2.2962,2.3198,2.2267,2.127,2.3452,2.2542,2.057,2.0919,1.8369,0.0,0.0,0.0,0.0,0.0,0.0,0.0,0.0,0.0,0.0,0.0,0.0,0.0,0.0,0.0,0.0,0.0,0.0,0.0,1.1503,1.1666,1.265,1.4803,1.5698,1.7135,1.9638,2.1625,2.2577,2.1954,2.2897,2.3227,2.2367,2.3676,2.4838,2.5536,2.6876,2.7538,2.7384,2.8283,2.8474,2.7915,2.8316,2.8915,2.9696,2.9661,0.0,3.0648,3.0605,3.072,3.0968,3.0833,3.0839,3.0913,3.0781,3.0745,3.0729,3.0742,3.0707,3.0676,3.0913,3.0996,3.1016,1.2397,1.1543,1.0697,0.9861,0.8901,0.8151,0.7837,0.7667,0.8019,0.9363,1.0282,1.1138,1.1994,1.2977,1.3196,1.22,1.135,1.0463,0.9513,1.093,1.2379,1.3635,1.6579,1.8934,2.0542,2.2372,2.4085,2.5757,2.7303,2.8446,2.9226,2.9823,3.0247,3.0543,3.0629,3.0482,3.0194,3.0028,2.9732,2.9299,2.8202,2.7364,2.6574,2.4984,2.363,2.2566,2.2837,2.1953,2.0972,2.3344,2.2944,2.1284,2.0383,1.7654,1.4282,0.0,0.0,0.0,0.0,0.0,0.0,0.0,0.0,0.0,0.0,0.0,0.0,0.0,0.0,1.0887,1.0504,0.0,1.0736,1.0855,1.1579,1.2708,1.4609,1.589,1.7382,1.9434,2.0767,2.1437,2.1121,2.1949,2.233,2.1927,2.3444,2.4778,2.5692,2.7006,2.7689,2.7509,2.8083,2.8223,2.7897,2.8237,2.8777,2.9551,2.9643,2.988,3.0209,3.0343,3.0417,3.0448,3.0487,3.055,3.0617,3.0675,3.068,3.0655,3.064,3.0634,3.0604,3.0672,3.0703,3.0723,1.2756,1.158,1.0685,1.0781,0.9491,0.8414,0.8322,0.8364,0.8744,0.972,1.0821,1.1664,1.2089,1.26,1.2307,1.0782,0.9628,0.9387,1.0289,1.1871,1.3707,1.5844,1.781,1.9598,2.1117,2.2659,2.4435,2.6346,2.7409,2.8497,2.9589,2.9789,3.0114,3.0511,3.0637,3.0544,3.0289,3.0232,2.9937,2.9476,2.8477,2.7991,2.7673,2.6093,2.4283,2.2567,2.2517,2.1532,2.0501,2.2472,2.2555,2.1464,1.9115,1.6369,1.312,0.8712,0.6381,0.0,0.0,0.0,0.0,0.0,0.0,0.0,0.0,1.1997,1.0515,0.9174,0.9137,0.9334,0.904,0.953,1.0114,1.0635,1.1665,1.2945,1.4457,1.6129,1.7767,1.9471,2.0073,2.0426,2.0489,2.1199,2.1655,2.1708,2.3662,2.5306,2.6321,2.7559,2.8127,2.7883,2.7998,2.8021,2.7897,2.8156,2.8676,2.9412,2.9551,2.9765,2.9954,3.0169,3.0286,3.0343,3.0444,3.0506,3.0532,3.0648,3.0665,3.0626,3.0616,3.0602,3.0602,3.066,3.0692,3.0728,1.2973,1.2203,1.1291,1.0527,1.0199,0.9747,0.8868,0.8749,0.9054,0.9953,1.0267,1.069,1.1494,1.1681,1.1166,0.9624,0.9631,1.0083,1.0948,1.2831,1.5186,1.8002,1.9086,2.0693,2.3132,2.3784,2.4879,2.6479,2.742,2.8317,2.9167,2.9601,3.0083,3.0585,3.0605,3.0624,3.0614,3.0335,3.017,3.0075,2.9641,2.8856,2.7939,2.7736,2.6377,2.4561,2.4444,2.3416,2.2331,2.3745,2.2939,2.0859,1.7796,1.4241,1.0244,0.5562,0.3115,0.194,0.2384,0.551,0.8695,0.9208,0.9881,1.0426,0.0,0.9135,0.7876,0.8106,0.8024,0.8304,0.9559,1.009,1.0635,1.1609,1.248,1.3565,1.5237,1.5749,1.687,1.9148,1.9721,1.9886,1.9899,2.0953,2.1852,2.2431,2.479,2.65,2.7245,2.7799,2.8106,2.8075,2.7311,2.7201,2.7897,2.7954,2.8453,2.9412,2.9414,2.9551,2.9729,2.9765,2.988,3.0061,3.0356,3.0525,3.059,3.0668,3.0704,3.0685,3.0693,3.0641,3.0602,3.0602,3.0648,3.0714,1.3025,1.2579,1.1975,1.125,1.0498,0.9813,0.9228,0.9147,0.9383,1.0065,1.0355,1.0634,1.1003,1.0411,0.9608,0.8676,0.9553,1.0637,1.1856,1.4498,1.6994,1.9083,2.0254,2.171,2.3467,2.3963,2.5069,2.6864,2.7533,2.8375,2.9283,2.9642,2.9998,3.0374,3.0572,3.0644,3.0644,3.0524,3.0389,3.0136,2.9511,2.8828,2.8183,2.7748,2.6737,2.5495,2.511,2.396,0.0,2.3637,2.215,1.9309,1.5834,1.1883,0.7672,0.3138,0.087,0.0194,0.166,0.3894,0.6042,0.6949,0.713,0.7249,0.7838,0.7063,0.6221,0.6437,0.6404,0.6609,0.7499,0.8136,0.9139,1.0936,1.2613,1.4218,1.5855,1.7111,1.8189,1.891,1.947,1.9798,1.9798,2.0233,2.0901,2.1917,2.4066,2.5726,2.6641,2.7592,2.8268,2.8607,2.7803,2.772,2.8523,2.811,2.8316,2.9178,2.933,2.9434,2.9532,2.9643,2.9813,3.0013,3.0142,3.035,3.0598,3.0631,3.0659,3.071,3.0694,3.0664,3.0599,3.0599,3.0619,3.0646,1.3059,1.2774,1.2391,1.1719,1.0762,0.9995,0.9728,0.9601,0.9677,1.0071,1.0341,1.0444,1.0354,0.9414,0.8584,0.8045,0.9355,1.0954,1.2583,1.5554,1.8163,2.0169,2.1485,2.2764,2.3947,2.4433,2.5553,2.7326,2.771,2.8403,2.9393,2.9602,2.986,3.021,3.045,3.0591,3.0625,3.0664,3.0547,3.0266,2.937,2.8862,2.8571,2.7797,2.68,2.5775,2.534,2.4157,2.2859,2.2887,2.091,1.7728,1.3849,0.9832,0.5677,0.1374,-0.0367,-0.04,0.174,0.3093,0.4145,0.5229,0.5247,0.5174,0.5848,0.5642,0.5406,0.5715,0.5811,0.6086,0.7037,0.7623,0.8755,1.0979,1.2958,1.4815,1.6544,1.8193,1.929,1.948,1.9354,1.9469,1.9991,2.0015,2.061,2.2096,2.3741,2.5256,2.6424,2.7656,2.8469,2.867,2.8112,2.8031,2.8534,2.7988,2.8047,2.87,2.8902,2.902,2.9144,2.9475,2.9696,2.9845,2.9954,3.0188,3.051,3.0571,3.0641,3.0702,3.0743,3.0856,3.0985,3.0973,3.0801,3.0599,1.3076,1.2774,1.2325,1.1465,1.1067,1.0755,1.0431,1.0084,0.9893,0.9905,0.9905,0.9804,0.9474,0.9046,0.851,0.7786,0.899,1.0785,1.3048,1.5441,1.8264,2.1488,2.2781,2.3999,2.5124,2.5686,2.6587,2.7874,2.7887,2.8405,2.9389,2.9416,2.9683,3.0206,3.021,3.0392,3.0684,3.0625,3.0625,3.0602,2.9657,2.9283,2.9182,2.8305,2.6917,2.539,2.5188,2.4276,2.299,2.1637,1.9376,1.6391,1.206,0.8199,0.4455,0.0498,-0.0457,0.0139,0.2023,0.3021,0.365,0.3655,0.4174,0.4751,0.4887,0.5053,0.5434,0.6428,0.6759,0.7523,0.9873,1.0049,1.0547,1.2698,1.3824,1.5266,1.7456,1.83,1.9403,2.1315,1.9393,1.8668,2.0395,2.0711,2.1551,2.3497,2.4636,2.5862,2.7214,2.8345,2.8636,2.784,2.7806,2.7657,2.7369,2.7334,2.7547,2.7926,2.7954,2.8129,2.8453,2.9104,2.9394,2.9434,2.9829,3.0092,3.0229,3.0486,3.0641,3.0703,3.0839,3.1334,3.1949,3.1885,3.1326,3.0606,1.3633,1.3442,1.304,1.2343,1.1862,1.1305,1.0521,1.0123,0.9905,0.9905,0.9715,0.0,0.0,0.0,0.0,0.0,0.9522,1.1237,1.325,1.5379,1.7708,2.0395,2.1324,2.2408,2.3807,2.3997,2.4733,2.6029,2.6792,2.7201,2.725,2.8714,2.927,2.9113,2.9867,3.0335,3.0571,3.0648,3.0644,3.0507,2.9129,2.8533,2.842,2.7537,2.6035,2.4341,0.0,2.2856,2.1556,2.0365,1.7542,1.4002,1.1055,0.7326,0.3744,0.1992,0.177,0.2419,0.3743,0.4458,0.4904,0.5024,0.5741,0.6454,0.6502,0.6737,0.7157,0.7472,0.7734,0.8216,0.915,0.9695,1.0717,1.2714,1.4298,1.591,1.7856,1.927,2.0344,2.0996,2.069,2.0845,2.1866,2.0127,1.9561,2.1055,2.2955,2.4453,2.5408,2.721,2.8332,2.8586,2.8602,2.8646,2.876,2.876,2.8955,2.9359,2.8859,2.8831,2.9188,2.8876,2.8993,2.9414,2.9678,3.0251,3.1013,3.133,3.1814,3.2367,3.2454,3.2557,3.2666,3.2641,3.2417,3.2122,1.382,1.3688,1.3378,1.2801,1.2116,0.0,0.0,0.0,0.0,0.0,0.0,0.0,0.0,0.0,0.0,0.0,0.0,1.1295,1.3103,1.49,1.7015,1.9521,2.0206,2.1075,2.2284,2.2532,2.3339,2.4719,2.5419,2.6043,2.6526,2.7677,2.8129,2.7954,2.8779,2.9276,2.9536,2.9978,3.0329,3.047,2.8815,2.8136,2.7935,2.6364,2.4554,0.0,2.1763,2.0271,1.8574,1.7766,1.5082,1.1719,0.958,0.6596,0.3815,0.357,0.3914,0.4523,0.5494,0.5859,0.6053,0.6243,0.6719,0.7224,0.7613,0.7828,0.8194,0.8751,0.9226,0.9638,0.9888,1.071,1.1822,1.3297,1.4755,1.6422,1.8377,1.9605,2.0476,2.0998,2.1108,2.1313,2.1897,1.9908,1.9293,2.0982,2.2297,2.351,2.4563,2.6388,2.752,2.7774,2.8298,2.8558,2.8493,2.9042,2.9455,2.9706,2.9344,2.9316,2.9556,2.9053,2.9259,3.0068,3.0133,3.0785,3.1845,3.2167,3.2627,3.3149,3.3229,3.3288,3.3306,3.3306,3.3406,3.3483,1.3817,1.3656,1.3395,0.0,0.0,0.0,0.0,0.0,0.0,0.0,0.0,0.0,0.0,0.0,0.0,0.0,0.0,0.0,1.254,1.4029,1.6049,1.8758,1.9343,1.9941,2.0671,2.1313,2.2343,2.3777,2.3909,2.4981,2.6958,2.6331,2.6284,2.6756,2.6971,2.7285,2.7739,2.8729,2.9651,3.0367,2.8752,2.8038,2.7653,2.4967,2.2695,2.0713,1.9132,1.6821,1.444,1.4067,1.2163,0.9604,0.7664,0.6006,0.4811,0.5135,0.5774,0.6533,0.7247,0.7249,0.7126,0.7237,0.7157,0.7348,0.8236,0.8392,0.8726,1.0246,1.121,1.1848,1.204,1.2912,1.3785,1.4318,1.5278,1.6732,1.8881,1.9317,1.9958,2.1446,2.0713,2.0295,2.0625,2.0105,2.074,2.3125,2.2767,2.3099,2.4652,2.5949,2.6319,2.5625,2.7012,2.7435,2.6759,2.8315,2.9093,2.913,2.9403,2.954,2.9521,2.955,3.015,3.114,3.1032,3.1627,3.2676,3.2952,3.3084,3.3131,3.325,3.3586,3.3959,3.3959,3.4245,3.4527,0.0,0.0,0.0,0.0,0.0,0.0,0.0,0.0,0.0,0.0,0.0,0.0,0.0,0.0,0.0,0.0,0.0,0.0,1.18,1.2436,1.3638,1.5583,1.6507,1.7171,1.7547,1.8914,2.0019,2.0811,2.2343,2.3374,2.3877,2.4792,2.5049,2.4745,2.5045,2.6019,2.7438,2.7948,2.8613,2.9255,2.8425,2.7257,2.5915,2.4948,2.2604,1.9636,1.8438,1.5989,1.3191,1.2198,0.9987,0.7506,0.6664,0.6555,0.6778,0.7185,0.8037,0.8921,0.9316,0.9646,0.9679,0.9193,0.963,1.0248,1.0497,1.0666,1.1085,1.2125,1.2646,1.2932,1.2737,1.3394,1.3917,1.3696,1.468,1.6219,1.8351,1.9227,2.01,2.1446,2.1842,2.1857,2.1449,2.0925,2.1282,2.3017,2.3012,2.3155,2.3707,2.5109,2.5795,2.5609,2.6505,2.7165,2.7537,2.9583,3.0632,3.0615,3.017,2.9954,2.993,2.9402,2.962,3.0496,3.0826,3.1843,3.3239,3.3748,3.4321,3.4847,3.4745,3.4727,3.4769,3.4567,3.4563,3.4678,0.0,0.0,0.0,0.0,0.0,0.0,0.0,0.0,0.0,0.0,0.0,0.0,0.0,0.0,0.0,0.0,0.0,0.0,0.0,1.1468,1.2407,1.4094,1.4783,1.5301,1.5607,1.6848,1.8099,1.9349,2.0183,2.1496,2.3215,2.3038,2.3034,2.318,2.3599,2.4383,2.5429,2.6531,2.7478,0.0,0.0,2.6455,2.5246,2.4064,2.1673,1.8722,1.7302,1.4469,1.1255,1.0243,0.8724,0.7151,0.6828,0.741,0.836,0.9147,1.0066,1.0898,1.1377,1.1336,1.1141,1.0836,1.0941,1.1256,1.1861,1.2452,1.3063,1.3815,1.4744,1.513,1.4067,1.4641,1.5,1.4324,1.4998,1.6313,1.8167,1.8786,1.9531,2.0656,2.1642,2.19,2.095,2.1245,2.1864,2.2744,2.2794,2.3317,2.4556,2.4945,2.5348,2.586,2.6095,2.7063,2.8805,3.0395,3.119,3.119,3.0446,3.0189,3.0307,2.9422,2.9789,3.117,3.1427,3.2523,3.4185,3.4644,3.5009,3.5304,3.52,3.4983,3.4676,3.4551,3.4398,3.433,0.0,0.0,0.0,0.0,0.0,0.0,0.0,0.0,0.0,1.0006,0.979,0.9694,0.0,0.0,0.0,0.0,0.0,0.0,0.0,0.0,1.225,1.3716,1.4185,1.4506,1.4674,1.5399,1.6669,1.8547,1.8046,1.9612,2.3069,2.1207,2.0854,2.174,2.2155,2.2557,2.3052,2.4834,2.6139,2.6965,2.623,2.5611,2.4891,0.0,2.0379,1.796,1.5902,1.28,0.9559,0.9023,0.8405,0.7864,0.7747,0.8646,0.9888,1.0978,1.1955,1.2733,1.3188,1.2791,1.2263,1.2464,1.1898,1.1661,1.293,1.3915,1.472,1.5374,1.6804,1.7398,1.5696,1.6266,1.668,1.5679,1.5961,1.6837,1.8347,1.8361,1.8642,1.9897,2.1042,2.1268,2.0177,2.1429,2.2439,2.2633,2.2645,2.3673,2.6052,2.5203,2.5101,2.607,2.597,2.7199,2.9939,3.0784,3.114,3.1055,3.0412,3.0199,3.0352,2.9417,3.0212,3.2254,3.2173,3.3223,3.5016,3.5289,3.5273,3.5034,3.4999,3.4656,3.4218,3.4171,3.4012,3.3842,0.0,0.0,0.0,0.0,0.0,0.0,0.0,0.0,0.0,0.0,1.1768,1.1232,0.0,0.0,0.0,0.0,0.0,0.0,0.0,0.0,0.0,1.4182,1.5298,1.5687,1.5197,1.5806,1.6326,1.6747,1.7461,1.8172,1.8856,1.9311,1.9613,1.9764,1.9471,2.0751,2.3169,2.3364,2.4246,2.5578,2.5593,2.4648,2.3088,2.1406,0.0,0.0,1.445,1.2163,1.0611,1.0843,1.0048,0.899,0.9288,1.0691,1.2206,1.2453,1.3683,1.485,1.4504,1.4637,1.4755,1.4382,1.4125,1.4181,1.4871,1.5183,1.5656,1.6939,1.7418,1.7474,1.686,1.7824,1.8289,1.7095,1.7033,1.7819,1.9761,1.8679,1.8627,2.0991,2.1542,2.162,2.1396,2.2125,2.2983,2.384,2.3898,2.4531,2.5942,2.5631,2.5505,2.5688,2.6826,2.7994,2.9161,3.0531,3.0886,3.0294,3.0176,2.9832,2.9268,2.9094,2.996,3.1574,3.1771,3.2823,3.4383,3.4695,3.4793,3.4734,3.4449,3.4292,3.4152,3.3961,3.3842,3.3842,0.0,0.0,0.0,0.0,0.0,0.0,0.0,1.3303,1.3668,1.4774,1.4752,1.421,1.302,1.2569,1.2338,0.0,0.0,0.0,0.0,0.0,0.0,0.0,0.0,0.0,0.0,1.5758,0.0,0.0,0.0,1.8014,1.9549,1.8858,1.9144,2.0272,1.9797,2.0622,2.2382,2.2461,2.3133,2.4125,2.3862,2.3199,2.23,0.0,0.0,0.0,1.3966,1.2857,1.2636,1.1531,1.1288,1.1501,1.1627,1.2513,1.369,1.4444,1.5475,1.6401,1.644,1.6443,1.6262,1.5702,1.5372,1.5233,1.5739,1.6383,1.7185,1.8377,1.9,1.9136,1.8508,1.877,1.8814,1.7991,1.7671,1.8103,1.9764,1.894,1.8946,2.0912,2.1803,2.2198,2.2147,2.3017,2.3849,2.4574,2.4629,2.537,2.7165,2.7145,2.6616,2.5625,2.7435,2.8602,2.9011,3.0074,3.0446,3.0091,2.9296,2.8939,2.8983,2.8594,2.9296,3.0803,3.15,3.2471,3.3627,3.4402,3.4612,3.4423,3.4246,3.4123,3.3986,3.3842,3.3807,3.3815,0.0,0.0,0.0,0.0,0.0,0.0,0.0,1.4752,1.5223,1.685,1.7539,1.7186,1.5533,1.4518,1.3861,0.0,0.0,0.0,0.0,0.0,0.0,0.0,0.0,0.0,0.0,0.0,0.0,0.0,1.6852,0.0,0.0,0.0,0.0,0.0,2.056,2.0901,2.1771,2.1925,2.2418,0.0,0.0,2.2408,0.0,0.0,0.0,0.0,0.0,1.4334,1.4752,1.2774,1.309,1.4332,1.4356,1.4577,1.5152,1.6676,1.7515,1.8018,1.8491,1.8238,1.7679,1.7083,1.6472,1.6175,1.6676,1.7508,1.8461,1.9624,2.0447,2.0754,2.0113,1.9794,1.9552,1.9333,1.8679,1.8652,1.9865,1.9443,1.9552,2.0858,2.2106,2.2923,2.2888,2.3943,2.4768,2.517,2.5443,2.6303,2.7958,2.8042,2.7346,2.5879,2.7723,2.8738,2.8738,2.9482,2.9786,2.96,2.8364,2.8131,2.8735,2.8163,2.8739,3.027,3.1265,3.2177,3.3013,3.4061,3.4353,3.4123,3.4123,3.3986,3.3807,3.3807,3.3807,3.3807,0.0,0.0,0.0,0.0,0.0,0.0,0.0,1.5789,1.7023,1.8645,1.8914,1.9052,1.9325,1.8021,1.6633,0.0,0.0,0.0,0.0,0.0,0.0,0.0,0.0,0.0,0.0,0.0,0.0,0.0,0.0,0.0,0.0,0.0,0.0,0.0,0.0,2.0877,2.2224,2.1809,0.0,0.0,0.0,0.0,0.0,0.0,0.0,0.0,0.0,1.6599,1.6268,1.6401,1.6515,1.6795,1.7312,1.7201,1.7161,1.8957,1.9823,2.0207,2.0264,2.0113,1.9701,1.8785,1.8148,1.7947,1.8604,1.8469,1.8634,2.026,2.0673,2.0874,2.1274,2.1275,2.145,2.191,2.0916,2.0418,2.1225,2.0726,2.0605,2.1485,2.2724,2.3672,2.4158,2.489,2.5469,2.5892,2.6937,2.7333,2.6894,2.686,2.6759,2.659,2.7452,2.7891,2.7891,2.8704,2.8721,2.7992,2.7857,2.7856,2.8003,2.7933,2.8739,3.0246,3.1084,3.1893,3.272,3.3537,3.3868,3.3842,3.3842,3.3815,3.3807,3.3807,3.3807,3.3807,0.0,0.0,0.0,0.0,0.0,0.0,1.6158,1.6788,1.7818,1.9866,2.0107,2.0198,2.0467,1.9838,1.8786,1.718,0.0,0.0,0.0,0.0,0.0,0.0,0.0,0.0,0.0,0.0,1.8287,1.7378,1.9041,0.0,0.0,0.0,0.0,0.0,0.0,2.1317,2.226,2.1623,0.0,0.0,0.0,0.0,0.0,0.0,0.0,0.0,0.0,0.0,1.7686,1.688,1.6987,1.7475,1.8265,1.882,1.9431,2.0665,2.1307,2.1746,2.2276,2.1568,2.0566,2.0083,1.9694,1.9447,1.935,1.9279,1.9547,2.0891,2.1154,2.133,2.1882,2.1707,2.1669,2.2221,2.1045,2.0476,2.1788,2.1534,2.1615,2.2707,2.3914,2.4891,2.5434,2.5998,2.6341,2.6417,2.6859,2.7012,2.6708,2.7131,2.7165,2.6708,2.7435,2.7789,2.7789,2.8129,2.8129,2.7772,2.7351,2.7407,2.7897,2.7897,2.8488,2.9549,3.0834,3.1441,3.1656,3.3176,3.3652,3.3465,3.3707,3.3807,3.3807,3.3807,3.3807,3.3807,0.0,0.0,0.0,0.0,0.0,1.5409,1.6896,1.7578,1.8598,2.0569,2.0978,2.117,2.1393,2.0841,2.0033,1.9082,1.7981,0.0,0.0,0.0,0.0,0.0,0.0,0.0,0.0,0.0,1.9556,1.8798,2.0629,2.1893,0.0,0.0,0.0,2.3363,0.0,0.0,0.0,0.0,0.0,0.0,0.0,0.0,0.0,0.0,0.0,0.0,0.0,0.0,0.0,0.0,0.0,1.8658,1.9258,2.0426,2.1703,2.2547,2.2996,2.3504,2.4774,2.4026,2.2786,2.2275,2.1994,2.158,2.0656,2.0597,2.0914,2.1597,2.1929,2.2222,2.2796,2.2426,2.2227,2.2837,2.1794,2.1263,2.2257,2.2326,2.2617,2.3537,2.4669,2.5651,2.6443,2.6918,2.7045,2.6708,2.6691,2.6691,2.6691,2.7199,2.7249,2.6708,2.7199,2.7486,2.7486,2.7486,2.7486,2.7486,2.6945,2.7051,2.7725,2.784,2.8174,2.8748,3.0239,3.0767,3.0758,3.2556,3.3247,3.3243,3.3634,3.3807,3.3807,3.3807,3.3962,3.4146,0.0,0.0,0.0,0.0,0.0,0.0,1.6321,1.8095,1.9688,2.0744,2.1363,2.1946,2.2626,2.0876,2.0246,2.1545,1.9827,0.0,0.0,0.0,0.0,0.0,0.0,0.0,0.0,0.0,2.1191,2.1172,2.1922,2.2658,2.3406,2.4132,2.4091,2.3397,0.0,0.0,0.0,0.0,0.0,0.0,0.0,0.0,0.0,0.0,0.0,0.0,0.0,0.0,0.0,0.0,0.0,0.0,0.0,2.2114,2.3866,2.4883,2.5145,2.5653,2.7843,2.7892,2.704,2.5846,2.5311,2.4595,2.2879,2.2696,2.2765,2.2459,2.2918,2.3553,2.4173,2.3778,2.359,2.4284,2.3909,2.3317,2.271,2.3073,2.3478,2.3669,2.4658,2.5849,2.7137,2.7573,2.7468,2.6759,2.6691,2.6691,2.6691,2.6708,2.6708,2.6691,2.6708,2.6708,2.6708,2.6708,2.6708,2.6708,2.6691,2.6906,2.7334,2.7725,2.7897,2.7979,2.9116,2.9851,3.03,3.157,3.2557,3.3243,3.3634,3.3807,3.3807,3.3807,3.4301,3.499,0.0,0.0,0.0,0.0,0.0,0.0,0.0,1.8126,1.902,2.0541,2.0497,2.0756,2.1909,2.0654,2.0237,2.1565,1.9842,0.0,0.0,0.0,0.0,0.0,0.0,0.0,0.0,0.0,2.1939,2.3476,2.4191,2.5177,2.6404,2.6135,2.5898,2.5603,2.4206,2.3493,0.0,0.0,0.0,0.0,0.0,0.0,0.0,0.0,0.0,0.0,0.0,0.0,0.0,0.0,0.0,0.0,0.0,0.0,0.0,2.4829,2.5564,2.6105,2.7179,2.7047,2.6398,2.5701,2.5447,2.5045,2.3861,2.3431,2.3205,2.3133,2.325,2.3566,2.4187,2.4227,2.4518,2.5577,2.4567,2.3848,2.4431,2.4376,2.4455,2.4897,2.5909,2.6671,2.6866,2.6992,2.6945,2.6708,2.6691,2.6691,2.6691,2.6691,2.6691,2.6691,2.6691,2.6691,2.6691,2.6691,2.6691,2.6691,2.6691,2.6906,2.7286,2.7409,2.7747,2.8273,2.8979,2.9301,2.9473,3.0761,3.1876,3.2872,3.3524,3.4502,3.5496,3.5496,3.5662,3.5891,0.0,0.0,0.0,0.0,0.0,0.0,0.0,1.8508,1.9183,2.0263,2.0202,2.0483,2.158,2.0752,2.0628,2.1969,2.0705,0.0,0.0,0.0,0.0,0.0,0.0,0.0,2.1582,2.2162,2.3393,2.5321,2.5782,2.6762,2.8245,2.7784,2.7246,2.6623,2.5195,2.4223,0.0,0.0,0.0,0.0,0.0,0.0,2.2804,0.0,0.0,0.0,0.0,0.0,0.0,0.0,0.0,0.0,0.0,0.0,0.0,0.0,2.5564,2.649,2.7673,2.7754,2.7413,2.7116,2.6909,2.6526,2.5513,2.4941,2.4436,2.392,2.3959,2.4254,2.4649,2.5011,2.5523,2.6343,2.5549,2.4891,2.5066,2.4838,0.0,2.533,2.6473,2.7113,2.6724,2.6945,2.6996,2.6708,2.6691,2.6691,2.6691,2.6691,2.6691,2.6691,2.6691,2.6691,2.6691,2.6691,2.6691,2.6691,2.6691,2.6841,2.7083,2.7241,2.7626,2.817,2.8352,2.8798,0.0,3.0128,3.1422,3.3075,3.3764,3.4963,3.6297,3.6305,3.6479,3.6736,0.0,0.0,0.0,0.0,0.0,0.0,0.0,1.9069,1.9834,1.9827,2.0294,2.0882,2.1476,2.1046,2.1212,2.2495,0.0,0.0,0.0,0.0,0.0,0.0,0.0,0.0,2.2438,2.3833,2.534,2.6865,2.6881,2.7627,2.9187,2.9098,2.8289,2.6843,2.6269,2.518,0.0,0.0,0.0,0.0,0.0,2.4334,0.0,0.0,0.0,0.0,0.0,0.0,0.0,0.0,0.0,0.0,0.0,0.0,0.0,0.0,0.0,0.0,0.0,2.9434,2.9502,2.9399,2.9056,2.8502,2.7458,2.6773,0.0,2.4789,2.4994,2.5439,2.5474,2.6058,2.6599,2.6713,2.6647,2.6168,2.4941,2.4686,0.0,2.525,2.647,2.7178,2.6824,2.7367,2.7452,2.6742,2.6691,2.6691,2.6691,2.6691,2.6691,2.6691,2.6691,2.6691,2.6691,2.6691,2.6691,2.6691,2.6691,2.6725,2.6758,2.7135,2.7532,2.7878,2.7562,2.8408,3.0031,2.9713,3.1198,3.3681,3.4195,3.5187,3.6379,3.6457,3.6927,3.7595,0.0,0.0,0.0,0.0,0.0,0.0,0.0,0.0,0.0,0.0,1.9524,1.999,2.0154,2.0469,2.1009,0.0,0.0,0.0,0.0,0.0,0.0,0.0,0.0,0.0,2.395,2.4868,2.636,2.8476,2.8469,2.922,3.0684,3.0107,2.936,2.839,2.6912,2.5498,0.0,0.0,0.0,0.0,2.4612,2.374,0.0,0.0,0.0,0.0,1.9197,1.9393,0.0,0.0,0.0,0.0,0.0,0.0,0.0,0.0,2.5217,2.5724,2.7011,0.0,2.8453,2.7486,2.7203,2.7108,0.0,2.5702,2.5109,2.5861,2.5654,2.5558,2.6141,2.6826,2.7527,2.8068,2.726,2.6482,2.6168,2.5689,0.0,2.6044,2.6748,2.7359,2.7599,2.7231,2.6894,2.6708,2.6691,2.6691,2.6691,2.6691,2.6691,2.6691,2.6691,2.6691,2.6691,2.6691,2.6691,2.6691,2.6691,2.6873,2.7164,2.7503,2.8045,2.8714,2.863,2.8989,2.9627,2.9574,3.0849,3.295,3.3991,3.5542,3.7278,3.7924,3.8267,3.8426,0.0,0.0,0.0,0.0,0.0,0.0,0.0,0.0,0.0,0.0,0.0,1.969,1.969,2.0306,0.0,0.0,0.0,0.0,0.0,0.0,0.0,0.0,0.0,2.3632,2.448,2.5589,2.7102,2.8986,2.9054,2.9811,3.119,3.0808,3.0044,2.8902,2.6751,2.5153,0.0,0.0,0.0,0.0,2.3755,0.0,0.0,0.0,0.0,0.0,1.9054,1.9344,0.0,2.1952,2.2664,2.2936,0.0,0.0,0.0,0.0,2.4816,2.5012,2.5783,2.706,2.7964,2.7375,2.7076,2.705,2.7303,2.6087,2.5223,2.6264,2.6162,2.591,2.5986,2.6364,2.6865,2.7533,2.6556,2.5819,0.0,0.0,2.5696,2.5885,2.6215,2.6551,2.6973,2.6649,2.6455,2.6674,2.6691,2.6691,2.6691,2.6691,2.6691,2.6691,2.6691,2.6691,2.6691,2.6691,2.6691,2.6708,2.7265,2.7631,2.7889,2.8389,2.904,2.9764,2.9588,3.0003,3.0788,3.0788,3.2124,3.4232,3.49,3.6331,3.8169,3.8933,3.9252,3.9301,0.0,0.0,0.0,0.0,0.0,0.0,0.0,0.0,0.0,0.0,0.0,0.0,0.0,0.0,0.0,0.0,0.0,0.0,0.0,0.0,0.0,0.0,2.3086,2.4064,2.4528,2.6045,2.7502,2.8887,2.9104,2.9861,3.105,3.1157,3.0319,2.8649,2.6278,2.4678,2.379,0.0,0.0,0.0,2.2981,0.0,0.0,0.0,0.0,0.0,0.0,0.0,0.0,2.2464,2.3006,2.2957,2.4499,0.0,0.0,0.0,0.0,0.0,2.5005,2.6135,2.7177,2.7352,2.7064,2.6895,2.7611,2.6352,2.5274,2.6172,2.6244,2.5952,2.5376,2.5431,2.5735,2.6236,2.5452,2.4926,2.5248,2.5386,2.5454,2.5428,2.5413,2.5597,2.6124,2.6077,2.6185,2.6657,2.664,2.6573,2.6573,2.6691,2.6759,2.6759,2.6945,2.7063,2.7046,2.6928,2.6928,2.7046,2.8097,2.8587,2.867,2.9415,3.0109,3.0681,3.0577,3.1218,3.233,3.2513,3.3865,3.5846,3.6167,3.7282,3.8817,3.9735,4.0079,4.0202,0.0,0.0,0.0,0.0,0.0,0.0,0.0,0.0,0.0,0.0,0.0,0.0,0.0,0.0,0.0,0.0,0.0,0.0,0.0,0.0,0.0,2.1937,2.3088,2.4016,2.4656,2.581,2.7033,2.842,2.9018,2.9686,3.0437,3.0982,2.9949,2.7566,2.6031,2.5035,2.4477,2.4471,0.0,2.4095,2.2555,0.0,0.0,0.0,0.0,0.0,0.0,0.0,0.0,2.088,2.1871,2.2665,2.2384,0.0,0.0,0.0,0.0,0.0,2.4852,2.4541,2.4014,2.4164,2.4045,2.3985,2.4283,2.361,2.3409,2.5231,2.5053,2.4614,2.4627,2.5053,2.5439,2.5563,2.5365,2.4882,2.401,2.4403,2.4964,2.5513,2.5494,2.5828,2.6899,2.6398,2.6185,2.6657,2.632,2.6118,2.6118,2.6691,2.7029,2.7031,2.8076,2.8642,2.8636,2.7977,2.7977,2.8636,2.8846,2.9075,2.9383,3.0162,3.056,3.0681,3.1975,3.2471,3.2364,3.3459,3.4327,3.5173,3.7001,3.8125,3.8891,4.0377,4.0921,4.104,0.0,0.0,0.0,0.0,0.0,0.0,0.0,0.0,0.0,0.0,0.0,0.0,0.0,0.0,0.0,0.0,0.0,0.0,0.0,0.0,2.0879,2.108,2.1422,2.2259,2.3763,2.5419,2.69,2.8199,2.938,3.0467,3.144,3.0583,2.9197,2.7336,2.6009,2.5129,2.4596,2.4469,2.4406,2.4272,0.0,0.0,0.0,0.0,0.0,0.0,0.0,0.0,0.0,0.0,2.2452,2.3192,2.2842,0.0,0.0,0.0,0.0,0.0,2.2275,2.2207,2.2001,2.1352,2.1735,2.2428,2.2912,2.2485,2.2544,2.4529,2.464,2.4286,2.3959,2.3918,2.3757,2.3473,2.4567,2.5168,2.4283,2.4713,2.5106,2.5082,2.5005,2.5452,2.6589,2.6399,2.6657,2.7827,2.7742,2.7619,2.7619,2.7961,2.8139,2.8118,2.8696,2.9202,2.959,2.9234,2.9028,2.9028,2.9621,3.0145,3.0547,3.1319,3.188,3.2267,3.3199,3.3556,3.3601,3.5028,3.6064,3.6856,3.829,3.9281,4.0139,4.1328,4.2014,4.2459,0.0,0.0,0.0,0.0,0.0,0.0,0.0,0.0,0.0,0.0,0.0,0.0,0.0,0.0,0.0,0.0,0.0,0.0,0.0,0.0,1.9769,2.0043,1.98,2.0657,2.2743,2.4554,2.6291,2.7959,2.9453,3.0949,3.2304,3.0103,2.8567,2.757,2.61,2.5317,2.5058,2.4591,2.4488,2.4491,0.0,0.0,0.0,0.0,0.0,0.0,0.0,0.0,0.0,0.0,0.0,0.0,0.0,0.0,0.0,2.1989,2.1433,2.1034,2.0197,2.0049,1.9897,1.8973,1.978,2.0926,2.1761,2.143,2.1472,2.3325,2.373,2.3595,2.3073,2.2788,2.2694,2.2556,2.4218,2.5349,2.49,2.5273,2.5403,2.4903,2.482,2.5245,2.6243,2.645,2.7161,2.8698,2.8783,2.8811,2.8809,2.8992,2.9164,2.9307,2.9618,3.0153,3.0849,3.0849,3.0404,2.9553,3.0396,3.1046,3.1502,3.2262,3.2914,3.3477,3.4297,3.4665,3.4922,3.6683,3.7922,3.8734,3.975,4.0763,4.1735,4.2338,4.2981,4.3497,0.0,0.0,0.0,0.0,0.0,0.0,0.0,0.0,0.0,0.0,0.0,0.0,0.0,0.0,0.0,0.0,0.0,0.0,0.0,0.0,1.8216,1.9238,1.9195,2.0121,2.2095,2.2804,2.4573,2.7523,2.8703,3.0332,3.2242,2.9672,2.8415,2.8249,2.6428,2.5916,2.6355,2.4996,2.4736,2.5107,2.2809,0.0,0.0,0.0,0.0,0.0,0.0,0.0,0.0,0.0,0.0,0.0,0.0,0.0,2.2534,2.1248,2.0399,1.9914,2.0328,1.8666,1.6945,1.7397,1.8121,1.8942,1.972,1.9481,1.9486,2.0971,2.1514,2.1711,2.1655,2.2405,2.3458,2.4756,2.5129,2.5318,2.5484,2.5561,2.5564,2.552,2.5536,2.5775,2.633,2.6905,2.747,2.8108,2.8229,2.8256,2.8277,2.8903,2.9603,3.0269,3.1438,3.2429,3.3165,3.3165,3.2462,3.1038,3.1111,3.1363,3.1792,3.2589,3.2988,3.3162,3.5227,3.5891,3.5728,3.8238,3.9363,3.9611,4.1414,4.2585,4.3314,4.3369,4.3442,4.3497,0.0,0.0,0.0,0.0,0.0,0.0,0.0,0.0,0.0,0.0,0.0,0.0,0.0,0.0,0.0,0.0,0.0,0.0,0.0,1.7534,1.7099,1.7476,1.7339,1.8185,2.0292,2.2397,2.4926,2.7961,3.0166,3.1607,3.2256,3.0468,2.9183,2.8361,2.7285,2.6479,2.5864,2.525,2.4901,2.461,2.322,2.21,0.0,0.0,0.0,0.0,0.0,0.0,0.0,0.0,2.0229,2.1076,2.0049,2.054,2.1199,1.9522,1.9083,1.8869,1.7783,1.7416,1.7262,1.7032,1.7195,1.7511,1.8038,1.7984,1.8428,2.057,2.0899,2.106,2.1875,2.2782,2.3702,2.46,2.5503,2.6264,2.6756,2.6494,2.6234,2.6234,2.5834,2.6147,2.7575,2.7514,2.8167,2.9955,2.9705,2.9671,3.0057,3.0752,3.1309,3.1573,3.2502,3.3139,3.3408,3.3415,3.3141,3.2596,3.2555,3.2571,3.2605,3.4156,3.4941,3.5163,3.6823,3.7361,3.7157,3.8945,3.9909,4.0433,4.2304,4.3222,4.3497,4.3497,4.3497,4.3497,0.0,0.0,0.0,0.0,0.0,0.0,0.0,0.0,0.0,0.0,0.0,0.0,0.0,0.0,0.0,0.0,0.0,0.0,1.7906,1.7038,1.6669,1.7034,1.6663,1.7515,1.9815,2.2238,2.4957,2.7922,3.0548,3.1901,3.1976,3.0274,2.9215,2.8693,2.7659,2.6786,2.6084,2.5406,2.4774,2.4221,2.3234,2.2322,0.0,0.0,0.0,0.0,0.0,0.0,0.0,0.0,1.9549,1.9997,1.9476,1.9704,1.9866,1.8326,1.8044,1.7949,1.6543,1.6801,1.7326,1.6855,1.6934,1.7179,1.7429,1.7557,1.8196,2.0245,2.0854,2.1424,2.2693,2.3438,2.4257,2.5515,2.6546,2.7422,2.8151,2.783,2.7542,2.7573,2.7167,2.7409,2.8705,2.8783,2.947,3.124,3.1297,3.1443,3.1867,3.2377,3.2764,3.2968,3.3471,3.399,3.4482,3.4471,3.4497,3.4492,3.4711,3.4406,3.3727,3.5471,3.6406,3.6748,3.8139,3.8564,3.8391,4.0026,4.1038,4.171,4.3012,4.3497,4.3497,4.3497,4.3644,4.3883,0.0,0.0,0.0,0.0,0.0,0.0,0.0,0.0,0.0,0.0,0.0,0.0,0.0,0.0,0.0,0.0,0.0,0.0,1.7879,1.7027,1.7024,1.8224,1.7573,1.8419,2.0973,2.2307,2.4432,2.7315,2.9469,3.0798,3.1298,2.8706,2.8186,2.9407,2.7452,2.6901,2.7345,2.5294,2.4381,2.4168,2.2814,2.1983,2.1481,0.0,0.0,0.0,0.0,0.0,0.0,0.0,1.8733,1.8473,1.9382,1.9334,1.8709,1.7844,1.7427,1.7183,1.7172,1.6921,1.6665,1.6738,1.7383,1.8018,1.8018,1.8249,1.8802,1.9711,2.1212,2.2731,2.4084,2.44,2.5308,2.7872,2.8381,2.8684,2.9537,2.9595,2.9606,2.96,2.9579,2.9594,2.9594,3.0736,3.1485,3.1532,3.2685,3.3406,3.3406,3.3423,3.377,3.449,3.4534,3.527,3.6793,3.681,3.6791,3.6844,3.7537,3.6962,3.5261,3.6348,3.7058,3.7517,3.9109,3.9525,3.9185,4.1695,4.3014,4.3497,4.3497,4.3497,4.3497,4.3516,4.403,4.4727,0.0,0.0,0.0,0.0,0.0,0.0,0.0,0.0,0.0,0.0,0.0,0.0,0.0,0.0,0.0,0.0,0.0,0.0,1.7357,1.6942,1.6862,1.7222,1.7016,1.8109,2.0563,2.3794,2.6256,2.7904,2.9681,3.0317,2.9964,2.8683,2.804,2.7961,2.6886,2.5441,2.3778,2.3223,2.24,2.1543,2.1531,2.1264,2.0953,0.0,0.0,0.0,0.0,0.0,0.0,0.0,0.0,0.0,1.7311,1.7716,1.813,1.6352,1.6483,1.6929,1.584,1.6108,1.6807,1.7109,1.7822,1.8447,1.8447,1.8762,1.9517,2.1063,2.2811,2.4367,2.5406,2.6042,2.6982,2.8753,2.9521,3.011,3.0834,3.0513,3.0245,3.0208,2.9884,2.9948,3.0952,3.0943,3.1451,3.2784,3.2821,3.2927,3.3364,3.4387,3.5064,3.525,3.6327,3.7094,3.7557,3.7545,3.7562,3.7593,3.8314,3.7865,3.6399,3.8122,3.8763,3.8584,3.9991,4.025,3.9898,4.142,4.2619,4.3497,4.3497,4.3846,4.4415,4.4984,4.57,4.6489,0.0,0.0,0.0,0.0,0.0,0.0,0.0,0.0,0.0,0.0,2.4818,2.4146,0.0,0.0,0.0,0.0,0.0,0.0,1.7872,1.7459,1.7376,1.7646,1.7662,1.8927,2.1688,2.4667,2.6489,2.7107,2.8607,2.9083,2.8607,2.7821,2.7091,2.6454,2.6148,2.458,2.2142,2.1873,2.136,2.0746,2.0854,2.0933,2.1029,0.0,0.0,0.0,0.0,0.0,0.0,0.0,0.0,0.0,1.6093,1.6208,1.6539,1.5385,1.5713,1.6434,1.6164,1.6758,1.7598,1.8037,1.8643,1.9275,2.0042,2.0308,2.0842,2.2215,2.3732,2.5052,2.5883,2.6701,2.7684,2.91,3.0218,3.1016,3.1407,3.1157,3.0877,3.0881,3.0809,3.1095,3.1897,3.2372,3.311,3.4297,3.4562,3.4789,3.5155,3.6045,3.6506,3.6494,3.7405,3.8029,3.8333,3.8319,3.8453,3.8788,3.9242,3.8954,3.8156,3.9588,4.0077,3.9816,4.0804,4.1313,4.1508,4.2317,4.3346,4.4488,4.48,4.5424,4.6195,4.6673,4.7388,4.8159,0.0,0.0,0.0,0.0,0.0,0.0,0.0,0.0,0.0,2.3939,2.4214,2.3631,0.0,0.0,0.0,1.9864,1.9761,1.956,1.8995,1.8347,1.8321,1.9069,1.9179,2.0633,2.3601,2.4896,2.5517,2.543,2.6712,2.7268,2.7092,2.6162,2.5441,2.4899,2.501,2.3864,2.1692,2.0902,2.0724,2.0831,2.0413,2.0665,2.1267,2.1317,0.0,0.0,0.0,0.0,0.0,0.0,0.0,0.0,1.5608,1.4926,1.4601,1.4735,1.5178,1.5984,1.7427,1.8223,1.874,1.918,1.9703,2.0551,2.228,2.2506,2.2662,2.3361,2.4296,2.5204,2.6015,2.6897,2.7942,2.939,3.0734,3.1586,3.1646,3.1661,3.1661,3.1661,3.2359,3.2827,3.2882,3.4678,3.5828,3.5894,3.7131,3.7905,3.7905,3.7973,3.801,3.8014,3.8082,3.8403,3.9076,3.9076,3.943,4.007,4.007,4.007,4.0121,4.0607,4.0856,4.0949,4.1534,4.248,4.3574,4.381,4.4667,4.5975,4.6801,4.7609,4.8324,4.8471,4.9077,4.9811,0.0,0.0,0.0,0.0,0.0,0.0,0.0,0.0,2.3297,2.3047,2.3816,2.3677,2.186,2.1693,0.0,1.9342,1.956,1.9397,1.8442,1.8622,1.9093,1.976,2.1142,2.2441,2.3663,2.3966,2.439,2.4881,2.5583,2.5522,2.4747,2.2981,2.258,2.3378,2.1812,2.0679,1.9826,1.8737,1.8317,1.8429,1.8877,1.9271,1.9597,2.0012,1.9698,0.0,0.0,0.0,0.0,0.0,0.0,0.0,1.5157,1.4906,1.4689,1.4073,1.534,1.6925,1.6621,1.7539,1.874,1.918,2.042,2.1665,2.203,2.3352,2.4541,2.5019,2.564,2.6614,2.8048,2.8477,2.9307,3.1471,3.208,3.2482,3.3006,3.308,3.308,3.308,3.375,3.4466,3.499,3.5942,3.6788,3.7379,3.7708,3.7905,3.7905,3.8447,3.8768,3.8753,3.9294,3.9682,3.9851,3.9851,3.9952,4.007,4.007,4.007,4.0121,4.0204,4.0497,4.0949,4.1534,4.2583,4.3826,4.3891,4.4667,4.5975,4.6801,4.7609,4.8471,4.9793,5.0784,5.1555,0.0,0.0,0.0,0.0,0.0,0.0,0.0,0.0,2.298,2.273,2.3005,2.2733,2.1456,2.0795,0.0,0.0,1.8862,1.8778,1.8242,1.848,1.9153,2.0381,2.1897,2.2853,2.323,2.3533,2.3283,2.2424,2.2565,2.2828,2.3129,2.1596,2.1213,2.1794,2.0917,1.9761,1.8379,1.7977,1.779,1.7743,1.8447,1.8992,1.9434,1.9698,1.9484,1.8983,1.8983,0.0,0.0,0.0,0.0,0.0,0.0,0.0,1.4535,1.4258,1.53,1.6617,1.7181,1.8105,1.9102,1.9736,2.0596,2.1593,2.2478,2.3514,2.4696,2.6114,2.644,2.6905,2.8182,2.8981,2.9975,3.1594,3.251,3.3095,3.344,3.3499,3.3499,3.3499,3.4163,3.4873,3.5639,3.6645,3.7618,3.8364,3.8751,3.8937,3.8937,3.9309,3.9512,3.9512,3.9884,4.007,4.007,4.007,4.007,4.007,4.007,4.0441,4.1111,4.0987,4.155,4.2721,4.3041,4.3842,4.4889,4.5271,4.6081,4.7168,4.8398,4.937,5.0215,5.1481,5.2215,5.2637,0.0,0.0,0.0,0.0,0.0,0.0,0.0,0.0,0.0,2.2551,2.2177,2.1629,2.0954,1.9804,1.8823,0.0,0.0,0.0,1.8053,1.8465,1.9443,2.1115,2.2271,2.2785,2.2694,2.2944,2.198,1.975,1.9066,1.9586,0.0,2.0449,2.0134,2.0275,2.0444,1.9353,1.7423,1.7688,1.7733,1.771,1.8253,1.8851,1.9384,1.9384,1.912,1.8744,1.8744,1.8556,1.8265,1.7763,0.0,0.0,0.0,0.0,1.4276,1.4671,1.5223,1.6067,1.7803,1.8921,1.9776,2.0648,2.1078,2.1756,2.3368,2.3948,2.4725,2.6884,2.6917,2.696,2.8013,2.9263,3.0471,3.1604,3.2815,3.3709,3.3829,3.3844,3.3844,3.3844,3.4543,3.5316,3.6007,3.7355,3.8485,3.9125,3.9732,4.007,4.007,4.007,4.007,4.007,4.007,4.007,4.007,4.0206,4.0273,4.0273,4.0392,4.1151,4.2354,4.2255,4.3158,4.4784,4.4875,4.5369,4.6159,4.6838,4.759,4.8471,5.016,5.1206,5.1903,5.2858,5.3206,5.3206,0.0,0.0,0.0,0.0,0.0,0.0,0.0,0.0,0.0,0.0,2.1856,2.1657,2.0969,1.9822,1.8689,1.7583,1.7944,1.8012,1.7526,0.0,0.0,2.24,2.3098,2.3246,2.2694,2.1227,2.0051,1.9143,1.6567,1.6198,0.0,0.0,0.0,1.885,1.7924,1.7584,1.7534,1.6846,1.6795,1.7237,1.7491,1.7656,1.7702,1.7702,1.7664,1.7601,1.7601,1.7387,1.7115,1.7389,1.6156,0.0,0.0,0.0,1.4222,1.4276,1.5331,1.6567,1.687,1.8765,2.0761,2.1593,2.3147,2.4492,2.4707,2.5863,2.6884,2.7268,2.7218,2.7844,2.9997,3.0551,3.1453,3.3691,3.4215,3.4562,3.516,3.5235,3.5235,3.5235,3.6489,3.7419,3.7534,3.8904,3.9817,3.9935,4.002,4.007,4.007,4.007,4.007,4.007,4.007,4.007,4.007,4.073,4.1052,4.1068,4.1694,4.2381,4.3086,4.3546,4.4275,4.5095,4.5534,4.6214,4.6966,4.7076,4.759,4.8471,5.016,5.0875,5.1151,5.2656,5.3206,5.3206,0.0,0.0,0.0,0.0,0.0,0.0,0.0,0.0,0.0,0.0,0.0,2.0567,1.9963,1.8869,1.7837,1.6964,1.7125,1.7287,1.7375,1.9244,2.0592,2.1167,2.2058,2.2117,2.1194,2.0025,1.8652,1.7026,1.529,0.0,0.0,1.5704,1.6806,0.0,0.0,1.7245,1.7235,1.6634,1.6541,1.6693,1.6541,1.7363,1.8606,1.7375,1.7664,1.8618,1.7702,1.6991,1.6517,1.6955,1.5963,1.4562,1.4809,0.0,0.0,0.0,1.5367,1.6572,1.7539,1.8864,2.0131,2.1009,2.2264,2.3519,2.4391,2.5599,2.676,2.7999,2.8622,2.9429,3.0609,3.1559,3.2694,3.4222,3.4801,3.516,3.5459,3.5504,3.5668,3.6054,3.6692,3.7499,3.8358,3.9032,3.961,4.007,4.007,4.007,4.007,4.007,4.007,4.007,4.0493,4.0713,4.0713,4.1441,4.1813,4.1813,4.2467,4.3167,4.3915,4.483,4.5419,4.5748,4.6318,4.704,4.7774,4.7774,4.8269,4.915,5.0343,5.1077,5.161,5.2784,5.3206,5.3206,0.0,0.0,0.0,0.0,0.0,0.0,0.0,0.0,0.0,0.0,0.0,1.9497,1.8963,0.0,0.0,0.0,1.6308,1.657,1.7186,1.8505,1.9432,1.983,2.0913,2.0952,1.9807,1.9098,1.7654,1.5485,1.4521,0.0,1.4341,1.4558,1.5848,0.0,1.7557,1.7214,0.0,0.0,0.0,1.666,1.6424,1.7564,1.9271,1.8191,1.8807,1.9999,1.8229,0.0,0.0,0.0,1.5521,1.4619,1.4619,1.4834,0.0,0.0,0.0,1.6094,1.7715,1.8666,1.9463,2.0496,2.1803,2.3152,2.4536,2.5753,2.7066,2.86,2.9969,3.0989,3.1213,3.2458,3.3682,3.4599,3.5175,3.5504,3.5504,3.5668,3.6006,3.6554,3.6948,3.7642,3.8799,3.9086,3.9437,4.007,4.007,4.007,4.007,4.0257,4.0358,4.0358,4.1085,4.1474,4.1474,4.2202,4.2675,4.2878,4.3357,4.3889,4.4475,4.5673,4.6245,4.6288,4.7062,4.7755,4.8324,4.8545,4.9003,4.9682,5.071,5.1463,5.2087,5.2913,5.3206,5.3206,0.0,0.0,0.0,0.0,0.0,0.0,0.0,0.0,0.0,0.0,0.0,1.895,1.8405,1.7753,1.6936,1.5831,1.5731,1.6028,1.6691,1.7276,1.8153,1.928,2.0378,0.0,1.9171,1.8362,1.7126,1.5485,0.0,0.0,1.5303,1.4056,1.4371,1.606,1.6747,1.7027,1.692,0.0,0.0,1.7368,1.789,1.8166,1.8505,2.0476,0.0,2.1117,0.0,0.0,0.0,0.0,0.0,0.0,1.4116,1.4126,1.4145,0.0,0.0,0.0,1.6475,1.7805,1.924,2.0946,2.3239,2.5254,2.6151,2.7614,2.8775,2.8913,3.0818,3.2481,3.251,3.3309,3.4269,3.5314,3.5489,3.5504,3.5504,3.6117,3.6554,3.6615,3.7873,3.8799,3.8908,3.961,4.007,4.007,4.007,4.007,4.007,4.0747,4.1136,4.1136,4.1863,4.2236,4.2236,4.298,4.3741,4.4451,4.4507,4.4524,4.4614,4.5863,4.6407,4.6454,4.7684,4.8269,4.8361,4.9187,4.9536,4.9738,5.1316,5.1958,5.2087,5.2913,5.3206,5.3206,0.0,0.0,0.0,0.0,0.0,0.0,0.0,0.0,0.0,0.0,0.0,0.0,0.0,1.6087,1.549,1.474,1.4682,1.4799,1.5024,1.5854,1.6851,1.8039,1.8782,1.8904,1.8314,1.7647,1.648,1.4784,1.3499,1.3314,1.4133,1.3803,1.4029,1.4684,1.5069,1.5477,1.5786,1.4858,0.0,0.0,1.6236,1.7653,0.0,0.0,0.0,0.0,0.0,0.0,0.0,0.0,0.0,0.0,0.0,0.0,0.0,0.0,0.0,1.636,1.7765,1.8498,0.0,2.0736,2.2868,2.4849,2.5801,2.7494,2.9038,2.9402,3.1122,3.2593,3.2593,3.3891,3.5067,3.5424,3.5504,3.5504,3.5504,3.6102,3.6783,3.7338,3.8302,3.9086,3.961,3.9952,4.007,4.007,4.007,4.029,4.0781,4.1068,4.1424,4.188,4.2625,4.325,4.3758,4.4028,4.4299,4.4587,4.4587,4.4587,4.4626,4.5459,4.6046,4.6495,4.7865,4.8429,4.8379,4.9224,4.9884,5.0472,5.1555,5.2307,5.2821,5.3096,5.3206,5.3206,0.0,0.0,0.0,0.0,0.0,0.0,0.0,0.0,0.0,1.6539,0.0,0.0,0.0,0.0,1.4573,1.4081,1.3834,1.3726,1.3726,1.4782,1.5802,1.6744,1.7696,1.8033,1.7656,1.7352,1.6269,1.439,1.3646,1.3377,1.3662,1.3686,1.3785,1.3999,1.3846,1.4431,0.0,0.0,0.0,1.5636,0.0,0.0,1.9502,0.0,0.0,0.0,0.0,0.0,0.0,0.0,0.0,0.0,0.0,0.0,0.0,0.0,0.0,1.6852,1.7878,1.8422,1.9066,2.0686,2.2292,2.3934,2.5837,2.7397,2.8649,2.9591,3.1267,3.2593,3.2593,3.4192,3.5504,3.5504,3.5504,3.5504,3.5504,3.6352,3.7203,3.7748,3.8707,3.9489,4.007,4.007,4.007,4.007,4.0307,4.0679,4.117,4.1677,4.2286,4.3031,4.3555,4.4062,4.457,4.4587,4.4587,4.4587,4.4587,4.4587,4.4626,4.5407,4.6055,4.6565,4.8191,4.8849,4.882,4.9939,5.071,5.1279,5.2087,5.2729,5.3206,5.3206,5.3206,5.3206,0.0,0.0,0.0,0.0,0.0,0.0,0.0,0.0,1.6068,1.4986,0.0,0.0,0.0,0.0,0.0,1.3862,1.3343,1.3015,1.2982,1.4124,1.499,1.5588,1.7196,1.7786,1.7107,1.7395,1.6523,1.4411,1.465,1.4531,1.4068,0.0,1.3633,1.3963,1.3093,1.3981,1.5935,0.0,1.4676,1.5702,0.0,1.8689,1.779,0.0,0.0,0.0,1.9535,1.9165,0.0,1.8018,0.0,0.0,0.0,0.0,0.0,0.0,0.0,0.0,0.0,0.0,0.0,2.0736,2.1527,2.2834,2.636,2.7188,2.7682,2.9466,3.1275,3.2538,3.2664,3.4192,3.5504,3.5504,3.5504,3.5504,3.5504,3.6845,3.7822,3.7822,3.9172,4.007,4.007,4.007,4.007,4.007,4.0781,4.1221,4.1238,4.2642,4.3792,4.4553,4.4587,4.4587,4.4587,4.4587,4.4587,4.4587,4.4587,4.4587,4.4626,4.585,4.6484,4.6708,4.8681,4.9551,4.9774,5.1353,5.1995,5.2068,5.2894,5.3164,5.3164,5.3206,5.3206,5.3206,0.0,0.0,0.0,0.0,0.0,1.8524,1.7053,1.5911,1.4734,0.0,0.0,0.0,0.0,0.0,1.3152,1.2645,1.3379,1.3611,1.3017,1.3619,1.4417,1.5357,1.5866,1.6282,1.6667,1.6493,1.5668,1.4198,1.3992,1.3799,1.3682,1.3537,1.3698,0.0,1.3796,1.3743,1.3731,1.3094,0.0,1.4789,1.5477,1.6787,0.0,0.0,0.0,0.0,0.0,2.0015,1.9363,0.0,1.8699,1.7619,0.0,0.0,0.0,0.0,0.0,0.0,1.825,0.0,0.0,0.0,0.0,0.0,2.4418,2.5224,2.6278,2.9035,3.0212,3.1383,3.3277,3.4624,3.5504,3.5504,3.5504,3.5504,3.5504,3.6845,3.7822,3.7822,3.9172,4.007,4.007,4.007,4.007,4.007,4.0781,4.1441,4.1965,4.3436,4.435,4.457,4.4587,4.4587,4.4587,4.4587,4.4587,4.4587,4.4587,4.4587,4.466,4.5525,4.6464,4.7491,4.9144,5.0398,5.1353,5.1811,5.167,5.132,5.2669,5.2875,5.249,5.2999,5.3206,5.3206,0.0,0.0,1.8001,1.8184,1.7031,1.5806,1.4859,1.4006,1.3108,0.0,0.0,0.0,0.0,0.0,1.2859,1.265,1.3576,1.3862,1.3253,1.3342,1.3857,1.4712,1.4982,1.5285,1.5711,1.5637,1.5005,1.3877,1.3623,1.3418,1.3242,1.3242,1.3379,1.3613,1.3613,1.334,1.2832,0.0,0.0,0.0,1.5205,0.0,0.0,1.9022,2.0042,0.0,0.0,0.0,1.9463,2.0605,1.9685,0.0,0.0,0.0,0.0,0.0,0.0,1.8568,1.8656,1.9007,1.9623,0.0,0.0,0.0,2.4381,2.4921,2.5706,2.8936,3.0113,3.1144,3.3044,3.4177,3.4986,3.5424,3.5504,3.5504,3.5504,3.6845,3.7822,3.7822,3.9172,4.007,4.007,4.007,4.0206,4.0527,4.1238,4.2252,4.3639,4.4857,4.55,4.55,4.55,4.55,4.55,4.55,4.5348,4.5043,4.5348,4.5348,4.5134,4.6395,4.7456,4.8291,5.0056,5.1156,5.1665,5.2242,5.2242,5.19,5.2524,5.2662,5.2599,5.3042,5.3206,5.3206,0.0,0.0,1.4958,1.5578,1.3849,1.2492,1.2949,1.2183,1.1391,0.0,1.1008,1.1228,0.0,0.0,0.0,0.0,1.3849,1.3946,1.3545,1.328,1.3376,1.3936,1.4482,1.477,1.4597,1.4955,1.4645,1.3574,1.3525,1.3311,1.2949,1.29,1.29,1.2939,1.2852,1.2812,1.2783,1.1742,0.0,1.2792,1.6301,1.7036,0.0,0.0,2.0058,1.93,1.9979,1.9961,1.9922,2.1771,2.1019,0.0,0.0,0.0,0.0,0.0,1.7085,1.9083,1.8455,1.9032,2.0049,0.0,0.0,0.0,2.5048,2.5209,2.5514,2.8946,3.0251,3.1146,3.2332,3.3289,3.4112,3.4927,3.525,3.5415,3.5489,3.6845,3.7822,3.7822,3.9172,4.0104,4.0189,4.0206,4.051,4.1271,4.2083,4.3504,4.572,4.6447,4.6786,4.6786,4.6786,4.6786,4.6786,4.6786,4.6464,4.5838,4.6481,4.6447,4.5896,4.791,4.8872,4.9147,5.1048,5.1701,5.1411,5.2527,5.2955,5.2893,5.2445,5.2554,5.3103,5.3164,5.3206,5.3206,1.3077,1.2323,1.1747,1.2325,1.1526,1.0622,1.0135,1.0444,1.0465,0.975,1.0469,1.1213,0.0,0.0,0.0,0.0,1.3846,1.4007,1.3533,1.3441,1.3481,1.3571,1.4001,1.439,1.473,1.483,1.4597,1.3961,1.3672,1.3467,1.3379,1.3037,1.3066,1.335,1.2666,1.2353,1.2307,1.2117,0.0,1.4336,1.4554,0.0,1.7747,1.9449,2.0572,2.1351,2.1787,2.1953,2.1869,2.1778,2.1659,2.1308,0.0,0.0,0.0,1.7832,0.0,0.0,0.0,0.0,0.0,0.0,0.0,0.0,2.2159,2.2636,2.3888,2.7782,2.831,2.8982,3.1991,3.2685,3.2659,3.2333,3.3634,3.4876,3.5429,3.6845,3.7822,3.7822,3.9172,4.0307,4.0933,4.0984,4.1288,4.2016,4.3352,4.484,4.6498,4.6718,4.6786,4.6786,4.6786,4.6786,4.6786,4.6786,4.6718,4.6583,4.6718,4.6718,4.6658,4.8187,4.9222,4.9817,5.0845,5.1844,5.2725,5.1874,5.1512,5.1611,5.2617,5.2707,5.2381,5.2999,5.3206,5.3206,0.9015,0.8463,0.8101,0.8343,0.8466,0.8388,0.7955,0.9018,0.9612,0.8843,0.944,0.0,0.0,0.0,0.0,0.0,0.0,1.3996,1.3596,1.334,1.3193,1.3193,1.3184,1.3389,1.3828,1.4043,1.4141,1.4077,1.3711,1.3506,1.3496,1.3076,1.3447,1.4404,1.3125,1.3027,1.3708,0.0,1.2721,1.3965,1.5117,0.0,1.9102,2.04,2.1435,2.2227,2.2441,2.2646,2.2627,2.164,2.1425,0.0,2.0081,2.0572,2.1134,0.0,1.9613,2.1129,0.0,0.0,0.0,2.0162,0.0,0.0,0.0,2.3917,2.541,2.8285,2.8926,2.9631,3.1897,3.2273,3.237,3.2497,3.3903,3.4876,3.4547,3.6393,3.7822,3.7822,3.9172,4.0223,4.0612,4.0984,4.183,4.3318,4.5179,4.6566,4.731,4.7699,4.7902,4.7902,4.7902,4.7902,4.7902,4.7902,4.7716,4.7361,4.7716,4.7699,4.7437,4.917,5.0189,5.0588,5.1283,5.2018,5.2599,5.1904,5.1593,5.1661,5.2399,5.2662,5.2707,5.3042,5.3206,5.3206,0.5377,0.5319,0.5289,0.527,0.5868,0.6359,0.6359,0.7747,0.8636,0.827,0.8599,0.0,0.0,0.0,0.0,0.0,0.0,1.4072,1.3665,1.3503,1.3369,1.3369,1.2871,1.2842,1.3359,1.3535,1.375,1.3961,1.3672,1.3506,1.3496,1.3076,1.3652,0.0,0.0,0.0,0.0,0.0,0.0,1.438,0.0,1.8125,1.9228,2.0977,2.1846,2.2178,2.251,2.2852,2.2969,2.1855,2.147,2.1419,2.0862,2.1675,0.0,0.0,0.0,0.0,0.0,0.0,0.0,0.0,0.0,2.284,0.0,0.0,0.0,0.0,0.0,0.0,0.0,0.0,0.0,3.2467,0.0,0.0,0.0,3.5779,0.0,3.7422,3.9255,4.0392,4.0104,4.0629,4.2049,4.4604,4.6194,4.731,4.7885,4.8612,4.9001,4.9001,4.9001,4.9001,4.9001,4.9001,4.8714,4.8139,4.8731,4.8741,4.8345,5.0237,5.1189,5.1343,5.1856,5.2159,5.2271,5.2159,5.2159,5.2317,5.2317,5.2662,5.3206,5.3206,5.3206,5.3206,0.5111,0.5274,0.5328,0.5172,0.5325,0.5554,0.5554,0.6396,0.7315,0.826,0.0,0.0,0.0,0.0,0.0,0.0,0.0,1.4269,1.3795,1.4608,1.5127,1.5127,1.4291,1.4243,1.5107,1.4424,1.3906,1.3574,1.3525,1.3506,1.3496,1.3076,1.3184,0.0,1.4316,0.0,0.0,0.0,1.6163,0.0,1.8185,1.7129,0.0,1.9492,2.0742,2.0986,2.2519,2.3096,2.3057,0.0,2.3018,2.3429,0.0,2.346,2.6036,2.207,0.0,0.0,0.0,0.0,0.0,0.0,2.4794,0.0,0.0,0.0,2.833,2.9192,0.0,0.0,0.0,0.0,0.0,0.0,0.0,0.0,3.2878,3.5102,3.6582,3.6014,3.9574,4.1525,4.0206,4.0155,4.1694,4.5314,4.4553,4.5094,4.7784,4.8612,4.9001,4.9001,4.9001,4.9001,4.9001,4.9001,4.8968,4.8883,4.8968,4.9265,4.9798,5.0681,5.1444,5.2,5.2065,5.249,5.3042,5.2381,5.249,5.306,5.306,5.3121,5.3206,5.3206,5.3206,5.3206,0.5273,0.4449,0.3768,0.3477,0.4092,0.4593,0.4452,0.5365,0.6244,0.6627,0.0,0.0,0.0,0.0,0.0,0.0,0.0,1.3089,1.3797,1.4497,1.4956,1.5068,1.4463,1.4253,1.4658,1.4262,1.4,1.3877,1.3623,1.3506,1.3496,1.3076,1.3633,0.0,1.5098,0.0,1.6191,0.0,1.6049,0.0,0.0,0.0,0.0,2.0264,2.206,2.2158,2.2881,2.3135,2.3105,0.0,2.3187,0.0,0.0,0.0,0.0,0.0,0.0,0.0,0.0,0.0,0.0,0.0,0.0,0.0,2.7589,0.0,2.949,0.0,0.0,0.0,0.0,0.0,0.0,0.0,3.2093,0.0,0.0,0.0,3.7215,0.0,0.0,0.0,4.0663,4.1119,4.2574,4.5483,4.5111,4.5669,4.78,4.8967,4.9563,4.9563,4.9993,5.0202,5.0202,4.978,4.9563,4.9563,4.9212,4.9359,5.0033,5.077,5.1444,5.2112,5.2112,5.249,5.3146,5.2381,5.2536,5.3206,5.3206,5.3206,5.3206,5.3206,5.3206,5.3206,0.6271,0.4887,0.3823,0.3648,0.4149,0.4537,0.4288,0.4806,0.53,0.5483,0.4734,0.0,0.5739,0.6036,0.0,0.0,1.1377,1.275,1.3917,1.4629,1.5323,1.5974,1.4922,1.4541,1.501,1.4326,1.3965,1.3965,1.3545,1.3389,1.3496,1.3076,1.3769,1.5381,0.0,1.6514,1.7715,0.0,1.7211,1.69,1.7543,1.7521,1.7471,2.1064,2.2886,2.3551,2.3222,2.3135,2.3125,2.3335,2.3429,2.3696,2.4655,2.5746,2.6554,0.0,0.0,0.0,2.5281,0.0,0.0,0.0,0.0,0.0,0.0,0.0,0.0,0.0,0.0,0.0,0.0,0.0,0.0,0.0,0.0,3.3572,0.0,0.0,0.0,0.0,0.0,0.0,0.0,4.1068,4.1965,4.4857,4.4519,4.5179,4.7496,4.8959,4.9808,4.9959,5.0716,5.1086,5.1086,5.0352,5.0072,5.0297,4.9622,4.9722,5.0591,5.1138,5.1759,5.2381,5.2381,5.2725,5.3164,5.2599,5.2725,5.3206,5.3206,5.3206,5.3206,5.3206,5.3206,5.3206,0.8387,0.7677,0.7021,0.7111,0.6559,0.5942,0.5463,0.473,0.4535,0.5448,0.4167,0.3501,0.0,0.0,0.0,0.0,0.0,1.4056,1.4289,1.5596,1.7208,1.9102,1.6328,1.5557,1.7246,1.4814,1.3525,1.3525,1.3105,1.3105,1.3496,1.3076,1.3135,1.3682,1.5762,1.625,1.5733,1.9245,2.1206,2.1998,2.1955,2.2329,2.2705,0.0,2.2382,2.4628,2.3464,2.3135,2.324,2.3876,2.4198,2.4267,2.4959,2.6964,0.0,0.0,0.0,0.0,0.0,2.925,0.0,2.9978,0.0,0.0,0.0,0.0,3.2243,0.0,0.0,0.0,0.0,0.0,0.0,0.0,0.0,0.0,0.0,0.0,0.0,0.0,0.0,0.0,0.0,0.0,3.8768,0.0,4.1491,4.2185,4.6599,4.8169,4.9253,4.9959,5.0716,5.1086,5.1086,5.0352,5.0352,5.1034,5.0352,5.0699,5.2047,5.2065,5.2445,5.3164,5.3164,5.3164,5.3206,5.3164,5.3164,5.3206,5.3206,5.3206,5.3206,5.3206,5.3206,5.3206,0.8175,0.7807,0.7295,0.6712,0.6375,0.5998,0.547,0.4657,0.4238,0.4596,0.3069,0.2376,0.3584,0.3529,0.4398,0.682,0.9092,1.1265,1.312,1.4785,1.624,1.7337,1.651,1.6211,1.6504,1.5361,1.4492,1.3926,1.3779,1.3779,1.3916,1.3496,1.3672,1.4404,0.0,1.6924,0.0,0.0,0.0,0.0,0.0,2.1936,2.3823,0.0,2.352,2.3637,2.3222,2.3135,2.3329,2.4633,2.54,2.6057,2.7719,2.8859,2.9559,2.9547,3.043,3.1224,3.0811,3.2236,3.3507,3.1976,3.263,3.3354,0.0,0.0,0.0,0.0,0.0,0.0,0.0,0.0,0.0,0.0,0.0,0.0,0.0,0.0,0.0,0.0,0.0,0.0,0.0,0.0,0.0,0.0,0.0,0.0,4.7313,4.9238,5.0556,5.1358,5.2101,5.2481,5.2481,5.1759,5.1526,5.1741,5.1086,5.1223,5.2112,5.2112,5.249,5.3206,5.3206,5.3206,5.3206,5.3206,5.3206,5.3206,5.3206,5.3206,5.3206,5.3206,5.3206,5.3353,0.8119,0.7745,0.7231,0.6736,0.6535,0.6229,0.5561,0.4727,0.4327,0.4853,0.2847,0.187,0.318,0.2343,0.2654,0.4993,0.6959,0.914,1.1543,1.3424,1.5351,1.7342,1.7033,1.6873,1.7034,1.6442,1.5513,1.4391,1.4359,1.4365,1.4355,1.3779,1.3887,1.458,0.0,1.6807,1.8929,2.0502,2.1131,0.0,0.0,2.2746,0.0,0.0,2.4279,2.3523,2.3834,2.3944,2.4267,2.6422,2.733,2.7949,2.9809,3.0466,3.0721,3.1085,3.1808,3.2482,3.2359,3.4203,3.5679,3.3842,3.4445,3.4936,3.2736,0.0,3.3081,0.0,0.0,0.0,0.0,0.0,0.0,0.0,0.0,0.0,0.0,0.0,0.0,0.0,0.0,0.0,0.0,0.0,0.0,0.0,0.0,0.0,0.0,4.9381,5.0867,5.1661,5.2685,5.3206,5.3206,5.249,5.2224,5.249,5.1808,5.1808,5.249,5.249,5.2769,5.3206,5.3206,5.3206,5.3206,5.3206,5.3206,5.3206,5.3206,5.3206,5.3206,5.3206,5.339,5.383,0.8247,0.7496,0.6925,0.7326,0.7082,0.6523,0.5724,0.4989,0.4862,0.6043,0.3519,0.2075,0.3165,0.2393,0.1733,0.1818,0.4993,0.7853,0.9727,1.1623,1.4583,1.878,1.7689,1.7441,1.8567,1.7755,1.6515,1.4959,1.4852,1.4844,1.4834,1.3975,1.3779,1.4136,1.46,0.0,1.8184,2.0564,2.223,2.3299,2.4372,2.4787,2.4702,2.4893,2.464,2.4377,2.5251,2.5665,2.6184,2.8931,2.9809,3.0062,3.1121,3.1838,3.2252,3.2336,3.3514,3.4739,3.4553,3.53,3.5969,3.5644,3.5594,3.525,3.3903,3.416,3.4665,0.0,0.0,0.0,0.0,0.0,0.0,0.0,0.0,0.0,0.0,0.0,0.0,0.0,0.0,0.0,0.0,0.0,0.0,0.0,0.0,0.0,0.0,0.0,5.0127,5.0931,5.2393,5.3206,5.3206,5.249,5.2509,5.3206,5.249,5.249,5.3206,5.3206,5.3206,5.3206,5.3206,5.3206,5.3206,5.3206,5.3206,5.3206,5.3206,5.3225,5.3261,5.3225,5.372,5.4528,0.657,0.6219,0.5932,0.5956,0.5826,0.5723,0.5641,0.4845,0.4422,0.4719,0.2877,0.1697,0.2044,0.1103,0.0863,0.1695,0.4199,0.6376,0.7774,1.1144,1.3851,1.5544,1.6023,1.6505,1.7063,1.6113,1.5609,1.5477,1.4997,1.5055,1.5772,1.4863,1.4512,1.4629,0.0,1.6162,1.8586,2.0346,2.2384,2.4372,2.4702,2.4296,2.3754,2.5861,2.6086,2.524,2.5472,2.6389,2.7741,2.9726,3.0346,3.0687,3.2152,3.2742,3.3013,3.3804,3.4927,3.5998,3.6731,3.7665,3.8288,3.7187,3.6926,3.6582,3.528,3.5943,3.6754,3.638,0.0,0.0,0.0,0.0,0.0,0.0,0.0,0.0,0.0,0.0,0.0,0.0,0.0,0.0,0.0,0.0,0.0,0.0,0.0,0.0,0.0,0.0,0.0,5.1658,5.2682,5.3206,5.3206,5.2999,5.2999,5.3206,5.2999,5.2999,5.3206,5.3206,5.3206,5.3206,5.3206,5.3206,5.3206,5.3206,5.3206,5.3206,5.3206,5.3573,5.4014,5.3427,5.372,5.4528,0.5393,0.5199,0.0,0.5487,0.5552,0.5606,0.5759,0.4935,0.4388,0.4479,0.2829,0.1624,0.1704,0.0683,0.0262,0.094,0.3199,0.5208,0.6766,1.0309,1.3228,1.5183,1.6065,1.668,1.704,1.7133,1.6766,1.5986,1.5716,1.5779,1.6096,1.464,1.4162,1.4502,0.0,1.5625,1.7693,2.002,2.2408,2.4514,2.4703,2.5158,0.0,2.6845,2.7799,2.842,2.7989,2.8366,2.9479,3.116,3.17,3.1847,3.2796,3.3081,3.3313,3.4428,3.544,3.6448,3.751,3.8546,3.9245,3.8467,3.8287,3.8012,3.7127,3.752,3.8279,3.8679,3.9235,3.9693,3.9671,0.0,0.0,0.0,0.0,0.0,0.0,0.0,0.0,0.0,0.0,0.0,0.0,0.0,0.0,0.0,0.0,0.0,0.0,0.0,0.0,5.1408,5.1922,5.2491,5.3206,5.2858,5.2858,5.3206,5.3206,5.3206,5.3206,5.3206,5.3206,5.3206,5.3206,5.3206,5.3206,5.3206,5.3206,5.3243,5.3592,5.4014,5.4399,5.4289,5.4766,5.5519,0.4629,0.0,0.0,0.0,0.0,0.5881,0.6037,0.52,0.4538,0.4663,0.2892,0.1554,0.1548,0.0604,0.0089,0.026,0.2288,0.448,0.6496,0.9428,1.2533,1.572,1.6529,1.7175,1.7609,1.8879,1.8568,1.6545,1.6738,1.6533,1.6035,1.4044,1.3468,0.0,0.0,0.0,0.0,1.9883,2.2382,2.4324,2.4862,2.6579,2.8728,2.813,2.9701,3.1965,3.1186,3.0915,3.1172,3.2635,3.3081,3.3081,3.3081,3.3081,3.3313,3.4498,3.5507,3.6448,3.7663,3.8708,3.9424,3.9424,3.9484,3.9429,3.9144,3.9256,3.9882,4.1543,4.0829,4.085,4.3905,0.0,0.0,0.0,0.0,0.0,0.0,0.0,0.0,0.0,0.0,0.0,0.0,0.0,0.0,0.0,0.0,0.0,0.0,0.0,0.0,5.0747,5.0894,5.1628,5.3041,5.2454,5.2454,5.3059,5.317,5.3206,5.3206,5.3206,5.3206,5.3206,5.3206,5.3206,5.3206,5.3206,5.328,5.3445,5.4124,5.4528,5.4803,5.55,5.6271,5.695,0.4132,0.0,0.0,0.0,0.0,0.6044,0.6196,0.526,0.4178,0.3359,0.2312,0.1277,0.0419,0.0086,0.0433,0.1438,0.2753,0.4592,0.6861,0.962,1.192,1.3662,1.4777,1.5958,1.7243,1.7029,1.7318,1.7967,1.7036,1.6457,1.6105,1.4993,1.4363,0.0,0.0,0.0,1.8838,2.0518,0.0,2.4788,2.6286,2.7368,2.8271,3.0519,3.1345,3.1444,3.2377,3.266,3.2673,3.3043,3.3081,3.3081,3.3081,3.3081,3.3471,3.5346,3.6053,3.6604,3.862,3.9265,3.9424,3.9424,3.9828,4.0435,4.111,4.2223,4.3423,4.4532,4.4649,4.4373,4.3758,4.1373,0.0,0.0,0.0,0.0,0.0,0.0,0.0,0.0,0.0,0.0,0.0,0.0,0.0,0.0,0.0,0.0,0.0,0.0,0.0,0.0,5.1444,5.1922,0.0,5.2729,5.2729,5.2215,5.2894,5.3206,5.3206,5.3206,5.3206,5.3206,5.3206,5.3206,5.3206,5.3206,5.3592,5.4197,5.4344,5.5207,5.64,5.6547,5.7097,5.7685,0.0,0.0,0.0,0.0,0.0,0.594,0.5461,0.4513,0.3681,0.3197,0.1742,0.0596,0.0084,0.0,0.0528,0.1738,0.2887,0.4821,0.7748,1.0046,1.2163,1.4038,1.4969,1.6019,1.743,1.7827,1.8159,1.8503,1.7968,1.726,1.6387,1.4877,1.4269,1.4512,0.0,1.709,0.0,2.1275,2.3322,2.548,2.7387,2.8773,2.9881,3.1559,3.2201,3.2239,3.2884,3.3081,3.3081,3.3081,3.3081,3.3081,3.3081,3.3081,3.3471,3.5574,3.6198,3.6682,3.8855,3.9424,3.9499,3.9843,4.0492,4.1484,4.272,4.392,4.4982,4.5496,4.5673,4.501,4.2692,4.1085,3.9631,0.0,0.0,0.0,0.0,0.0,0.0,0.0,0.0,0.0,0.0,0.0,0.0,0.0,0.0,0.0,0.0,0.0,0.0,0.0,0.0,0.0,5.1977,0.0,5.2601,5.2637,5.3023,5.3206,5.3225,5.3628,5.383,5.3849,5.4252,5.4216,5.3794,5.339,5.3683,5.4436,5.4858,5.5757,5.6859,5.7281,5.7666,5.7941,0.0,0.4741,0.0,0.0,0.6183,0.5999,0.5069,0.402,0.3267,0.3055,0.126,0.0,0.0,0.0264,0.0897,0.2057,0.3479,0.5681,0.9005,1.0826,1.2836,1.4867,1.579,1.6756,1.8048,1.9314,1.9739,1.9361,1.9108,1.825,1.6908,1.4999,1.4571,1.5381,1.6504,1.8144,2.0192,2.206,2.4244,2.6599,2.841,3.0126,3.1625,3.219,3.2679,3.3081,3.3081,3.3156,3.3257,3.3257,3.3169,3.3081,3.3081,3.324,3.3784,3.5654,3.6369,3.693,3.8855,3.9424,3.9574,4.0232,4.1229,4.245,4.397,4.5163,4.6009,4.6119,4.5923,4.479,4.1762,4.1119,4.0595,0.0,0.0,0.0,0.0,0.0,0.0,0.0,0.0,0.0,0.0,0.0,0.0,0.0,0.0,0.0,0.0,0.0,0.0,0.0,0.0,5.0013,5.1463,0.0,5.2656,5.2968,5.3463,5.3628,5.3482,5.4289,5.4656,5.4693,5.5317,5.5225,5.4601,5.3977,5.4179,5.4968,5.5611,5.6345,5.7134,5.7776,5.7997,5.7997,0.0,0.0,0.0,0.58,0.6264,0.6498,0.647,0.4841,0.3178,0.19,0.0704,0.0,0.0,0.0984,0.2147,0.3303,0.5507,0.7789,1.0255,1.2109,1.367,1.4963,1.6614,1.8048,1.9314,2.0477,2.1332,2.1593,2.0362,1.9146,1.7861,1.649,1.6305,1.7168,1.7666,1.9606,2.2562,2.2766,2.5103,2.8692,2.9451,3.0699,3.2202,3.278,3.3031,3.3081,3.3081,3.3395,3.3822,3.3822,3.3483,3.3081,3.3081,3.3797,3.4746,3.5894,3.6852,3.7919,3.9104,3.9424,3.9574,4.0232,4.158,4.3169,4.474,4.6285,4.7471,4.7652,4.665,4.479,4.1762,4.2828,4.3031,3.9546,0.0,0.0,0.0,0.0,0.0,0.0,0.0,0.0,0.0,0.0,0.0,0.0,0.0,0.0,0.0,0.0,0.0,4.8286,0.0,4.8875,4.9811,5.2711,5.3482,5.2142,5.4326,5.4987,5.4308,5.5115,5.5482,5.5482,5.5556,5.5556,5.5464,5.5409,5.5849,5.6583,5.6657,5.7189,5.7905,5.796,5.7997,5.7997,0.6093,0.5857,0.5726,0.62,0.6471,0.641,0.587,0.5167,0.4273,0.3002,0.1159,0.0269,0.0986,0.214,0.3554,0.5507,0.7169,0.9091,1.1466,1.2649,1.3767,1.4963,1.6706,1.8234,1.9488,2.0666,2.1456,2.1885,2.082,1.9648,1.8369,1.7588,1.7695,1.8635,2.0214,2.1811,2.3419,2.5239,2.7174,2.8998,3.0223,3.1369,3.2277,3.2855,3.3282,3.3571,3.3571,3.3922,3.4399,3.4399,3.4022,3.3571,3.3571,3.4067,3.4897,3.5894,3.6944,3.7994,3.9104,3.9424,3.9574,4.0232,4.2027,4.3929,4.4973,4.6865,4.8241,4.7419,4.6058,4.4654,4.3453,4.3217,4.3166,4.3047,0.0,0.0,0.0,0.0,0.0,0.0,0.0,0.0,0.0,0.0,0.0,0.0,0.0,0.0,0.0,0.0,0.0,4.6067,0.0,4.9976,5.0306,5.3023,5.4308,5.4161,5.5133,5.5427,5.5133,5.5941,5.6583,5.7005,5.6528,5.6326,5.6271,5.5794,5.6069,5.6804,5.6804,5.7299,5.7997,5.7997,5.7997,5.7997,0.6338,0.6058,0.589,0.6025,0.6163,0.596,0.5308,0.5305,0.509,0.4283,0.259,0.1877,0.2765,0.3907,0.5398,0.7432,0.9,1.057,1.2151,1.3188,1.4308,1.5479,1.7234,1.8772,2.0034,2.1212,2.1752,2.1721,2.1215,2.0324,1.9031,1.886,1.9426,2.0587,2.2355,2.3731,2.4985,2.7358,2.8874,2.9743,3.1058,3.2064,3.2754,3.3156,3.3658,3.4135,3.4135,3.45,3.4964,3.5378,3.52,3.4844,3.4678,3.5339,3.6374,3.7069,3.8039,3.8984,3.9519,3.9709,3.9873,4.0531,4.245,4.4452,4.5298,4.7292,4.8646,4.7378,4.6109,4.5229,4.5229,4.435,4.3995,4.5179,4.5483,0.0,0.0,0.0,0.0,0.0,0.0,0.0,0.0,0.0,0.0,0.0,0.0,0.0,0.0,0.0,0.0,0.0,0.0,0.0,5.1151,5.3775,5.5262,5.5592,5.6069,5.618,5.5978,5.6785,5.7464,5.796,5.7409,5.7152,5.7116,5.6528,5.6638,5.7152,5.7152,5.7501,5.7997,5.7997,5.7997,5.7997,0.6338,0.5419,0.4728,0.4921,0.5029,0.5224,0.5338,0.5359,0.5359,0.5359,0.5336,0.523,0.523,0.6292,0.7523,0.8649,1.0919,1.2242,1.2328,1.3995,1.5479,1.6763,1.8473,2.0034,2.1293,2.2492,2.2492,2.1275,2.1655,2.1237,1.9982,2.0353,2.1597,2.3461,2.3482,2.519,2.8108,2.8643,2.9849,3.1424,3.1976,3.288,3.3884,3.3884,3.4223,3.4713,3.4713,3.5064,3.5701,3.6907,3.7223,3.7131,3.6651,3.7951,3.9765,3.9765,4.0529,4.1205,4.0561,4.0382,4.0546,4.1205,4.2807,4.4513,4.5907,4.7655,4.8798,4.8054,4.7293,4.6752,4.6752,4.6752,4.6261,4.4823,4.6447,4.7361,0.0,4.6165,0.0,0.0,3.9564,3.7749,3.7902,0.0,0.0,0.0,0.0,0.0,0.0,0.0,0.0,4.8102,4.9132,0.0,5.1958,5.517,5.6381,5.5611,5.7207,5.7556,5.6822,5.7611,5.7997,5.7997,5.7997,5.7997,5.7978,5.796,5.7978,5.7997,5.7997,5.7997,5.7997,5.7997,5.7997,5.7997,0.6386,0.6199,0.6093,0.6232,0.6365,0.6464,0.6511,0.7217,0.783,0.783,0.9078,1.0328,1.1113,1.0825,1.1086,1.2251,1.4386,1.5418,1.4685,1.554,1.6338,1.6763,1.8563,1.967,2.0034,2.1302,2.1302,2.0034,2.0431,2.0829,2.1339,2.2181,2.3234,2.443,2.5968,2.7393,2.8712,2.967,3.0785,3.2001,3.2566,3.3244,3.3935,3.4324,3.4801,3.529,3.529,3.6144,3.7313,3.7753,3.8871,4.0224,4.0027,3.9904,3.9794,3.9794,4.0543,4.1324,4.113,4.107,4.125,4.2142,4.3631,4.5182,4.6256,4.7411,4.8189,4.797,4.731,4.6786,4.6786,4.6786,4.6802,4.6853,4.7445,4.7581,4.6583,0.0,4.5218,4.3267,4.2071,4.1242,4.081,3.9023,0.0,0.0,0.0,0.0,0.0,0.0,0.0,0.0,4.9627,0.0,5.2821,5.4913,5.64,5.7244,5.7758,5.7868,5.7629,5.7886,5.7997,5.7997,5.7997,5.7997,5.7997,5.7997,5.7997,5.7997,5.7997,5.7997,5.7997,5.7997,5.7997,5.7997,0.6444,0.6263,0.6071,0.6205,0.6682,0.7122,0.7122,0.8528,0.9579,0.9579,1.1508,1.3193,1.3891,1.4483,1.4882,1.5231,1.6495,1.7009,1.6355,1.6908,1.7541,1.8054,1.9457,2.0395,2.0863,2.1578,2.1391,2.0215,2.036,2.1343,2.2996,2.3701,2.4727,2.6119,2.7708,2.8814,2.9594,3.0698,3.1599,3.2265,3.2842,3.3533,3.4248,3.4587,3.519,3.5843,3.6281,3.7195,3.8198,3.9156,4.0376,4.167,4.2111,4.1734,4.109,4.109,4.1607,4.2058,4.1818,4.1758,4.2032,4.2906,4.4189,4.5608,4.7123,4.7905,4.8325,4.8325,4.7953,4.7631,4.7631,4.7631,4.7784,4.8257,4.8325,4.8071,4.7327,4.6583,4.5348,0.0,0.0,4.2894,0.0,4.129,4.1075,0.0,0.0,0.0,0.0,0.0,0.0,4.8122,5.0949,5.2986,5.4087,5.539,5.6712,5.7997,5.7997,5.7997,5.7997,5.7997,5.7997,5.7997,5.7997,5.7997,5.7997,5.7997,5.7997,5.7997,5.7997,5.7997,5.7997,5.7997,5.8097,5.8282,0.6617,0.5864,0.5239,0.5432,0.6486,0.7351,0.7351,0.9369,1.0864,1.0864,1.288,1.4309,1.4309,1.7203,1.8718,1.7585,1.7496,1.7496,1.7415,1.8095,1.9008,2.0111,2.0878,2.1854,2.3008,2.2969,2.2403,2.1293,2.1409,2.2639,2.484,2.4999,2.6152,2.8167,2.87,2.9545,3.0733,3.1738,3.2202,3.2328,3.2905,3.3771,3.4726,3.4763,3.5521,3.6628,3.7769,3.8198,3.8725,4.0887,4.167,4.1932,4.2981,4.3329,4.3329,4.3329,4.3329,4.321,4.2596,4.2494,4.2787,4.3747,4.4725,4.6056,4.8425,4.9001,4.9001,4.9001,4.9001,4.9001,4.9001,4.9001,4.9001,4.9001,4.8968,4.868,4.7953,4.7192,4.5652,4.2794,4.3115,4.3014,4.1576,4.2653,4.3383,0.0,0.0,0.0,0.0,0.0,4.7241,5.1848,5.2784,5.3977,5.5574,5.6345,5.7152,5.7997,5.7997,5.7997,5.7997,5.7997,5.7997,5.7997,5.7997,5.7997,5.7997,5.7997,5.7997,5.7997,5.7997,5.7997,5.7997,5.8024,5.8307,5.8694,0.7736,0.7828,0.8082,0.9108,0.9525,0.9812,0.9812,1.169,1.3224,1.3224,1.5875,1.7794,1.7794,1.9256,2.0079,1.9835,1.9835,1.9432,1.863,1.9265,1.9773,2.0205,2.0878,2.1635,2.2244,2.1922,2.1569,2.1293,2.2542,2.3939,2.5485,2.7166,2.8175,2.876,2.9334,3.0181,3.1223,3.1474,3.2089,3.2918,3.3483,3.411,3.4763,3.519,3.6284,3.7769,3.803,3.9244,4.0887,4.142,4.2193,4.29,4.325,4.3329,4.3329,4.3329,4.3329,4.3299,4.315,4.3622,4.4489,4.5381,4.6843,4.8295,4.8889,4.9001,4.9001,4.9001,4.9001,4.9001,4.9001,4.9001,4.9001,4.9001,4.8545,4.7919,4.7158,4.643,4.5483,4.4198,4.4705,4.4807,4.3859,4.4952,4.5423,0.0,0.0,4.7772,4.8791,4.9184,5.0178,5.194,5.2784,5.3977,5.5574,5.5776,5.6602,5.7997,5.7997,5.7997,5.7997,5.7997,5.7997,5.7997,5.7997,5.7997,5.7997,5.7997,5.7997,5.7997,5.7997,5.7997,5.8024,5.8418,5.8591,5.8775,0.9051,0.9364,0.9672,1.0484,1.1455,1.2128,1.2128,1.4058,1.5486,1.5486,1.7552,1.9036,1.9036,1.9923,2.0644,2.0859,2.0869,2.0622,2.0057,2.0735,2.1184,2.1269,2.1792,2.2326,2.2847,2.2531,2.2843,2.3633,2.4466,2.583,2.7525,2.8724,2.9701,3.0428,3.0767,3.1373,3.2177,3.2428,3.2742,3.3156,3.3947,3.4462,3.4776,3.5929,3.7092,3.8198,3.9332,4.0547,4.167,4.2193,4.2805,4.3329,4.3329,4.3329,4.3329,4.3329,4.3329,4.3409,4.3849,4.4358,4.5153,4.647,4.7933,4.9001,4.9001,4.9001,4.9001,4.9001,4.9001,4.9001,4.9001,4.9001,4.9001,4.9001,4.8663,4.8037,4.6938,4.6447,4.5923,4.5179,4.5754,4.6177,4.6109,4.6743,4.679,4.5996,4.755,4.8757,4.9242,5.0957,5.2105,5.2527,5.2986,5.3812,5.5042,5.5776,5.6767,5.7997,5.7997,5.7997,5.7997,5.7997,5.7997,5.7997,5.7997,5.7997,5.7997,5.7997,5.7997,5.7997,5.7997,5.8142,5.8351,5.8591,5.8971,5.9373,1.0605,1.0955,1.1047,1.1503,1.3218,1.4483,1.4483,1.6242,1.7585,1.7585,1.855,1.9283,1.9283,2.0136,2.082,2.1201,2.1348,2.1426,2.1426,2.2227,2.2676,2.2617,2.3076,2.3506,2.3877,2.4126,2.4916,2.6262,2.6772,2.7953,2.9893,3.0061,3.0942,3.234,3.2252,3.2579,3.3232,3.3709,3.3671,3.3407,3.4349,3.4853,3.5225,3.6724,3.7861,3.889,4.0887,4.1684,4.2029,4.2981,4.3329,4.3329,4.3329,4.3329,4.3329,4.3329,4.3409,4.3693,4.4586,4.502,4.5649,4.7389,4.8433,4.9001,4.9001,4.9001,4.9001,4.9001,4.9001,4.9001,4.9001,4.9001,4.8934,4.8714,4.8663,4.8156,4.6667,4.6549,4.6397,4.5771,4.6447,4.7208,4.7851,4.802,4.7861,4.7318,4.908,4.993,4.9421,5.1782,5.328,5.339,5.339,5.383,5.4748,5.6363,5.7519,5.818,5.8309,5.8364,5.8364,5.8364,5.8364,5.8364,5.8235,5.818,5.8162,5.8052,5.7997,5.7997,5.7997,5.8282,5.8694,5.8756,5.9354,6.0103,1.2782,1.3322,1.4005,1.5898,1.6577,1.6756,1.6756,1.79,1.8718,1.8718,1.9678,2.0323,2.0323,2.0819,2.1152,2.123,2.1894,2.2314,2.2314,2.3115,2.3437,2.3076,2.3799,2.4248,2.4316,2.5666,2.6417,2.6262,2.8706,3.0158,3.0515,3.1392,3.2209,3.2918,3.2428,3.2792,3.3771,3.3859,3.4123,3.4487,3.465,3.5584,3.6967,3.721,3.8901,4.107,4.1504,4.2208,4.3076,4.325,4.3329,4.3329,4.3329,4.3329,4.3329,4.3329,4.3927,4.4586,4.4737,4.5992,4.7456,4.8513,4.8861,4.9001,4.9001,4.9001,4.9001,4.9001,4.9001,4.9001,4.9001,4.9001,4.8595,4.7327,4.7141,4.6616,4.5128,4.5466,4.5838,4.572,4.6921,4.7784,4.7902,4.8477,4.9052,4.9493,5.038,5.1111,5.1592,5.2641,5.3518,5.4197,5.4216,5.4932,5.6418,5.8033,5.8896,5.9043,5.9703,6.0034,6.0034,6.0034,6.0034,5.9997,5.9318,5.9024,5.8969,5.829,5.7997,5.7997,5.7997,5.8282,5.8735,5.9158,5.9644,6.0161,1.5183,1.5718,1.6078,1.7082,1.7827,1.823,1.823,1.9116,1.9844,1.9844,2.0447,2.0928,2.0928,2.1318,2.1768,2.2227,2.2832,2.3398,2.3857,2.3828,2.3809,2.3838,2.4209,2.4789,2.5757,2.6755,2.7785,2.898,3.0296,3.124,3.197,3.271,3.342,3.3947,3.3684,3.3859,3.4349,3.4349,3.4148,3.3972,3.5059,3.6051,3.7076,3.8481,4.0097,4.167,4.229,4.282,4.3329,4.3329,4.3329,4.3329,4.3329,4.3329,4.3329,4.3329,4.4343,4.5634,4.6205,4.7323,4.8433,4.8861,4.9001,4.9001,4.9001,4.9001,4.9001,4.9001,4.9001,4.9001,4.9001,4.9001,4.8663,4.7581,4.7394,4.6887,4.5399,4.5821,4.6295,4.6295,4.7259,4.8071,4.846,4.8798,4.9256,4.9976,5.0662,5.1393,5.2047,5.3233,5.4014,5.4399,5.4821,5.5611,5.6804,5.7978,5.8786,5.9226,6.0034,6.0401,6.0401,6.0401,6.0401,6.0382,6.0015,5.9869,5.9832,5.9446,5.9043,5.8657,5.8657,5.8807,5.9121,5.9319,5.9855,6.0508,1.7218,1.7658,1.7738,1.798,1.8789,1.9362,1.9362,2.0079,2.0566,2.0566,2.0957,2.123,2.123,2.1709,2.2295,2.2939,2.3486,2.4111,2.4863,2.4394,2.4228,2.4551,2.4838,2.5675,2.7043,2.795,2.9315,3.1223,3.15,3.2152,3.3081,3.3646,3.4198,3.4726,3.4851,3.4977,3.5102,3.5102,3.4613,3.3998,3.5934,3.6963,3.7523,3.9926,4.1348,4.2111,4.2981,4.3329,4.3329,4.3329,4.3329,4.3329,4.3329,4.3329,4.3329,4.3551,4.5048,4.6747,4.7655,4.8433,4.9001,4.9001,4.9001,4.9001,4.9001,4.9001,4.9001,4.9001,4.9001,4.9001,4.9001,4.9001,4.8663,4.7581,4.7547,4.7073,4.5415,4.6109,4.6786,4.6786,4.7614,4.8392,4.8951,4.9001,4.928,4.9963,5.0889,5.1699,5.2395,5.3836,5.4766,5.495,5.5556,5.6271,5.7079,5.807,5.8877,5.9501,6.0493,6.097,6.097,6.097,6.097,6.0951,6.0768,6.0676,6.0658,6.0493,5.9942,5.9208,5.9311,5.9398,5.9389,5.9526,6.0103,6.08,1.8621,1.8877,1.9195,2.0157,2.0411,2.0479,2.0479,2.0566,2.0566,2.0566,2.0957,2.123,2.123,2.1973,2.249,2.2549,2.331,2.3984,2.4434,2.4785,2.499,2.5019,2.6104,2.6961,2.7526,2.975,3.1033,3.1223,3.2426,3.2982,3.3081,3.3646,3.4198,3.4751,3.5253,3.5768,3.6232,3.6232,3.6194,3.6307,3.7521,3.8604,3.9761,4.1083,4.2246,4.317,4.325,4.3329,4.3329,4.3329,4.3329,4.3329,4.3329,4.3329,4.3472,4.445,4.5992,4.7721,4.8639,4.894,4.9001,4.9001,4.9001,4.9001,4.9001,4.9001,4.9001,4.9001,4.9001,4.9001,4.9001,4.9001,4.8308,4.621,4.6447,4.6109,4.3893,4.5432,4.6786,4.6786,4.8054,4.8951,4.9001,4.9001,4.9272,5.0074,5.1416,5.2538,5.3246,5.4694,5.5849,5.6602,5.6693,5.7097,5.7905,5.9446,6.0254,6.0346,6.1887,6.264,6.264,6.264,6.264,6.2585,6.1832,6.1502,6.1447,6.0713,5.9942,5.9255,5.9684,5.9663,5.9458,5.9885,6.0384,6.08,1.9324,1.982,2.0079,2.0566,2.0566,2.0566,2.0566,2.0566,2.0664,2.0947,2.1367,2.1738,2.2002,2.2549,2.3008,2.3281,2.3603,2.4435,2.586,2.6156,2.6382,2.6668,2.7772,2.8851,2.9852,3.0765,3.1589,3.2426,3.2884,3.3081,3.3093,3.3985,3.4525,3.4763,3.5655,3.5981,3.5855,3.6623,3.678,3.6622,3.8399,3.9648,4.0599,4.1704,4.2639,4.3329,4.3329,4.3329,4.3329,4.3329,4.3329,4.3329,4.3329,4.3329,4.3615,4.5196,4.6609,4.7803,4.8719,4.9001,4.9001,4.9001,4.9001,4.9001,4.9001,4.9001,4.9001,4.9001,4.9001,4.9001,4.9001,4.9001,4.8578,4.7293,4.731,4.7022,4.5703,4.665,4.7479,4.7479,4.8392,4.9001,4.9001,4.9407,5.0178,5.1372,5.2426,5.3476,5.4689,5.5789,5.6712,5.7519,5.7538,5.7685,5.7997,5.9098,5.9924,6.0419,6.1539,6.2328,6.2805,6.2805,6.2805,6.2787,6.2493,6.2346,6.2328,6.2016,6.141,6.0639,6.0324,6.0185,6.0106,5.9801,6.0161,6.08,1.9674,2.0156,2.041,2.0537,2.0566,2.0566,2.0566,2.0684,2.0889,2.1191,2.1728,2.2197,2.248,2.2891,2.3262,2.3555,2.4177,2.5198,2.6624,2.7651,2.8239,2.8215,2.9315,3.0316,3.1211,3.1589,3.2239,3.3081,3.3081,3.3169,3.3357,3.4286,3.4813,3.5014,3.5956,3.6319,3.6402,3.7181,3.7555,3.7704,3.9626,4.0646,4.1198,4.2233,4.294,4.3329,4.3329,4.3329,4.3329,4.3329,4.3329,4.3329,4.3329,4.3678,4.4464,4.5818,4.7088,4.8161,4.8798,4.9001,4.9001,4.9001,4.9001,4.9001,4.9001,4.9001,4.9001,4.9001,4.9001,4.9001,4.9001,4.9001,4.8765,4.8037,4.7919,4.7648,4.6904,4.7445,4.7919,4.7919,4.8765,4.9357,4.9357,5.0016,5.1097,5.2541,5.3366,5.4522,5.6263,5.6877,5.7428,5.7978,5.7997,5.7997,5.7997,5.8804,5.9501,6.0052,6.108,6.1887,6.2438,6.2695,6.2805,6.2805,6.2805,6.2805,6.2805,6.2805,6.2328,6.1587,6.1338,6.0979,6.0578,6.0316,6.0465,6.08,1.9824,1.9912,2.0049,2.0488,2.0566,2.0566,2.0566,2.0947,2.123,2.125,2.1982,2.251,2.2519,2.2891,2.3135,2.3135,2.503,2.6341,2.6351,2.9384,3.0676,2.9498,3.0586,3.1223,3.1223,3.2426,3.3081,3.3081,3.3081,3.337,3.3922,3.4474,3.5014,3.5567,3.6119,3.707,3.8107,3.8107,3.8827,3.9986,4.1169,4.1587,4.1767,4.29,4.3329,4.3329,4.3329,4.3329,4.3329,4.3329,4.3329,4.3329,4.3329,4.4615,4.6173,4.6173,4.7523,4.9001,4.9001,4.9001,4.9001,4.9001,4.9001,4.9001,4.9001,4.9001,4.9001,4.9001,4.9001,4.9001,4.9001,4.9001,4.8765,4.8054,4.7936,4.7682,4.6921,4.7462,4.7953,4.7953,4.9221,5.0101,5.0101,5.0777,5.1872,5.3368,5.4178,5.5613,5.7895,5.7997,5.7997,5.7997,5.7997,5.7997,5.7997,5.8804,5.9208,5.9245,6.0823,6.1575,6.163,6.2438,6.2805,6.2805,6.2805,6.2805,6.2805,6.2805,6.2328,6.1721,6.2701,6.2088,6.0724,6.174,6.155,6.0819,1.9385,1.9707,2.0049,2.0488,2.0566,2.0674,2.0986,2.1152,2.1445,2.2051,2.2353,2.2627,2.292,2.372,2.4296,2.4296,2.5647,2.7115,2.8671,3.1098,3.2339,3.1965,3.2339,3.2513,3.2513,3.2896,3.3269,3.3658,3.3658,3.3935,3.4487,3.5039,3.5391,3.5567,3.6985,3.7756,3.8198,3.9844,4.0732,4.1169,4.229,4.2805,4.282,4.3155,4.3329,4.3329,4.3329,4.3329,4.3329,4.3329,4.3329,4.3409,4.4143,4.5211,4.6314,4.702,4.808,4.9001,4.9001,4.9001,4.9001,4.9001,4.9001,4.9001,4.9001,4.9001,4.9001,4.9001,4.9001,4.9001,4.9001,4.9001,4.8934,4.8714,4.912,4.9357,4.9137,4.9763,5.0236,5.0236,5.0608,5.0879,5.0879,5.2062,5.3221,5.42,5.5967,5.7273,5.7978,5.7997,5.7997,5.7997,5.7997,5.7997,5.7997,5.8235,5.8657,5.9226,5.9703,6.0511,6.1594,6.1851,6.2273,6.2805,6.2805,6.2805,6.2805,6.2805,6.2677,6.2432,6.217,6.2174,6.2313,6.206,6.2223,6.2551,1.917,1.9492,1.9853,2.0459,2.0713,2.0918,2.1191,2.1523,2.1924,2.2441,2.2656,2.2852,2.3105,2.4125,2.4787,2.4787,2.6652,2.8667,3.0627,3.2214,3.3081,3.3081,3.3081,3.3081,3.3081,3.3294,3.3571,3.3897,3.4123,3.4512,3.5052,3.5391,3.5667,3.5881,3.7443,3.8379,3.8903,4.0817,4.185,4.229,4.2996,4.3329,4.3329,4.3329,4.3329,4.3329,4.3329,4.3329,4.3329,4.3329,4.3551,4.4004,4.4586,4.5706,4.6884,4.744,4.8289,4.9001,4.9001,4.9001,4.9001,4.9001,4.9001,4.9001,4.9001,4.9001,4.9001,4.9001,4.9001,4.9001,4.9001,4.9001,4.9001,4.9001,4.961,5.0084,5.0084,5.0727,5.1217,5.1217,5.1471,5.1657,5.1657,5.3004,5.436,5.5419,5.7042,5.7997,5.7997,5.7997,5.7997,5.7997,5.7997,5.7997,5.7997,5.7997,5.8235,5.8731,5.9061,5.9887,6.1135,6.1447,6.2034,6.2805,6.2805,6.2805,6.2805,6.3014,6.3139,6.3131,6.3035,6.3161,6.3334,6.3079,6.3102,6.3301,1.9062,1.9258,1.9561,2.042,2.0937,2.126,2.1338,2.2012,2.2519,2.2568,2.2987,2.3212,2.3212,2.4382,2.5115,2.5115,2.8035,3.0591,3.2093,3.2754,3.3081,3.3081,3.3131,3.3156,3.3156,3.3646,3.3947,3.4048,3.455,3.5077,3.5617,3.5617,3.5974,3.6628,3.7769,3.8917,4.0159,4.1253,4.2371,4.3329,4.3329,4.3329,4.3329,4.3329,4.3329,4.3329,4.3329,4.3329,4.3329,4.3409,4.4066,4.4812,4.502,4.6205,4.7589,4.7721,4.8306,4.9001,4.9001,4.9001,4.9001,4.9001,4.9001,4.9001,4.9001,4.9001,4.9001,4.9001,4.8951,4.8934,4.8984,4.8951,4.8934,4.8984,4.9661,5.0185,5.0185,5.0913,5.142,5.142,5.2012,5.2418,5.2418,5.3771,5.5338,5.6894,5.7613,5.7997,5.7997,5.7997,5.7997,5.7997,5.7997,5.7997,5.7997,5.7997,5.7997,5.7997,5.8749,5.952,6.0327,6.1135,6.1924,6.2713,6.2787,6.2805,6.2886,6.3408,6.3612,6.3766,6.4696,6.4572,6.3967,6.4473,6.418,6.3531,1.8672,1.9053,1.9561,2.042,2.0937,2.1465,2.2129,2.2393,2.2627,2.2959,2.3816,2.4457,2.4457,2.6191,2.7348,2.7348,2.9646,3.1365,3.2177,3.2754,3.3081,3.3081,3.3483,3.3721,3.3721,3.3847,3.4324,3.519,3.5303,3.5655,3.6182,3.6182,3.6769,3.7756,3.9006,4.0145,4.1337,4.2467,4.3076,4.3329,4.3329,4.3329,4.3329,4.3329,4.3329,4.3329,4.3329,4.3329,4.3409,4.422,4.4586,4.5095,4.6555,4.7239,4.7721,4.8497,4.8861,4.9001,4.9001,4.9001,4.9001,4.9001,4.9001,4.9001,4.9001,4.9001,4.9001,4.9001,4.8545,4.8325,4.89,4.8545,4.8342,4.8917,5.0118,5.098,5.098,5.2147,5.301,5.301,5.3145,5.3247,5.3247,5.4608,5.6114,5.766,5.7886,5.7997,5.7997,5.7997,5.7997,5.7997,5.7997,5.7997,5.7997,5.7997,5.7997,5.7997,5.818,5.8694,5.9501,6.0291,6.1098,6.1906,6.2548,6.3062,6.3453,6.3524,6.385,6.4236,6.4463,6.467,6.4813,6.4944,6.5139,6.5243,1.8615,1.9332,2.0056,2.0487,2.1113,2.1758,2.2412,2.3083,2.371,2.3846,2.4882,2.563,2.563,2.7105,2.8347,2.8858,3.0425,3.1512,3.18,3.2604,3.3081,3.3081,3.3608,3.4022,3.4286,3.455,3.4964,3.5542,3.5805,3.6337,3.7243,3.7243,3.7861,3.9006,4.0218,4.1085,4.167,4.2805,4.3329,4.3329,4.3329,4.3329,4.3329,4.3329,4.3329,4.3329,4.3329,4.363,4.4066,4.4586,4.5374,4.6346,4.7306,4.7933,4.837,4.8861,4.9001,4.9001,4.9001,4.9001,4.9001,4.9001,4.9001,4.9001,4.9001,4.9001,4.9001,4.9001,4.8697,4.8545,4.8934,4.8697,4.868,4.9407,5.0473,5.1336,5.1691,5.2756,5.3501,5.3501,5.3832,5.4345,5.5034,5.5816,5.6755,5.7932,5.7997,5.7997,5.7997,5.7997,5.7997,5.7997,5.7997,5.7997,5.7997,5.7997,5.7997,5.7997,5.7997,5.8419,5.9226,5.9648,6.0646,6.2013,6.2457,6.3126,6.3997,6.4198,6.4462,6.475,6.5022,6.528,6.5494,6.5494,6.5663,6.582,1.8884,1.9808,2.0638,2.0663,2.1499,2.2363,2.2784,2.4145,2.5126,2.5126,2.6047,2.6801,2.6801,2.7775,2.884,2.9965,3.0796,3.1373,3.1662,3.2466,3.3018,3.3206,3.3746,3.4299,3.4851,3.5403,3.568,3.568,3.6307,3.715,3.8107,3.8289,3.9094,4.0232,4.1169,4.1684,4.1932,4.29,4.3329,4.3329,4.3329,4.3329,4.3329,4.3329,4.3329,4.3329,4.3329,4.3927,4.4812,4.502,4.6189,4.7655,4.7803,4.837,4.9001,4.9001,4.9001,4.9001,4.9001,4.9001,4.9001,4.9001,4.9001,4.9001,4.9001,4.9001,4.9001,4.9001,4.8798,4.8697,4.8951,4.8798,4.8951,4.9932,5.0727,5.1471,5.2198,5.2993,5.3568,5.3668,5.4328,5.5391,5.6971,5.7111,5.7488,5.8335,5.84,5.8345,5.8217,5.8217,5.8143,5.7997,5.7997,5.7997,5.7997,5.7997,5.7997,5.7997,5.7997,5.8345,5.9006,5.93,6.0416,6.2239,6.2476,6.3319,6.4554,6.4952,6.5161,6.5291,6.5736,6.5897,6.5897,6.5897,6.5897,6.5897,1.9818,2.0219,2.0741,2.1076,2.2311,2.3554,2.4409,2.5503,2.6307,2.6307,2.7197,2.7844,2.7844,2.8858,2.9999,3.1097,3.0896,3.1323,3.2754,3.2528,3.2767,3.3746,3.4324,3.4864,3.5416,3.5968,3.6257,3.6257,3.7376,3.7939,3.8107,3.9183,4.0232,4.1337,4.1504,4.2111,4.3076,4.325,4.3329,4.3329,4.3329,4.3329,4.3329,4.3329,4.3329,4.3329,4.3329,4.3927,4.4946,4.5762,4.6747,4.7737,4.8576,4.8877,4.9001,4.9001,4.9001,4.9001,4.9001,4.9001,4.9001,4.9001,4.9001,4.9001,4.9001,4.9001,4.9001,4.9001,4.7986,4.7479,4.8765,4.7953,4.775,4.9763,5.0727,5.1471,5.2198,5.2993,5.3717,5.4374,5.5102,5.6159,5.778,5.7923,5.854,5.9968,6.0089,5.9777,5.9079,5.9061,5.8731,5.8015,5.7997,5.7997,5.7997,5.7997,5.7997,5.7997,5.7997,5.8052,5.8217,5.9612,6.0619,6.1456,6.283,6.4026,6.5016,6.508,6.5369,6.5808,6.5853,6.5897,6.5897,6.5897,6.5897,6.5897,1.9928,2.1182,2.223,2.2148,2.3578,2.5,2.5605,2.6707,2.736,2.736,2.8359,2.9028,2.9028,2.9534,3.0105,3.0896,3.1009,3.1486,3.2528,3.2943,3.337,3.3872,3.4726,3.5303,3.5449,3.6081,3.6709,3.7322,3.7848,3.8814,4.0104,4.0561,4.1435,4.2548,4.2548,4.282,4.3329,4.3329,4.3329,4.3329,4.3329,4.3329,4.3329,4.3329,4.3329,4.3409,4.3927,4.4781,4.5706,4.6678,4.7589,4.8433,4.8861,4.9001,4.9001,4.9001,4.9001,4.9001,4.9001,4.9001,4.9001,4.9001,4.8697,4.8392,4.8392,4.8071,4.7885,4.8308,4.7547,4.6989,4.7648,4.7902,4.8477,4.9864,5.1065,5.2097,5.2858,5.3281,5.3946,5.5102,5.591,5.6794,5.7941,5.8445,5.8829,5.9061,5.9483,5.9391,5.8584,5.8529,5.8364,5.7997,5.7997,5.7997,5.7997,5.7997,5.7997,5.7997,5.8282,5.8375,5.8412,5.9134,6.0382,6.2024,6.2726,6.3978,6.5542,6.5542,6.569,6.5897,6.5897,6.5897,6.5897,6.5897,6.5897,6.5897]},{"header":{"parameterUnit":"m.s-1","parameterCategory":1,"la1":30.6,"la2":28.766,"lo1":-90.7593,"lo2":-88.6598,"dx":0.0162,"dy":0.0183,"nx":116,"ny":114,"refTime":"2022-12-04T06:00:00:Z","depth":0,"parameterNumber":3,"parameterNumberName":"V-component_of_WINDS"},"data":[0.0,0.0,0.0,0.0,0.0,0.0,0.0,0.0,0.0,0.0,0.0,0.0,0.0,0.0,0.0,0.0,0.0,0.0,0.0,0.0,0.0,0.0,0.0,0.0,0.0,0.0,0.0,0.0,0.0,0.0,0.0,0.0,0.0,0.0,0.0,0.0,0.0,0.0,0.0,0.0,0.0,0.0,0.0,0.0,0.0,0.0,0.0,0.0,0.0,0.0,0.0,0.0,0.0,0.0,0.0,0.0,0.0,0.0,0.0,0.0,0.0,0.0,0.0,0.0,0.0,0.0,0.0,0.0,0.0,0.0,0.0,0.0,0.0,0.0,0.0,0.0,0.0,0.0,0.0,0.0,0.0,0.0,0.0,0.0,0.0,0.0,0.0,0.0,0.0,0.0,0.0,0.0,0.0,0.0,0.0,0.0,0.0,0.0,0.0,0.0,0.0,0.0,0.0,0.0,0.0,0.0,0.0,0.0,0.0,0.0,0.0,0.0,0.0,0.0,0.0,0.0,0.0,0.0,0.0,0.0,0.0,0.0,0.0,0.0,0.0,0.0,0.0,0.0,0.0,0.0,0.0,0.0,0.0,0.0,0.0,0.0,0.0,0.0,0.0,0.0,0.0,0.0,0.0,0.0,0.0,0.0,0.0,0.0,0.0,0.0,0.0,0.0,0.0,0.0,0.0,0.0,0.0,0.0,0.0,0.0,0.0,0.0,0.0,0.0,0.0,0.0,0.0,0.0,0.0,0.0,0.0,0.0,0.0,0.0,0.0,0.0,0.0,0.0,0.0,0.0,0.0,0.0,0.0,0.0,0.0,0.0,0.0,0.0,0.0,0.0,0.0,0.0,0.0,0.0,0.0,0.0,0.0,0.0,0.0,0.0,0.0,0.0,0.0,0.0,0.0,0.0,0.0,0.0,0.0,0.0,0.0,0.0,0.0,0.0,0.0,0.0,0.0,0.0,0.0,0.0,0.0,0.0,0.0,0.0,0.0,0.0,0.0,0.0,0.0,0.0,0.0,0.0,0.0,0.0,0.0,0.0,0.0,0.0,0.0,0.0,0.0,0.0,0.0,0.0,0.0,0.0,0.0,0.0,0.0,0.0,0.0,0.0,0.0,0.0,0.0,0.0,0.0,0.0,0.0,0.0,0.0,0.0,0.0,0.0,0.0,0.0,0.0,0.0,0.0,0.0,0.0,0.0,0.0,0.0,0.0,0.0,0.0,0.0,0.0,0.0,0.0,0.0,0.0,0.0,0.0,0.0,0.0,0.0,0.0,0.0,0.0,0.0,0.0,0.0,0.0,0.0,0.0,0.0,0.0,0.0,0.0,0.0,0.0,0.0,0.0,0.0,0.0,0.0,0.0,0.0,0.0,0.0,0.0,0.0,0.0,0.0,0.0,0.0,0.0,0.0,0.0,0.0,0.0,0.0,0.0,0.0,0.0,0.0,0.0,0.0,0.0,0.0,0.0,0.0,0.0,0.0,0.0,0.0,0.0,0.0,0.0,0.0,0.0,0.0,0.0,0.0,0.0,0.0,0.0,0.0,0.0,0.0,0.0,0.0,0.0,0.0,0.0,0.0,0.0,0.0,0.0,0.0,0.0,0.0,0.0,0.0,0.0,0.0,0.0,0.0,0.0,0.0,0.0,0.0,0.0,0.0,0.0,0.0,0.0,0.0,0.0,0.0,0.0,0.0,0.0,0.0,0.0,0.0,0.0,0.0,0.0,0.0,0.0,0.0,0.0,0.0,0.0,0.0,0.0,0.0,0.0,0.0,0.0,0.0,0.0,0.0,0.0,0.0,0.0,0.0,0.0,0.0,0.0,0.0,0.0,0.0,0.0,0.0,0.0,0.0,0.0,0.0,0.0,0.0,0.0,0.0,0.0,0.0,0.0,0.0,0.0,0.0,0.0,0.0,0.0,0.0,0.0,0.0,0.0,0.0,0.0,0.0,0.0,0.0,0.0,0.0,0.0,0.0,0.0,0.0,0.0,0.0,0.0,0.0,0.0,0.0,0.0,0.0,0.0,0.0,0.0,0.0,0.0,0.0,0.0,0.0,0.0,0.0,0.0,0.0,0.0,0.0,0.0,0.0,0.0,0.0,0.0,0.0,0.0,0.0,0.0,0.0,0.0,0.0,0.0,0.0,0.0,0.0,0.0,0.0,0.0,0.0,0.0,0.0,0.0,0.0,0.0,0.0,0.0,0.0,0.0,0.0,0.0,0.0,0.0,0.0,0.0,0.0,0.0,0.0,0.0,0.0,0.0,0.0,0.0,0.0,0.0,0.0,0.0,0.0,0.0,0.0,0.0,0.0,0.0,0.0,0.0,0.0,0.0,0.0,0.0,0.0,0.0,0.0,0.0,0.0,0.0,0.0,0.0,0.0,0.0,0.0,0.0,0.0,0.0,0.0,0.0,0.0,0.0,0.0,0.0,0.0,0.0,0.0,0.0,0.0,0.0,0.0,0.0,0.0,0.0,0.0,0.0,0.0,0.0,0.0,0.0,0.0,0.0,0.0,0.0,0.0,0.0,0.0,0.0,0.0,0.0,0.0,0.0,0.0,0.0,0.0,0.0,0.0,0.0,0.0,0.0,0.0,0.0,0.0,0.0,0.0,0.0,0.0,0.0,0.0,0.0,0.0,0.0,0.0,0.0,0.0,0.0,0.0,0.0,0.0,0.0,0.0,0.0,0.0,0.0,0.0,0.0,0.0,0.0,0.0,0.0,0.0,0.0,0.0,0.0,0.0,0.0,0.0,0.0,0.0,0.0,0.0,0.0,0.0,0.0,0.0,0.0,0.0,0.0,0.0,0.0,0.0,0.0,0.0,0.0,0.0,0.0,0.0,0.0,0.0,0.0,0.0,0.0,0.0,0.0,0.0,0.0,0.0,0.0,0.0,0.0,0.0,0.0,0.0,0.0,0.0,0.0,0.0,0.0,0.0,0.0,0.0,0.0,0.0,0.0,0.0,0.0,0.0,0.0,0.0,0.0,0.0,0.0,0.0,0.0,0.0,0.0,0.0,0.0,0.0,0.0,0.0,0.0,0.0,0.0,0.0,0.0,0.0,0.0,0.0,0.0,0.0,0.0,0.0,0.0,0.0,0.0,0.0,0.0,0.0,0.0,0.0,0.0,0.0,0.0,0.0,0.0,0.0,0.0,0.0,0.0,0.0,0.0,0.0,0.0,0.0,0.0,0.0,0.0,0.0,0.0,0.0,0.0,0.0,0.0,0.0,0.0,0.0,0.0,0.0,0.0,0.0,0.0,0.0,0.0,0.0,0.0,0.0,0.0,0.0,0.0,0.0,0.0,0.0,0.0,0.0,0.0,0.0,0.0,0.0,0.0,0.0,0.0,0.0,0.0,0.0,0.0,0.0,0.0,0.0,0.0,0.0,0.0,0.0,0.0,0.0,0.0,0.0,0.0,0.0,0.0,0.0,0.0,0.0,0.0,0.0,0.0,0.0,0.0,0.0,0.0,0.0,0.0,0.0,0.0,0.0,0.0,0.0,0.0,0.0,0.0,0.0,0.0,0.0,0.0,0.0,0.0,0.0,0.0,0.0,0.0,0.0,0.0,0.0,0.0,0.0,0.0,0.0,0.0,0.0,0.0,0.0,0.0,0.0,0.0,0.0,0.0,0.0,0.0,0.0,0.0,0.0,0.0,0.0,0.0,0.0,0.0,0.0,0.0,0.0,0.0,0.0,0.0,0.0,0.0,0.0,0.0,0.0,0.0,0.0,0.0,0.0,0.0,0.0,0.0,0.0,0.0,0.0,0.0,0.0,0.0,0.0,0.0,0.0,0.0,0.0,0.0,0.0,0.0,0.0,0.0,0.0,0.0,0.0,0.0,0.0,0.0,0.0,0.0,0.0,0.0,0.0,0.0,0.0,0.0,0.0,0.0,0.0,0.0,0.0,0.0,0.0,0.0,0.0,0.0,0.0,0.0,0.0,0.0,0.0,0.0,0.0,0.0,0.0,0.0,0.0,0.0,0.0,0.0,0.0,0.0,0.0,0.0,0.0,0.0,0.0,0.0,0.0,0.0,0.0,0.0,0.0,0.0,0.0,0.0,0.0,0.0,0.0,0.0,0.0,0.0,0.0,0.0,0.0,0.0,0.0,0.0,0.0,0.0,0.0,0.0,0.0,0.0,0.0,0.0,0.0,0.0,0.0,0.0,0.0,0.0,0.0,0.0,0.0,0.0,0.0,0.0,0.0,0.0,0.0,0.0,0.0,0.0,0.0,0.0,0.0,0.0,0.0,0.0,0.0,0.0,0.0,0.0,0.0,0.0,0.0,0.0,0.0,0.0,0.0,0.0,0.0,0.0,0.0,0.0,0.0,0.0,0.0,0.0,0.0,0.0,0.0,0.0,0.0,0.0,0.0,0.0,0.0,0.0,0.0,0.0,0.0,0.0,0.0,0.0,0.0,0.0,0.0,0.0,0.0,0.0,0.0,0.0,0.0,0.0,0.0,0.0,0.0,0.0,0.0,0.0,0.0,0.0,0.0,0.0,0.0,0.0,0.0,0.0,0.0,0.0,0.0,0.0,0.0,0.0,0.0,0.0,0.0,0.0,0.0,0.0,0.0,0.0,0.0,0.0,0.0,0.0,0.0,0.0,0.0,0.0,0.0,0.0,0.0,0.0,0.0,0.0,0.0,0.0,0.0,0.0,0.0,0.0,0.0,0.0,0.0,0.0,0.0,0.0,0.0,0.0,0.0,0.0,0.0,0.0,0.0,0.0,0.0,0.0,0.0,0.0,0.0,0.0,0.0,0.0,0.0,0.0,0.0,0.0,0.0,0.0,0.0,0.0,0.0,0.0,0.0,0.0,0.0,0.0,0.0,0.0,0.0,0.0,0.0,0.0,0.0,0.0,0.0,0.0,0.0,0.0,0.0,0.0,0.0,0.0,0.0,0.0,0.0,0.0,0.0,0.0,0.0,0.0,0.0,0.0,0.0,0.0,0.0,0.0,0.0,0.0,0.0,0.0,0.0,0.0,0.0,0.0,0.0,0.0,0.0,0.0,0.0,0.0,0.0,0.0,0.0,0.0,0.0,0.0,0.0,0.0,0.0,0.0,0.0,0.0,0.0,0.0,0.0,0.0,0.0,0.0,0.0,0.0,0.0,0.0,0.0,0.0,0.0,0.0,0.0,0.0,0.0,0.0,0.0,0.0,0.0,0.0,0.0,0.0,0.0,0.0,0.0,0.0,0.0,0.0,0.0,0.0,0.0,0.0,0.0,0.0,0.0,0.0,0.0,0.0,0.0,0.0,0.0,0.0,0.0,0.0,0.0,0.0,0.0,0.0,0.0,0.0,0.0,0.0,0.0,0.0,0.0,0.0,0.0,0.0,0.0,0.0,0.0,0.0,0.0,0.0,0.0,0.0,0.0,0.0,0.0,0.0,0.0,0.0,0.0,0.0,0.0,0.0,0.0,0.0,0.0,0.0,0.0,0.0,0.0,0.0,0.0,0.0,0.0,0.0,0.0,0.0,0.0,0.0,0.0,0.0,0.0,0.0,0.0,0.0,0.0,0.0,0.0,0.0,0.0,0.0,0.0,0.0,0.0,0.0,0.0,0.0,0.0,0.0,0.0,0.0,0.0,0.0,0.0,0.0,0.0,0.0,0.0,0.0,0.0,0.0,0.0,0.0,0.0,0.0,0.0,0.0,0.0,0.0,0.0,0.0,0.0,0.0,0.0,0.0,0.0,0.0,0.0,0.0,0.0,0.0,0.0,0.0,0.0,0.0,0.0,0.0,0.0,0.0,0.0,0.0,0.0,0.0,0.0,0.0,0.0,0.0,0.0,0.0,0.0,0.0,0.0,0.0,0.0,0.0,0.0,0.0,0.0,0.0,0.0,0.0,0.0,0.0,0.0,0.0,0.0,0.0,0.0,0.0,0.0,0.0,0.0,0.0,0.0,0.0,0.0,0.0,0.0,0.0,0.0,0.0,0.0,0.0,0.0,0.0,0.0,0.0,0.0,0.0,0.0,0.0,0.0,0.0,0.0,0.0,0.0,0.0,0.0,0.0,0.0,0.0,0.0,0.0,0.0,0.0,0.0,0.0,0.0,0.0,0.0,0.0,0.0,0.0,0.0,0.3187,0.3758,0.0,0.0,0.0,0.0,0.0,0.0,0.0,0.0,0.0,0.0,0.0,0.0,0.0,0.0,0.0,0.0,0.0,0.0,0.0,0.0,0.0,0.0,0.0,0.3135,0.3416,0.3715,0.3531,0.0,0.0,0.0,0.0,0.0,0.0,0.0,0.0,0.0,0.3557,0.3698,0.3712,0.3689,0.3621,0.2663,0.2177,0.208,0.0,0.0,0.0,0.0,0.0,0.0,0.0,0.0,0.0,0.0,0.0,0.0,0.0,0.0,0.0,0.0,0.0,0.0,0.0,0.0,0.0,0.0,0.0,0.0,0.0,0.0,0.0,0.0,0.0,0.0,0.0,0.0,0.0,0.0,0.0,0.0,0.0,0.0,0.0,0.0,0.0,0.0,0.0,0.0,0.0,0.0,0.0,0.0,0.0,0.0,0.0,0.0,0.0,0.0,0.0,0.0,0.0,0.0,0.0,0.0,0.0,0.0,0.0,0.0,0.0,0.0,0.0,0.0,0.0,0.0,0.4651,0.45,0.0,0.0,0.0,0.0,0.0,0.0,0.0,0.0,0.0,0.0,0.0,0.0,0.0,0.0,0.0,0.0,0.0,0.0,0.0,0.0,0.0,0.2918,0.3149,0.3423,0.3731,0.4053,0.3885,0.3587,0.3153,0.3013,0.0,0.0,0.0,0.0,0.3973,0.4121,0.4223,0.4318,0.4612,0.4613,0.4385,0.3392,0.2823,0.2562,0.183,0.0,0.0,0.0,0.0,0.0,0.0,0.0,0.0,0.0,0.0,0.0,0.0,0.0,0.0,0.0,0.0,0.0,0.0,0.0,0.0,0.0,0.0,0.0,0.0,0.0,0.0,0.0,0.0,0.0,0.0,0.0,0.0,0.0,0.0,0.0,0.0,0.0,0.0,0.0,0.0,0.0,0.0,0.0,0.0,0.0,0.0,0.0,0.0,0.0,0.0,0.0,0.0,0.0,0.0,0.0,0.0,0.0,0.0,0.0,0.0,0.0,0.0,0.0,0.634,0.675,0.6775,0.6839,0.6847,0.6751,0.5812,0.5389,0.5393,0.5406,0.0,0.0,0.0,0.0,0.0,0.0,0.0,0.0,0.0,0.0,0.0,0.0,0.0,0.0,0.0,0.0,0.0,0.0,0.0,0.3409,0.3442,0.3741,0.4039,0.4323,0.4104,0.3767,0.3307,0.3144,0.0,0.0,0.0,0.4082,0.4232,0.4991,0.5566,0.5992,0.6027,0.5739,0.5119,0.4252,0.3683,0.3368,0.12,0.112,0.2588,0.0,0.0,0.0,0.0,0.0,0.0,0.0,0.0,0.0,0.0,0.0,0.0,0.0,0.0,0.0,0.0,0.0,0.0,0.0,0.0,0.0,0.0,0.0,0.0,0.0,0.0,0.0,0.0,0.0,0.0,0.0,0.0,0.0,0.0,0.0,0.0,0.0,0.0,0.0,0.0,0.0,1.1948,1.1328,0.0,0.0,0.0,0.0,0.0,0.0,0.0,0.0,0.0,0.0,0.0,0.0,0.0,0.7573,0.7632,0.7737,0.7335,0.649,0.7579,0.775,0.7056,0.7388,0.7444,0.7148,0.5898,0.0,0.5382,0.5403,0.0,0.0,0.0,0.0,0.0,0.0,0.0,0.0,0.0,0.0,0.0,0.0,0.0,0.0,0.0,0.0,0.0,0.0,0.0,0.0,0.0,0.4657,0.4932,0.5431,0.5087,0.463,0.4186,0.4078,0.0,0.0,0.448,0.503,0.5189,0.6086,0.6952,0.7747,0.7263,0.6957,0.672,0.4169,0.3411,0.4005,0.1235,0.0465,0.1164,0.1182,0.0,0.0,0.0,0.0,0.0,0.0,0.0,0.0,0.0,0.0,0.0,0.0,0.0,0.0,0.0,0.0,0.0,0.0,0.0,0.0,0.0,0.0,0.0,0.0,0.0,0.0,0.0,0.0,0.0,0.0,0.0,0.0,0.0,0.0,0.0,0.0,0.0,0.0,0.0,1.3726,1.3546,1.3277,1.2615,1.1618,0.0,0.0,0.0,0.0,0.0,0.0,0.0,0.0,0.0,0.7121,0.7995,0.8359,0.8205,0.8678,0.861,0.7918,0.8906,0.9171,0.8774,0.8452,0.8243,0.8015,0.6388,0.4941,0.3786,0.2771,0.2369,0.2236,0.0,0.0,0.0,0.0,0.0,0.0,0.0,0.0,0.0,0.0,0.0,0.0,0.0,0.0,0.0,0.0,0.0,0.0,0.6115,0.6078,0.6258,0.6814,0.6385,0.5874,0.5425,0.5311,0.5043,0.4516,0.5389,0.5965,0.6107,0.7479,0.8647,0.962,0.8645,0.7994,0.7612,0.4019,0.221,0.1888,-0.0391,-0.0851,0.0,0.0,0.0379,0.096,0.0,0.0,0.0,0.0,0.0,0.0,0.0,0.0,0.0,0.0,0.0,0.0,0.0,0.0,0.0,0.0,0.0,0.0,0.0,0.0,0.0,0.0,0.0,0.0,0.0,0.0,0.0,0.0,0.0,0.0,0.0,0.0,0.0,0.0,0.0,0.0,0.0,1.5977,1.5415,1.5494,1.4195,1.2632,0.0,0.0,0.0,0.0,0.0,0.0,0.8804,0.8921,0.8865,0.8443,0.926,0.9497,0.9092,0.971,0.9705,0.9179,1.0096,1.0411,1.0219,0.9574,0.9175,0.8896,0.6973,0.4879,0.2633,0.0782,0.0,0.0,0.0,0.0,0.0,0.0,0.0,0.0,0.0,0.0,0.0,0.0,0.0,0.0,0.0,0.0,0.0,0.0,0.0,0.7035,0.8209,0.8109,0.8079,0.8382,0.7965,0.749,0.7013,0.6747,0.6436,0.6106,0.6444,0.6655,0.6673,0.9266,1.0928,1.1554,1.0326,0.8823,0.7077,0.4074,-0.0067,-0.4922,-0.5059,-0.3249,0.0,0.0,0.0,0.0199,0.1894,0.0,0.0,0.0,0.0,0.0,0.0,0.0,0.0,0.0,0.0,0.0,0.0,0.0,0.0,0.0,0.0,0.0,0.0,0.0,0.0,0.0,0.0,0.0,0.0,0.0,0.0,0.0,0.0,0.0,0.0,0.0,0.0,0.0,0.0,0.0,0.0,0.0,0.0,1.7361,1.5379,0.0,0.0,0.0,0.0,1.2793,1.281,1.2411,1.1537,1.2265,1.1974,1.0398,1.1231,1.141,1.085,1.0923,1.0661,1.0037,1.1211,1.141,1.0575,1.0512,1.0136,0.936,0.7702,0.5562,0.292,0.0858,0.0,0.0,0.0,0.0,0.0,0.0,0.0,0.0,0.0,0.0,0.0,0.515,0.4926,0.477,0.4876,0.5699,0.6332,0.6385,0.7772,0.8838,0.9045,0.9344,0.9651,0.9954,0.9282,0.8907,0.9069,0.8196,0.7949,0.8558,0.8418,0.9165,1.0972,1.3104,1.3763,1.2878,1.1071,0.9307,0.7624,0.4251,-0.0201,-0.5413,-0.5413,-0.5272,-0.5006,-0.2678,-0.1418,-0.0664,0.1524,0.252,0.0,0.0,0.0,0.0,0.0,0.0,0.0,0.0,0.0,0.0,0.0,0.0,0.0,0.0,0.0,0.0,0.0,0.0,0.0,0.0,0.0,0.0,0.0,0.0,0.0,0.0,0.0,0.0,0.0,0.0,0.0,0.0,0.0,0.0,0.0,0.0,0.0,1.9902,1.8303,0.0,1.4383,1.5302,1.5632,1.4723,1.5615,1.5897,1.509,1.4791,1.4016,1.2578,1.2317,1.1869,1.1269,1.1269,1.1372,1.1552,1.1946,1.1999,1.1646,1.0429,0.978,0.938,0.7823,0.5668,0.3226,0.0931,0.0,0.0,0.0,0.0,0.0,0.0,0.0,0.0,0.0,0.0,0.0,0.5633,0.5418,0.5295,0.5567,0.6729,0.7721,0.814,0.9975,1.1346,1.1608,1.2079,1.2365,1.244,1.1735,1.127,1.1289,1.0395,1.0004,1.0338,0.9847,1.1263,1.4922,1.5488,1.5493,1.4906,1.1867,0.9863,0.8788,0.4607,0.0134,-0.4515,-0.574,-0.6747,-0.7452,-0.5363,-0.3778,-0.2455,0.0,0.1413,0.2131,0.0,0.0,0.0,0.0,0.0,0.0,0.0,0.0,0.0,0.0,0.0,0.0,0.0,0.0,0.0,0.0,0.0,0.0,0.0,0.0,0.0,0.0,0.0,0.0,0.0,0.0,0.0,0.0,0.0,0.0,0.0,0.0,0.0,0.0,2.3216,2.2259,2.2193,2.0597,1.877,1.6873,1.7854,1.8311,1.7634,1.8371,1.8574,1.8115,1.703,1.5807,1.4577,1.3377,1.2443,1.1667,1.1411,1.1385,1.1565,1.186,1.1689,1.1193,0.9937,0.9228,0.8899,0.7528,0.5656,0.3377,0.1003,0.0,0.0,0.0,0.0,0.0,0.0,0.0,0.0,0.0,0.0,0.6202,0.6217,0.6221,0.6352,0.6779,0.7726,0.9187,1.1466,1.3057,1.4529,1.5894,1.6285,1.6278,1.5784,1.5278,1.4562,1.3552,1.3267,1.2567,1.1253,1.0833,1.2964,1.7989,1.6256,1.6076,1.7568,1.283,1.0498,1.051,0.5219,0.0801,-0.2878,-0.6324,-0.7456,-0.6785,-0.7632,-0.7003,-0.5276,-0.2492,-0.0655,0.0782,0.0,0.0,0.0,0.0,0.0,0.0,0.0,0.0,0.0,0.0,0.0,0.0,0.0,0.0,0.0,0.0,0.0,0.0,0.0,0.0,0.0,0.0,0.0,0.0,0.0,0.0,0.0,0.0,0.0,0.0,0.0,0.0,0.0,2.6121,2.4699,2.3762,2.4141,2.2028,2.0578,2.0523,2.0528,2.0841,2.1562,2.0965,2.0564,2.0507,1.897,1.7532,1.6207,1.4515,1.3164,1.2186,1.1369,1.0734,1.0101,1.0942,1.0581,0.9103,0.909,0.8693,0.7936,0.7032,0.5558,0.3521,0.1001,0.0,0.0,0.0,0.0,0.0,0.0,0.0,0.0,0.5305,0.5644,0.595,0.6543,0.6559,0.6868,0.7948,0.9171,1.0718,1.2799,1.4658,1.6159,1.7196,1.7335,1.729,1.7143,1.5567,1.4789,1.5327,1.338,1.1881,1.1218,1.5152,1.7655,1.8389,1.937,1.9108,1.7586,1.4047,1.1684,1.0535,0.6502,0.2006,-0.2811,-0.5109,-0.6705,-0.7632,-0.7242,-0.7534,-0.7947,-0.4616,-0.2878,-0.204,0.0,0.0,0.0,0.0,0.0,0.0,0.0,0.0,0.0,0.0,0.0,0.0,0.0,0.0,0.0,0.0,0.0,0.0,0.0,0.0,0.0,0.0,0.0,0.0,0.0,0.0,0.0,0.0,0.0,0.0,0.0,2.7241,2.7947,2.7291,2.6597,2.6041,2.5725,2.3942,2.2787,2.2776,2.3111,2.3474,2.3689,2.438,2.4367,2.3282,2.162,1.9733,1.762,1.5287,1.3477,1.2186,1.1369,1.0734,1.0101,1.0315,0.9921,0.8852,0.8131,0.7838,0.791,0.6893,0.6086,0.5235,0.152,0.0,0.0,0.0,0.0,0.0,0.0,0.0,0.0,0.5826,0.6248,0.6652,0.7566,0.7634,0.7981,0.9201,1.0431,1.2035,1.4408,1.5923,1.7203,1.8322,1.8432,1.8301,1.8017,1.6808,1.6666,1.8054,1.4815,1.3581,1.5241,1.6826,1.9013,2.1874,2.1246,1.9503,1.6658,1.4856,1.2085,0.8345,0.635,0.2667,-0.2406,-0.4489,-0.635,-0.7962,-0.7827,-0.8489,-0.9444,-0.724,-0.5477,-0.3825,-0.0537,0.0446,0.0268,0.1932,0.2302,0.1997,0.1664,0.0,0.0,0.0,0.0,0.0,0.0,0.0,0.0,0.0,0.0,0.0,0.0,0.0,0.0,0.0,0.0,0.0,0.0,0.0,0.0,0.0,0.0,0.0,0.0,2.9375,3.0237,2.9294,2.8202,2.7306,2.6725,2.4883,2.384,2.4371,2.4462,2.471,2.5363,2.5806,2.5494,2.4271,2.2311,2.024,1.8116,1.5597,1.3705,1.2562,1.1375,1.0293,0.9231,0.9574,0.8942,0.7446,0.7237,0.7078,0.7023,0.5594,0.4984,0.4697,0.1361,-0.0877,-0.2093,0.0,0.0,0.0,0.0,0.0,0.0,0.6464,0.7118,0.7726,0.8645,0.8874,0.9311,1.0446,1.1399,1.309,1.6131,1.6868,1.7733,1.9332,1.9443,1.9152,1.8558,1.8515,1.9509,2.1746,1.8001,1.744,2.1298,1.7883,1.9156,2.6197,2.2042,1.8354,1.5414,1.5037,1.1814,0.5975,0.5577,0.2926,-0.1733,-0.427,-0.6264,-0.7762,-0.8818,-0.9523,-1.0012,-0.9741,-0.7927,-0.5097,-0.1925,-0.0773,-0.0729,-0.0373,-0.0351,-0.066,-0.1484,0.0,0.0,0.0,0.0,0.0,0.0,0.0,0.0,0.0,0.0,0.0,0.0,0.0,0.0,0.0,0.0,0.0,0.0,0.0,0.0,0.0,0.0,0.0,0.0,3.0958,3.2329,3.1568,2.9571,2.7963,2.742,2.5199,2.4156,2.5409,2.4996,2.5142,2.6489,2.5912,2.5134,2.4292,2.1945,0.0,0.0,0.0,1.395,1.3017,1.1483,0.9837,0.8027,0.8812,0.7876,0.5634,0.637,0.6383,0.5674,0.4072,0.3126,0.2636,0.0747,-0.2159,-0.5097,-0.1889,-0.0472,-0.027,-0.0069,0.0,0.0,0.6628,0.7093,0.7574,0.7546,0.8438,0.9623,1.1075,1.1656,1.3358,1.7387,1.7177,1.7685,2.0441,1.9861,1.9184,1.9049,1.9296,2.1739,2.7095,2.5481,2.4325,2.4392,2.4365,2.4304,2.4223,2.1326,1.8329,1.5411,1.2796,1.085,0.9542,0.6689,0.333,-0.0467,-0.3887,-0.5564,-0.6052,-0.8047,-0.9134,-0.9491,-0.9823,-0.8875,-0.7228,-0.5833,-0.4635,-0.3843,-0.509,-0.5552,-0.5353,-0.3872,-0.128,0.1754,0.4256,0.7609,0.0,0.0,0.0,0.0,0.0,0.0,0.0,0.0,0.0,0.0,0.0,0.0,0.0,0.0,0.0,0.0,0.0,0.0,0.0,3.0563,3.1836,3.2529,3.2296,3.0976,2.9529,2.8308,2.5886,2.4638,2.5479,2.5429,2.5684,2.6538,2.641,2.5946,2.5204,2.2451,2.0377,1.9086,1.6247,1.4196,1.3017,1.202,1.0382,0.8027,0.8156,0.0,0.5473,0.5603,0.5624,0.546,0.509,0.3309,0.054,0.0134,-0.215,-0.5349,-0.4663,-0.3431,-0.2011,-0.054,0.0,0.0,0.8128,0.8502,0.8701,0.8572,0.9298,1.0386,1.184,1.239,1.3479,1.5815,1.6697,1.7568,1.8736,1.8619,1.8079,1.7183,2.0796,2.4649,2.8225,2.7224,2.61,2.5244,2.5167,2.4343,2.2714,2.0771,1.7985,1.4204,1.3391,1.171,0.9215,0.6612,0.3982,0.12,-0.1471,-0.3675,-0.546,-0.6588,-0.7967,-0.9308,-0.9642,-0.9556,-0.915,-0.8118,-0.7281,-0.6953,-0.9169,-0.9947,-0.9557,-0.7081,-0.4877,-0.2096,0.4147,0.9686,1.4471,0.0,0.0,0.0,0.0,0.0,0.0,0.0,0.0,0.0,0.0,0.0,0.0,0.0,0.0,2.6123,2.7725,0.0,3.053,3.1977,3.2926,3.3323,3.2813,3.1185,2.9656,2.8543,2.6107,2.4661,2.506,2.4809,2.5019,2.6016,2.5697,2.4995,2.3854,2.1675,1.9569,1.7779,1.5888,1.4303,1.3009,1.2205,1.0759,0.8613,0.8221,0.7312,0.6009,0.5624,0.5432,0.5369,0.5376,0.4361,0.2544,0.0736,-0.1608,-0.4172,-0.5059,-0.4852,-0.3961,-0.3021,-0.1542,0.0,0.9225,0.9717,0.9964,1.0231,1.0587,1.1268,1.2573,1.3129,1.3465,1.3627,1.5598,1.6892,1.6639,1.6721,1.6258,1.4908,2.1753,2.6326,2.6804,2.6506,2.5915,2.499,2.4069,2.2946,2.1583,2.0135,1.7269,1.2992,1.3965,1.2391,0.8484,0.64,0.4232,0.2134,0.0669,-0.1601,-0.4392,-0.5127,-0.6637,-0.8592,-0.9184,-0.9775,-1.0141,-0.9048,-0.8718,-0.9003,-1.068,-1.163,-1.1717,-0.9136,-0.7438,-0.5054,0.2644,1.0328,1.7332,2.1295,2.3404,0.0,0.0,0.0,0.0,0.0,0.0,0.0,0.0,2.5438,2.6191,2.6834,2.7507,2.8305,2.9567,3.0928,3.2076,3.273,3.364,3.3943,3.3051,3.082,2.8993,2.8068,2.5808,2.4343,2.4418,2.3961,2.4156,2.5304,2.4502,2.3495,2.2382,2.0579,1.8617,1.6506,1.552,1.4355,1.3009,1.2389,1.108,0.9274,0.8613,0.7767,0.6915,0.6207,0.5818,0.5624,0.5505,0.5379,0.5109,0.1472,-0.1071,-0.2882,-0.4712,-0.5396,-0.5396,-0.5406,-0.3565,-0.0939,0.7911,0.8989,1.0256,1.1388,1.163,1.2037,1.3148,1.3345,1.3235,1.2796,1.3564,1.4782,1.6415,1.4817,1.3727,1.4004,2.0421,2.4046,2.3082,2.5181,2.5782,2.4218,2.3675,2.2682,2.1011,1.8919,1.6234,1.2986,1.1781,1.087,1.0257,0.697,0.3561,0.0267,0.0067,-0.02,-0.0802,-0.4061,-0.5592,-0.5982,-0.8081,-0.896,-0.8943,-0.8348,-0.838,-0.8517,-0.6265,-0.7047,-0.8909,-0.7373,-0.42,-0.0911,-0.1127,0.7023,1.7924,2.4333,2.7343,2.8645,2.869,2.7082,2.5615,2.6368,2.6081,2.5805,0.0,2.691,2.7467,2.8985,2.9433,2.9944,3.1267,3.2247,3.273,3.2334,3.3159,3.3574,3.2677,3.0093,2.7801,2.6598,2.4793,2.3699,2.3714,2.3683,2.3952,2.4586,2.3218,2.2533,2.2862,1.992,1.8078,1.78,1.6168,1.4616,1.3009,1.2887,1.164,0.9274,0.9204,0.8683,0.7827,0.7767,0.7312,0.6527,0.5763,0.5382,0.5119,0.1473,-0.1072,-0.2887,-0.4724,-0.5403,-0.5396,-0.5396,-0.5129,-0.4317,0.7711,0.8208,0.9065,1.0445,1.1307,1.1957,1.2415,1.2475,1.2396,1.2155,1.2396,1.2901,1.3709,1.3206,1.3347,1.4656,1.9265,2.1931,2.1498,2.4009,2.4959,2.3777,2.2893,2.171,2.022,1.8722,1.6514,1.3614,1.1616,1.0609,1.0514,0.7048,0.4617,0.3058,0.0934,0.0,-0.0067,-0.16,-0.3462,-0.545,-0.6205,-0.7254,-0.8214,-0.6983,-0.544,-0.4209,-0.6261,-0.5531,0.0,0.285,0.2622,0.1012,0.6885,1.4806,2.2601,2.6022,2.8463,2.9706,2.8154,2.815,2.8427,2.7616,2.7569,2.7781,2.8026,2.8594,2.9268,2.9961,3.0128,3.0763,3.2806,3.2936,3.2955,3.3658,3.2858,3.1747,3.0456,2.7516,2.5267,2.4756,2.4043,2.3595,2.3595,2.3585,2.3728,2.4024,2.2247,2.1207,2.1382,1.9231,1.775,1.7274,1.6296,1.5051,1.3376,1.3108,1.202,1.0047,0.953,0.9139,0.8748,0.8221,0.7502,0.6654,0.6338,0.5899,0.5189,0.2613,0.0535,-0.1408,-0.4314,-0.4105,-0.2274,-0.2274,-0.2275,-0.1874,0.7692,0.7713,0.8279,1.0097,1.1193,1.1806,1.18,1.1803,1.1791,1.1792,1.1792,1.1805,1.1806,1.2324,1.3219,1.4589,1.7876,1.9966,2.0235,2.2631,2.3778,2.3201,2.2152,2.0951,1.9741,1.8496,1.6594,1.3999,1.2337,1.1188,1.0553,0.8001,0.6347,0.5259,0.2664,0.0935,0.0,0.0,-0.1534,-0.3985,-0.4717,-0.5872,-0.6991,-0.5718,-0.3528,-0.152,-0.5156,-0.3664,0.1198,0.8387,0.6493,0.3046,1.391,2.0498,2.4347,2.5158,2.8064,3.0583,2.8443,2.8819,2.9495,2.8211,2.7969,2.8261,2.9066,2.9365,2.9529,2.9749,3.0248,3.1308,3.3467,3.3018,3.2675,3.3788,3.2071,2.9715,2.7131,2.4926,2.361,2.3631,2.3583,2.3513,2.3406,2.3024,2.2889,2.3082,2.1004,1.9732,1.9912,1.8479,1.7276,1.6553,1.623,1.5378,1.3763,1.35,1.2634,1.1233,1.0591,1.0205,0.9964,0.8871,0.8027,0.7372,0.6915,0.621,0.5243,0.3416,0.1606,-0.0268,-0.2893,-0.1617,0.1759,0.1623,0.1547,0.1671,0.7702,0.7713,0.855,1.1267,1.1765,1.1788,1.179,1.1807,1.179,1.1805,1.1805,1.1788,1.1805,1.2451,1.2918,1.2958,1.6053,1.8219,1.8808,2.0962,2.2254,2.2447,2.1619,2.0679,1.9806,1.7902,1.5896,1.3822,1.3752,1.2647,1.0624,1.0489,0.8652,0.5394,0.5259,0.3261,0.0,0.0,-0.0067,-0.0467,-0.397,-0.5229,-0.5014,-0.4927,-0.3963,-0.2445,-0.1155,-0.0212,0.0903,0.4353,0.4876,0.5845,1.6004,1.9795,2.0518,2.0736,2.6187,3.1914,3.0871,2.9357,2.8202,2.8733,2.7122,2.6273,2.9599,2.8659,2.7316,2.8122,2.987,3.1637,3.2804,3.2362,3.1751,3.1628,3.051,2.7826,2.2647,2.2903,2.3643,2.3673,2.3525,2.3259,2.2951,2.173,2.1178,2.1625,1.9162,1.8025,1.9056,1.7626,1.6533,1.6154,1.6135,1.5489,1.4172,1.4154,1.3734,1.2948,1.2887,1.2451,1.164,1.0021,0.9268,0.9139,0.7437,0.6191,0.5262,0.3473,0.1606,-0.0,-0.0135,0.2397,0.6066,0.5766,0.5453,0.5259,0.7713,0.9677,1.1436,1.1764,1.181,1.1809,1.1788,1.18,1.1805,1.1805,1.1785,0.0,0.0,0.0,0.0,0.0,1.405,1.5326,1.7036,1.9162,2.0733,2.1492,2.0683,1.9652,1.835,1.7676,1.6526,1.4877,1.3799,1.2325,1.0597,1.0593,0.874,0.5396,0.5401,0.4737,0.3416,0.1003,0.0,-0.0133,-0.1335,-0.3188,-0.4947,-0.2349,0.0057,0.213,0.0,0.3111,0.3946,0.7262,0.8227,0.892,1.3591,1.7471,2.1235,2.6037,3.0006,3.2547,3.1045,2.939,2.7813,2.6779,2.5895,2.6129,2.9327,2.9474,2.8973,2.9155,3.0177,3.1485,3.2993,3.247,3.157,3.0884,2.9316,2.7146,2.4131,2.3272,2.2995,2.3014,2.2579,2.2062,2.1582,2.1396,2.1069,2.0511,1.8672,1.7848,1.846,1.7085,1.6357,1.6504,1.6514,1.6042,1.5052,1.5052,1.4674,1.3847,1.3534,1.2987,1.2165,1.1374,1.0338,0.9204,0.8091,0.6845,0.5538,0.4822,0.3554,0.2192,0.3626,0.4938,0.6054,0.5976,0.5789,0.5664,0.77,1.1184,1.3853,1.2914,1.2492,0.0,0.0,0.0,0.0,0.0,0.0,0.0,0.0,0.0,0.0,0.0,0.0,1.3342,1.4876,1.699,1.9317,2.1872,2.0562,1.8976,1.7254,1.6371,1.5448,1.4488,1.409,1.2632,1.0249,1.0074,0.86,0.6197,0.5986,0.5691,0.5142,0.2887,0.1589,0.1064,0.088,-0.0675,-0.2505,0.0403,0.3233,0.0,0.5477,0.644,0.8076,0.9397,0.9982,1.0598,1.3126,1.776,2.3105,2.7582,3.0236,3.1197,2.8936,2.8167,2.7586,2.5758,2.5295,2.6048,2.8917,2.8961,2.8575,2.9307,2.9714,3.0567,3.2596,3.1779,3.0797,3.0765,2.8958,2.6931,2.5178,2.421,2.3555,2.3117,2.2243,2.15,2.0961,2.0525,1.9978,1.9311,1.8056,1.7317,1.7359,1.6409,1.5889,1.6035,1.6338,1.6158,1.547,1.5769,1.5661,1.5136,1.4551,1.3983,1.3469,1.2482,1.1305,0.9915,0.8641,0.7391,0.619,0.5744,0.4731,0.3557,0.5561,0.6546,0.6852,0.6852,0.6948,0.6964,0.8098,1.2242,1.5477,0.0,0.0,0.0,0.0,0.0,0.0,0.0,0.0,0.0,0.0,0.0,0.0,0.0,0.0,0.0,1.254,1.4527,1.7981,2.3061,2.0925,1.8595,1.6369,1.3907,1.2706,1.2776,1.4437,1.3423,0.9879,0.9195,0.8477,0.7735,0.7101,0.6236,0.5204,0.5325,0.4564,0.3125,0.2579,0.2207,0.2116,0.3232,0.5449,0.7899,0.744,0.981,1.2888,1.0409,1.0116,1.1446,1.5122,2.0607,2.5646,2.5524,2.7166,2.8299,2.5067,2.5919,2.7308,2.5659,2.5377,2.6054,2.8258,2.7028,2.6079,2.8342,2.8458,2.8959,3.1571,3.042,2.9561,3.1058,2.9193,2.7038,2.5633,2.5404,2.4979,2.3818,2.2505,2.148,2.108,1.9246,1.8029,1.7987,1.7234,1.6553,1.6009,1.5592,1.5195,1.4795,1.5596,1.584,1.5449,1.6348,1.6797,1.6733,1.5964,1.5542,1.5368,1.3389,1.2029,1.118,0.9118,0.7812,0.7095,0.6331,0.524,0.4215,0.5788,0.7139,0.831,0.831,0.8777,0.901,0.0,0.0,0.0,0.0,0.0,0.0,0.0,0.0,0.0,0.0,0.0,0.0,0.0,0.0,0.0,0.0,0.0,0.0,1.2008,1.3453,1.5758,1.9072,1.8014,1.6295,1.4083,1.0755,0.9656,1.0949,1.2706,1.3023,1.2035,1.0524,0.9241,0.8219,0.7597,0.7033,0.6524,0.5559,0.4981,0.4568,0.4566,0.4684,0.4862,0.5588,0.7783,1.0496,1.0485,1.3122,1.5651,0.9702,1.2169,1.8348,2.1797,2.4044,2.5744,2.7535,2.8498,2.8295,2.5084,2.4644,2.5051,2.4588,2.6279,2.7592,2.5819,2.4241,2.3773,2.6003,2.7118,2.8213,3.0006,3.0083,2.9844,2.971,2.8051,2.6597,2.6086,2.4833,2.3954,2.3714,2.213,2.0833,2.0355,1.9343,1.8177,1.68,1.6339,1.6441,1.7146,1.5766,1.4893,1.4785,1.5303,1.5684,1.5898,1.708,1.7686,1.7676,1.7156,1.6095,1.4598,1.371,1.2497,1.0949,0.9058,0.8235,0.821,0.6636,0.5897,0.5831,0.7227,0.7858,0.8027,0.8779,0.918,0.913,0.0,0.0,0.0,0.0,0.0,0.0,0.0,0.0,0.0,0.0,0.0,0.0,0.0,0.0,0.0,0.0,0.0,0.0,0.0,1.2352,1.3132,1.4218,1.3845,1.3478,1.3213,1.0223,0.9222,1.0288,1.2067,1.2916,1.2868,1.1486,1.0015,0.8494,0.8011,0.7688,0.7472,0.637,0.5903,0.0,0.0,0.6351,0.6824,0.753,0.9424,1.187,1.2803,1.6354,2.0201,1.7563,1.9033,2.234,2.4212,2.4816,2.4986,2.5831,2.6053,2.5673,2.3851,2.3372,2.3358,2.3372,2.4718,2.5582,2.3789,2.3419,2.3688,2.4543,2.6328,2.8011,2.8842,2.9365,2.96,2.9369,2.806,2.6883,2.631,2.5387,2.4444,2.3762,2.2216,2.0873,2.0143,1.8962,1.7784,1.6677,1.6409,1.6176,1.5871,1.4988,1.4414,1.4261,1.4839,1.5625,1.6631,1.7549,1.8008,1.8008,1.7578,1.6562,1.5028,1.4034,1.2798,1.1268,0.916,0.8335,0.8207,0.6734,0.6489,0.7022,0.7804,0.8479,0.921,0.9744,1.0271,1.0496,0.0,0.0,0.0,0.0,0.0,0.0,0.0,0.0,0.0,1.258,1.2253,1.2079,0.0,0.0,0.0,0.0,0.0,0.0,0.0,0.0,1.1176,1.0195,0.9979,1.0931,1.3155,1.0833,0.9721,0.9966,1.1944,1.2797,1.2525,1.1937,1.074,0.9116,0.8449,0.8266,0.839,0.7415,0.7188,0.7352,0.7151,0.7404,0.8088,0.0,1.0722,1.2693,1.4764,1.8977,2.4112,2.777,2.686,2.4204,2.42,2.4081,2.3725,2.2634,2.2134,2.1944,2.1948,2.1933,2.201,2.2255,2.2143,2.2047,2.2395,2.3742,2.4741,2.4016,2.5999,2.7843,2.7743,2.8317,2.889,2.9179,2.8355,2.7341,2.6447,2.6222,2.5541,2.3818,2.2466,2.1268,2.0177,1.8546,1.7374,1.7055,1.691,1.5968,1.4072,1.4115,1.4057,1.3789,1.4544,1.5703,1.7285,1.7773,1.7978,1.793,1.7559,1.6826,1.5716,1.4269,1.2902,1.166,0.953,0.8437,0.8084,0.7099,0.7176,0.8008,0.8161,0.9286,1.0789,1.0938,1.1545,1.215,0.0,0.0,0.0,0.0,0.0,0.0,0.0,0.0,0.0,0.0,1.4597,1.3445,0.0,0.0,0.0,0.0,0.0,0.0,0.0,0.0,0.0,1.1536,1.0465,1.0933,1.3152,0.9829,0.8095,0.8168,1.134,1.2142,1.0777,1.1546,1.1727,1.1353,0.9444,0.9239,1.0195,0.8446,0.8171,0.8745,0.8008,0.7949,0.8461,1.0556,0.0,0.0,1.7145,1.9092,2.1051,2.7006,2.6874,2.4205,2.4196,2.346,2.2598,2.2351,2.1272,2.016,2.0147,2.0146,2.0495,2.1936,2.124,2.0731,2.29,2.4299,2.5177,2.5232,2.5945,2.6401,2.5963,2.6802,2.7501,2.7226,2.7127,2.6922,2.6463,2.5828,2.4945,2.3831,2.2503,2.1246,2.0127,1.9233,1.82,1.6927,1.6811,1.6546,1.6054,1.5173,1.4651,1.4608,1.541,1.6162,1.6836,1.7627,1.7832,1.749,1.7422,1.6197,1.4039,1.3722,1.2795,1.1414,1.017,0.9879,1.0185,0.9216,0.8917,0.9145,0.9959,1.0484,1.0932,1.1694,1.215,1.215,0.0,0.0,0.0,0.0,0.0,0.0,0.0,1.6067,1.6803,1.8245,1.7272,1.6347,1.6222,1.4847,1.3884,0.0,0.0,0.0,0.0,0.0,0.0,0.0,0.0,0.0,0.0,0.9943,0.0,0.0,0.0,1.0244,1.0285,0.9922,1.0503,1.1763,1.0693,1.0507,1.0916,0.9766,0.9582,0.9993,0.934,0.9728,1.0816,0.0,0.0,0.0,1.9762,2.0777,2.1345,2.4448,2.5504,2.5237,2.3708,2.2809,2.2122,2.1214,2.0351,1.9459,1.8339,1.8832,1.9904,2.0743,2.0307,2.0215,2.2168,2.3506,2.4543,2.5178,2.6151,2.6582,2.5591,2.6436,2.7121,2.6548,2.6199,2.5974,2.5874,2.5248,2.4359,2.3327,2.2578,2.1437,1.9594,1.9058,1.8135,1.6342,1.6224,1.6085,1.5684,1.5124,1.483,1.4795,1.584,1.6514,1.6665,1.7363,1.7578,1.7373,1.6914,1.5631,1.3592,1.341,1.2511,1.1135,1.0311,1.016,1.0522,0.9622,0.9599,1.0115,1.0634,1.1087,1.162,1.215,1.2305,1.2224,0.0,0.0,0.0,0.0,0.0,0.0,0.0,1.7272,1.7667,1.9642,1.9478,1.9087,1.8759,1.6337,1.4607,0.0,0.0,0.0,0.0,0.0,0.0,0.0,0.0,0.0,0.0,0.0,0.0,0.0,0.8265,0.0,0.0,0.0,0.0,0.0,1.1573,1.1645,1.1515,1.0872,1.0753,0.0,0.0,1.1172,0.0,0.0,0.0,0.0,0.0,2.1967,2.2394,2.3044,2.4362,2.5462,2.3775,2.2555,2.134,1.9353,1.8865,1.8576,1.665,1.7156,1.8387,1.889,1.9117,1.9622,2.1249,2.2409,2.3523,2.467,2.5937,2.6565,2.5628,2.6268,2.6788,2.6367,2.5828,2.5438,2.5426,2.5111,2.4253,2.2663,2.2692,2.1753,1.9121,1.8875,1.8078,1.6035,1.5821,1.5571,1.5022,1.4989,1.5003,1.4941,1.6006,1.6592,1.6592,1.7021,1.7197,1.709,1.6458,1.5195,1.3476,1.3133,1.2273,1.0943,1.0461,1.0377,1.0647,1.017,1.0421,1.1087,1.1087,1.162,1.2305,1.2305,1.2305,1.2305,0.0,0.0,0.0,0.0,0.0,0.0,0.0,1.769,1.8415,2.0347,2.0551,2.0342,1.9838,1.7942,1.6706,0.0,0.0,0.0,0.0,0.0,0.0,0.0,0.0,0.0,0.0,0.0,0.0,0.0,0.0,0.0,0.0,0.0,0.0,0.0,0.0,1.2236,1.2638,1.1232,0.0,0.0,0.0,0.0,0.0,0.0,0.0,0.0,0.0,2.0962,2.2702,2.5376,2.4717,2.3117,2.5546,2.3353,1.9397,1.6625,1.6269,1.651,1.5201,1.4214,1.4053,1.6258,1.7222,1.8263,2.0753,2.1624,2.2404,2.4252,2.4747,2.4987,2.5467,2.5694,2.5905,2.6462,2.6413,2.6134,2.5634,2.594,2.5108,2.2152,2.2823,2.2268,1.9044,1.9185,1.8675,1.6574,1.6185,1.586,1.5371,1.5352,1.5371,1.5352,1.585,1.6184,1.6184,1.6572,1.6582,1.6243,1.6164,1.5046,1.3058,1.3025,1.2273,1.1009,1.116,1.1451,1.1748,1.1959,1.2077,1.215,1.215,1.2224,1.2305,1.2305,1.2305,1.2305,0.0,0.0,0.0,0.0,0.0,0.0,1.9256,1.8892,1.9276,2.1585,2.1281,2.0734,2.0467,1.9157,1.7827,1.6736,0.0,0.0,0.0,0.0,0.0,0.0,0.0,0.0,0.0,0.0,0.9621,1.0288,1.0284,0.0,0.0,0.0,0.0,0.0,0.0,1.2682,1.2852,1.2234,0.0,0.0,0.0,0.0,0.0,0.0,0.0,0.0,0.0,0.0,2.3258,2.4446,2.4037,2.3295,2.446,2.3035,2.0387,1.7727,1.6056,1.4668,1.2861,1.2641,1.3228,1.4525,1.6969,1.9278,2.0302,2.1695,2.3295,2.4896,2.5211,2.542,2.6078,2.5869,2.5824,2.6482,2.553,2.5062,2.6081,2.5325,2.4218,2.3006,2.2496,2.1259,1.8821,1.8374,1.76,1.5951,1.5742,1.5596,1.542,1.5664,1.5684,1.542,1.584,1.6125,1.6125,1.624,1.624,1.6115,1.5791,1.4726,1.3009,1.3009,1.2166,1.0755,1.1223,1.1833,1.247,1.2322,1.2666,1.3098,1.2519,1.2305,1.2305,1.2305,1.2305,1.2305,0.0,0.0,0.0,0.0,0.0,1.8201,1.9782,1.9522,1.9857,2.1865,2.1254,2.0533,2.0301,1.952,1.8438,1.6957,1.5426,0.0,0.0,0.0,0.0,0.0,0.0,0.0,0.0,0.0,1.0563,1.1073,1.1084,1.1949,0.0,0.0,0.0,1.2884,0.0,0.0,0.0,0.0,0.0,0.0,0.0,0.0,0.0,0.0,0.0,0.0,0.0,0.0,0.0,0.0,0.0,2.3041,2.3053,2.2291,2.105,1.892,1.6862,1.4759,1.2555,1.2641,1.3422,1.3851,1.6573,1.9261,1.9602,2.1516,2.3639,2.5065,2.5449,2.579,2.6456,2.6026,2.5682,2.5927,2.4634,2.4034,2.5267,2.4365,2.3421,2.3029,2.2018,2.068,1.8861,1.7648,1.6573,1.5498,1.541,1.541,1.541,1.5703,1.5732,1.542,1.5703,1.5869,1.5869,1.5869,1.5869,1.5869,1.5557,1.4688,1.3373,1.313,1.2397,1.1324,1.1532,1.2275,1.3215,1.2742,1.3013,1.36,1.2659,1.2305,1.2305,1.2305,1.2277,1.2344,0.0,0.0,0.0,0.0,0.0,0.0,1.8366,1.9151,1.9948,2.0744,2.0361,1.976,1.9069,1.8963,1.8552,1.7681,1.6417,0.0,0.0,0.0,0.0,0.0,0.0,0.0,0.0,0.0,1.1149,1.2848,1.2849,1.3749,1.5346,1.5374,1.4475,1.2902,0.0,0.0,0.0,0.0,0.0,0.0,0.0,0.0,0.0,0.0,0.0,0.0,0.0,0.0,0.0,0.0,0.0,0.0,0.0,2.1355,2.0655,1.9353,1.8522,1.7467,1.5275,1.452,1.4378,1.4326,1.5663,1.7382,1.861,2.0706,2.2865,2.4402,2.512,2.5704,2.6381,2.5949,2.5297,2.4604,2.4014,2.3419,2.281,2.3275,2.3173,2.1784,2.1529,2.0839,1.9267,1.7314,1.5939,1.5449,1.541,1.541,1.541,1.542,1.542,1.541,1.542,1.542,1.542,1.542,1.542,1.542,1.541,1.4991,1.4154,1.3373,1.3009,1.2972,1.2434,1.2902,1.4049,1.3401,1.3319,1.36,1.2659,1.2305,1.2305,1.2305,1.2315,1.2477,0.0,0.0,0.0,0.0,0.0,0.0,0.0,1.9523,2.0131,2.1271,1.988,1.8689,1.8465,1.9859,2.0062,1.8176,1.6946,0.0,0.0,0.0,0.0,0.0,0.0,0.0,0.0,0.0,1.2349,1.288,1.4037,1.4904,1.5399,1.5395,1.5103,1.4559,1.3417,1.2889,0.0,0.0,0.0,0.0,0.0,0.0,0.0,0.0,0.0,0.0,0.0,0.0,0.0,0.0,0.0,0.0,0.0,0.0,0.0,1.9486,1.8744,1.7774,1.5143,1.4155,1.3669,1.2884,1.5366,1.8196,1.8726,2.1754,2.4668,2.5135,2.5373,2.5718,2.6395,2.553,2.495,2.5577,2.446,2.3744,2.4431,2.354,2.2804,2.2814,2.1168,1.9113,1.6788,1.5979,1.5557,1.542,1.541,1.541,1.541,1.541,1.541,1.541,1.541,1.541,1.541,1.541,1.541,1.541,1.541,1.4991,1.4204,1.3965,1.3235,1.222,1.2751,1.3276,1.3743,1.3057,1.3531,1.4378,1.2618,1.2218,1.2744,1.2744,1.2804,1.2975,0.0,0.0,0.0,0.0,0.0,0.0,0.0,1.8999,1.8934,2.0175,1.9087,1.8202,1.8188,1.9099,1.949,1.8846,1.8158,0.0,0.0,0.0,0.0,0.0,0.0,0.0,1.3815,1.3848,1.3506,1.2901,1.5263,1.6399,1.639,1.6366,1.6049,1.5371,1.4328,1.4483,0.0,0.0,0.0,0.0,0.0,0.0,2.4348,0.0,0.0,0.0,0.0,0.0,0.0,0.0,0.0,0.0,0.0,0.0,0.0,0.0,1.8744,1.7868,1.534,1.4448,1.4043,1.3372,1.5851,1.8574,1.8879,2.2066,2.4975,2.4769,2.5137,2.5558,2.5748,2.5011,2.4433,2.4673,2.3721,2.311,2.358,2.2561,0.0,2.1255,2.004,1.8202,1.5663,1.5557,1.5586,1.542,1.541,1.541,1.541,1.541,1.541,1.541,1.541,1.541,1.541,1.541,1.541,1.541,1.541,1.5108,1.4628,1.4332,1.3925,1.3437,1.3599,1.4202,0.0,1.4049,1.432,1.5073,1.33,1.2726,1.2942,1.3035,1.3187,1.328,0.0,0.0,0.0,0.0,0.0,0.0,0.0,1.7783,1.6865,1.7852,1.8033,1.8073,1.81,1.7272,1.7563,1.9641,0.0,0.0,0.0,0.0,0.0,0.0,0.0,0.0,1.5421,1.5477,1.4704,1.3175,1.6392,1.8027,1.7974,1.8006,1.7082,1.542,1.5628,1.7225,0.0,0.0,0.0,0.0,0.0,2.4334,0.0,0.0,0.0,0.0,0.0,0.0,0.0,0.0,0.0,0.0,0.0,0.0,0.0,0.0,0.0,0.0,0.0,1.5322,1.5276,1.5304,1.686,1.8509,1.9048,2.1777,0.0,2.373,2.4668,2.5329,2.4708,2.4406,2.3845,2.2614,2.2359,2.1958,2.0928,2.0806,0.0,1.8011,1.8621,1.8246,1.5879,1.588,1.585,1.5439,1.541,1.541,1.541,1.541,1.541,1.541,1.541,1.541,1.541,1.541,1.541,1.541,1.541,1.5352,1.5294,1.4656,1.4948,1.5853,1.481,1.5504,1.7164,1.5882,1.5385,1.5438,1.4515,1.3683,1.3061,1.336,1.344,1.3313,0.0,0.0,0.0,0.0,0.0,0.0,0.0,0.0,0.0,0.0,1.6897,1.6923,1.6911,1.8189,1.9252,0.0,0.0,0.0,0.0,0.0,0.0,0.0,0.0,0.0,1.5405,1.6072,1.6233,1.5785,1.7276,1.7994,1.7984,1.8001,1.7037,1.5495,1.7728,1.9127,0.0,0.0,0.0,0.0,2.4081,2.5237,0.0,0.0,0.0,0.0,2.4905,2.4055,0.0,0.0,0.0,0.0,0.0,0.0,0.0,0.0,1.7822,1.7433,1.5831,0.0,1.5049,1.5235,1.6426,1.7857,0.0,2.1662,2.3932,2.4757,2.6106,2.6581,2.4916,2.3943,2.3406,2.3552,2.2874,2.2221,2.1958,2.1556,0.0,1.9894,2.0065,1.9696,1.8354,1.6605,1.5527,1.542,1.541,1.541,1.541,1.541,1.541,1.541,1.541,1.541,1.541,1.541,1.541,1.541,1.541,1.505,1.4519,1.5324,1.5148,1.4238,1.5545,1.6069,1.5919,1.556,1.5297,1.5016,1.3733,1.3466,1.3845,1.3897,1.3928,1.3891,0.0,0.0,0.0,0.0,0.0,0.0,0.0,0.0,0.0,0.0,0.0,1.6522,1.6522,1.7574,0.0,0.0,0.0,0.0,0.0,0.0,0.0,0.0,0.0,1.4553,1.5001,1.6539,1.7183,1.6904,1.763,1.8001,1.8008,1.7967,1.7259,1.6103,1.8214,1.9388,0.0,0.0,0.0,0.0,2.5142,0.0,0.0,0.0,0.0,0.0,2.5285,2.4319,0.0,2.2732,2.2078,2.1482,0.0,0.0,0.0,0.0,1.8112,1.7841,1.6743,1.594,1.5661,1.6367,1.7332,1.8504,2.0203,2.2084,2.3727,2.4815,2.5597,2.5797,2.4768,2.3843,2.3456,2.4146,2.3187,2.2247,0.0,0.0,2.1089,2.0133,2.0025,1.9379,1.76,1.6171,1.5428,1.54,1.541,1.541,1.541,1.541,1.541,1.541,1.541,1.541,1.541,1.541,1.541,1.542,1.5191,1.4847,1.4441,1.5334,1.536,1.4759,1.6317,1.6975,1.6891,1.6891,1.6456,1.569,1.4904,1.4403,1.4081,1.4267,1.419,1.4111,0.0,0.0,0.0,0.0,0.0,0.0,0.0,0.0,0.0,0.0,0.0,0.0,0.0,0.0,0.0,0.0,0.0,0.0,0.0,0.0,0.0,0.0,1.4286,1.4746,1.4811,1.6914,1.786,1.7529,1.7922,1.8031,1.8017,1.7988,1.7681,1.7129,1.8145,1.9108,2.0051,0.0,0.0,0.0,2.6553,0.0,0.0,0.0,0.0,0.0,0.0,0.0,0.0,2.3161,2.2707,2.2169,2.1296,0.0,0.0,0.0,0.0,0.0,1.8084,1.7381,1.7064,1.8018,1.8862,1.9901,2.1572,2.2706,2.3672,2.4513,2.458,2.452,2.4613,2.4133,2.3894,2.4359,2.3221,2.2053,2.1564,2.1491,2.1076,1.9956,1.9944,1.9289,1.7291,1.6058,1.5424,1.5391,1.5381,1.5419,1.5419,1.541,1.5449,1.5605,1.5557,1.5546,1.5615,1.5547,1.5547,1.5615,1.5176,1.4961,1.4845,1.5231,1.559,1.5972,1.6949,1.7842,1.8572,1.8489,1.7723,1.662,1.6578,1.5538,1.4128,1.4462,1.4488,1.4434,0.0,0.0,0.0,0.0,0.0,0.0,0.0,0.0,0.0,0.0,0.0,0.0,0.0,0.0,0.0,0.0,0.0,0.0,0.0,0.0,0.0,1.6681,1.5647,1.5374,1.5859,1.7409,1.8666,1.9441,1.8754,1.8281,1.8019,1.7978,1.8263,1.8857,1.9262,1.9825,2.063,2.2034,0.0,2.4626,2.712,0.0,0.0,0.0,0.0,0.0,0.0,0.0,0.0,2.1812,2.1213,2.0769,1.9202,0.0,0.0,0.0,0.0,0.0,1.9329,1.9785,2.015,1.9568,2.0355,2.1407,2.2154,2.2899,2.3821,2.5012,2.5273,2.5157,2.4843,2.5273,2.5218,2.3734,2.2441,2.1629,2.1524,2.1495,2.1415,2.1219,2.1967,2.3154,2.4648,1.9091,1.5424,1.5391,1.5426,1.5385,1.5385,1.541,1.5763,1.6483,1.6292,1.6287,1.6533,1.6152,1.6152,1.6533,1.6403,1.6034,1.5378,1.5701,1.5909,1.6142,1.6912,1.7722,1.8592,1.8072,1.7208,1.6215,1.5802,1.5018,1.4155,1.4696,1.5198,1.5549,0.0,0.0,0.0,0.0,0.0,0.0,0.0,0.0,0.0,0.0,0.0,0.0,0.0,0.0,0.0,0.0,0.0,0.0,0.0,0.0,2.0075,1.9232,1.9204,1.8927,1.8152,1.9682,2.0641,2.0962,2.0287,1.9786,1.9455,1.8649,1.8511,1.9052,1.9422,1.9989,2.0822,2.2818,2.3984,2.4699,0.0,0.0,0.0,0.0,0.0,0.0,0.0,0.0,0.0,0.0,2.1028,2.0974,1.9509,0.0,0.0,0.0,0.0,0.0,2.0501,2.2014,2.3387,2.2898,2.2507,2.2428,2.3214,2.3385,2.3653,2.4637,2.4856,2.4931,2.5137,2.5204,2.4709,2.3067,2.1545,2.0563,2.0557,2.1107,2.1728,2.2289,2.2813,2.3018,2.291,1.8313,1.5391,1.5425,1.5378,1.6107,1.768,1.7134,1.6991,1.74,1.6819,1.6606,1.6912,1.6709,1.6675,1.6675,1.6419,1.5776,1.4982,1.536,1.5635,1.6,1.7099,1.822,1.9302,1.9516,1.8574,1.7088,1.7048,1.607,1.4609,1.494,1.5396,1.5769,0.0,0.0,0.0,0.0,0.0,0.0,0.0,0.0,0.0,0.0,0.0,0.0,0.0,0.0,0.0,0.0,0.0,0.0,0.0,0.0,2.1859,2.1873,2.3081,2.2741,2.0568,2.2205,2.2955,2.2641,2.1894,2.1072,2.0284,1.927,1.8908,1.9126,1.9757,2.041,2.1214,2.3541,2.4595,2.4922,0.0,0.0,0.0,0.0,0.0,0.0,0.0,0.0,0.0,0.0,0.0,0.0,0.0,0.0,0.0,2.0061,2.0429,2.1034,2.1945,2.3894,2.5697,2.5759,2.4646,2.3862,2.4923,2.4329,2.3847,2.4904,2.4897,2.4864,2.5402,2.4869,2.3915,2.2853,2.1053,1.9805,1.9806,2.0557,2.1411,2.2226,2.2348,2.1657,1.9956,1.7507,1.5999,1.5989,1.6037,1.6971,1.925,1.847,1.8047,1.8224,1.7447,1.7147,1.7543,1.7543,1.7377,1.6977,1.659,1.5904,1.5026,1.5475,1.5876,1.6237,1.7569,1.892,2.0061,2.0438,1.9531,1.7959,1.7802,1.6677,1.519,1.5305,1.5538,1.5832,0.0,0.0,0.0,0.0,0.0,0.0,0.0,0.0,0.0,0.0,0.0,0.0,0.0,0.0,0.0,0.0,0.0,0.0,0.0,0.0,2.4958,2.5071,2.6299,2.5523,2.2484,2.4348,2.5224,2.4891,2.3243,2.114,1.8803,1.9361,1.9621,1.9689,2.0834,2.165,2.2311,2.3824,2.4844,2.5549,2.767,0.0,0.0,0.0,0.0,0.0,0.0,0.0,0.0,0.0,0.0,0.0,0.0,0.0,2.0739,2.0789,2.1971,2.342,2.4119,2.5111,2.6094,2.6662,2.6366,2.6313,2.7774,2.6088,2.4829,2.6842,2.6332,2.5533,2.558,2.4558,2.3664,2.3595,2.1462,1.978,1.9821,1.9881,1.9973,2.0029,2.0041,1.9957,1.9841,1.8578,1.7839,1.7821,1.7811,1.7915,1.8101,1.8061,1.823,1.8823,1.8242,1.8161,1.8764,1.8764,1.846,1.792,1.7872,1.7385,1.6462,1.6875,1.7081,1.7171,1.8534,1.969,2.042,1.9169,1.846,1.8156,1.6314,1.571,1.5765,1.5785,1.5812,1.5832,0.0,0.0,0.0,0.0,0.0,0.0,0.0,0.0,0.0,0.0,0.0,0.0,0.0,0.0,0.0,0.0,0.0,0.0,0.0,2.4582,2.5712,2.5788,2.6956,2.696,2.5511,2.6692,2.7201,2.6884,2.4103,2.1319,1.8623,1.9131,1.9499,1.9767,2.0748,2.1828,2.3085,2.449,2.545,2.6162,2.7429,2.7291,0.0,0.0,0.0,0.0,0.0,0.0,0.0,0.0,1.9792,2.0265,1.9276,1.9836,2.0923,2.1212,2.2049,2.3197,2.4476,2.6065,2.7491,2.8068,2.806,2.7888,2.7643,2.6789,2.6318,2.7297,2.6749,2.6123,2.6186,2.5637,2.5086,2.4924,2.3165,2.1843,2.186,2.184,2.1818,2.1818,2.187,2.2135,2.2832,2.1885,2.0278,1.8177,1.8025,1.8005,1.7971,1.8024,1.8076,1.8321,1.8109,1.8087,1.8328,1.9389,1.9815,1.9585,1.9081,1.8147,1.6973,1.6937,1.7421,1.8402,1.846,1.9553,2.1345,2.0274,1.9357,1.8426,1.6451,1.5732,1.5832,1.5832,1.5832,1.5832,0.0,0.0,0.0,0.0,0.0,0.0,0.0,0.0,0.0,0.0,0.0,0.0,0.0,0.0,0.0,0.0,0.0,0.0,2.3336,2.5024,2.604,2.6106,2.7058,2.7493,2.7273,2.7832,2.7963,2.7679,2.4627,2.1721,1.9024,1.9473,2.0079,2.0751,2.1223,2.2376,2.4006,2.475,2.5655,2.6549,2.7083,2.6602,0.0,0.0,0.0,0.0,0.0,0.0,0.0,0.0,1.9893,2.0438,2.0345,2.0855,2.1585,2.243,2.3304,2.4257,2.5353,2.7018,2.8553,2.8901,2.933,2.9458,2.8581,2.7558,2.6976,2.7611,2.7056,2.6456,2.657,2.6491,2.6357,2.6078,2.4972,2.4154,2.4149,2.4192,2.4047,2.3653,2.3616,2.3932,2.4733,2.3516,2.1707,1.9332,1.8713,1.8429,1.8398,1.8411,1.8442,1.8557,1.8458,1.8648,1.9212,2.0406,2.0933,2.0828,2.0345,1.9268,1.7651,1.7976,1.855,1.9334,1.9016,2.0075,2.1942,2.0394,1.9027,1.7705,1.6296,1.5832,1.5832,1.5832,1.5885,1.5972,0.0,0.0,0.0,0.0,0.0,0.0,0.0,0.0,0.0,0.0,0.0,0.0,0.0,0.0,0.0,0.0,0.0,0.0,2.3406,2.5008,2.6089,2.627,2.6804,2.7179,2.7457,2.7425,2.7254,2.696,2.4618,2.2273,1.9939,2.0666,2.1628,2.2667,2.2429,2.3385,2.5057,2.4641,2.5247,2.6491,2.6594,2.6198,2.56,0.0,0.0,0.0,0.0,0.0,0.0,0.0,2.0266,2.016,2.2693,2.3041,2.2899,2.4673,2.6081,2.7102,2.7085,2.8022,2.9011,2.8991,3.0108,3.1207,3.1207,2.8646,2.6605,2.8019,2.7396,2.6614,2.6515,2.6862,2.714,2.7033,2.6698,2.6516,2.6479,2.6531,2.6078,2.4947,2.482,2.4833,2.4833,2.2951,2.174,2.1672,2.0226,1.9287,1.9287,1.9297,1.9399,1.9713,1.9439,2.0159,2.189,2.19,2.178,2.1379,2.1781,2.07,1.8552,2.0356,2.0647,1.9843,2.0467,2.1349,2.2283,1.9001,1.6943,1.5832,1.5832,1.5832,1.5832,1.5838,1.6025,1.6279,0.0,0.0,0.0,0.0,0.0,0.0,0.0,0.0,0.0,0.0,0.0,0.0,0.0,0.0,0.0,0.0,0.0,0.0,2.2723,2.3973,2.4765,2.4826,2.4991,2.5156,2.5394,2.5294,2.5135,2.4905,2.3928,2.2434,2.0402,2.1128,2.2006,2.2947,2.3372,2.4461,2.5949,2.5792,2.5997,2.6485,2.6947,2.6259,2.4971,0.0,0.0,0.0,0.0,0.0,0.0,0.0,0.0,0.0,2.3077,2.4162,2.5069,2.4473,2.5625,2.6961,2.6233,2.7483,2.911,2.9634,3.0869,3.1952,3.1952,3.0468,2.8935,2.8465,2.8549,2.853,2.7847,2.7442,2.71,2.693,2.6233,2.5945,2.6451,2.6524,2.6176,2.5347,2.5187,2.5018,2.4401,2.3423,2.2434,2.1596,2.0709,1.9981,1.936,1.9853,2.0244,2.0352,2.0868,2.1416,2.1902,2.2116,2.2125,2.2034,2.2232,2.1642,2.0385,2.0699,2.1156,2.1719,2.1264,2.1854,2.2689,2.009,1.7762,1.5832,1.5832,1.5959,1.6166,1.6373,1.6633,1.6921,0.0,0.0,0.0,0.0,0.0,0.0,0.0,0.0,0.0,0.0,1.754,1.8195,0.0,0.0,0.0,0.0,0.0,0.0,2.257,2.338,2.3806,2.3631,2.3545,2.3477,2.3359,2.3717,2.3851,2.3772,2.4004,2.3238,2.1557,2.2934,2.3968,2.4669,2.5472,2.6244,2.698,2.6771,2.6733,2.6794,2.6933,2.6199,2.5061,0.0,0.0,0.0,0.0,0.0,0.0,0.0,0.0,0.0,2.42,2.5198,2.5961,2.5732,2.6809,2.8039,2.7857,2.9025,3.048,3.1241,3.229,3.3052,3.2546,3.1572,3.0467,2.9481,2.9438,2.9332,2.8495,2.765,2.7086,2.69,2.6268,2.6025,2.6471,2.6493,2.6371,2.5912,2.551,2.5068,2.4587,2.3628,2.2756,2.1955,2.1388,2.0903,2.0399,2.081,2.1183,2.1282,2.1814,2.2178,2.2355,2.2572,2.2651,2.2621,2.2656,2.249,2.1919,2.1272,2.131,2.1957,2.1016,2.0486,2.0133,1.9285,1.7844,1.6192,1.6306,1.6533,1.6814,1.6987,1.7248,1.7528,0.0,0.0,0.0,0.0,0.0,0.0,0.0,0.0,0.0,1.6376,1.7512,1.797,0.0,0.0,0.0,2.336,2.355,2.331,2.2637,2.3065,2.3136,2.2626,2.2456,2.2126,2.1627,2.2614,2.3178,2.3303,2.4477,2.4445,2.3344,2.5486,2.6693,2.7173,2.8021,2.8189,2.7889,2.7364,2.7131,2.7147,2.6483,2.5864,2.5345,2.5405,0.0,0.0,0.0,0.0,0.0,0.0,0.0,0.0,2.5848,2.6248,2.6073,2.7713,2.8848,2.9747,3.0645,3.1562,3.2459,3.322,3.3955,3.4203,3.3032,3.2142,3.1336,3.0721,3.0137,2.951,2.864,2.7731,2.7101,2.6931,2.6716,2.6622,2.6672,2.6684,2.6684,2.6684,2.5739,2.5075,2.5004,2.3611,2.2715,2.2647,2.22,2.1885,2.1885,2.1924,2.2056,2.228,2.232,2.2621,2.3133,2.3133,2.311,2.3135,2.3135,2.3135,2.3047,2.1933,2.1382,2.1203,2.0034,1.8141,1.6075,1.7478,1.7595,1.6734,1.7034,1.7328,1.7589,1.7642,1.7862,1.813,0.0,0.0,0.0,0.0,0.0,0.0,0.0,0.0,1.7957,1.8087,1.8275,1.8582,1.9003,2.0948,0.0,2.2547,2.3208,2.3116,2.1979,2.249,2.2554,2.1946,2.1421,2.1296,2.1588,2.1865,2.2154,2.26,2.4171,2.519,2.5626,2.6553,2.715,2.7372,2.8044,2.7947,2.7288,2.6148,2.568,2.5599,2.5051,2.4227,2.3355,2.3849,2.3475,0.0,0.0,0.0,0.0,0.0,0.0,0.0,2.7485,2.7887,2.7627,2.6891,2.8253,2.9763,2.8789,3.0378,3.2459,3.322,3.3985,3.4504,3.4249,3.3195,3.1982,3.0758,3.0829,3.0616,2.9172,2.8726,2.8302,2.7357,2.7157,2.7256,2.7695,2.7758,2.7758,2.7758,2.6846,2.5855,2.5074,2.3902,2.2876,2.2128,2.1991,2.1885,2.1885,2.2197,2.2383,2.2487,2.2801,2.3026,2.3124,2.3124,2.3066,2.3135,2.3135,2.3135,2.3047,2.2862,2.2217,2.1203,2.0034,1.8737,1.7596,1.7956,1.7595,1.6734,1.7034,1.7328,1.7642,1.8123,1.8484,1.8764,0.0,0.0,0.0,0.0,0.0,0.0,0.0,0.0,1.8609,1.9157,1.9133,1.9245,1.9747,2.1161,0.0,0.0,2.2084,2.2181,2.1739,2.2024,2.1936,2.129,2.0961,2.0941,2.1193,2.147,2.1998,2.2818,2.4304,2.5465,2.6373,2.7642,2.8279,2.8403,2.9055,2.8485,2.6993,2.6156,2.5525,2.5105,2.4592,2.3876,2.3161,2.3475,2.3221,2.2724,2.2724,0.0,0.0,0.0,0.0,0.0,0.0,0.0,2.7774,2.739,2.8474,2.9824,2.9909,3.136,3.3085,3.4184,3.479,3.4894,3.4284,3.3582,3.2772,3.1679,3.1509,3.1087,2.9827,2.9491,2.9073,2.8075,2.7766,2.777,2.8059,2.8109,2.8109,2.8109,2.7174,2.6159,2.5071,2.4255,2.3279,2.2261,2.2373,2.248,2.248,2.2695,2.2812,2.2812,2.3027,2.3135,2.3135,2.3135,2.3135,2.3135,2.3135,2.288,2.2438,2.1679,2.049,1.8909,1.827,1.7713,1.7456,1.7605,1.7458,1.7168,1.7615,1.7969,1.8277,1.8738,1.9005,1.9158,0.0,0.0,0.0,0.0,0.0,0.0,0.0,0.0,0.0,1.9517,1.9707,1.9819,1.9798,2.0869,2.1369,0.0,0.0,0.0,2.1515,2.1524,2.1311,2.0841,2.0678,2.0696,2.0795,2.1302,2.2076,2.3124,2.4513,2.5641,0.0,2.8405,2.9295,2.9364,2.9746,2.8692,2.6575,2.5857,2.5208,2.4601,2.4004,2.3488,2.3101,2.3101,2.2787,2.2338,2.2338,2.3224,2.446,2.5019,0.0,0.0,0.0,0.0,2.7425,2.8034,2.8781,2.9747,3.1308,3.2444,3.3573,3.5054,3.5253,3.4816,3.3684,3.3419,3.3262,3.2613,3.2078,3.1427,3.0571,3.0171,2.9683,2.8707,2.84,2.8285,2.8386,2.8398,2.8398,2.8398,2.7354,2.6252,2.5329,2.4491,2.3584,2.2703,2.2939,2.3135,2.3135,2.3135,2.3135,2.3135,2.3135,2.3135,2.3135,2.3213,2.3252,2.3252,2.332,2.2811,2.1931,2.0382,1.8542,1.6633,1.6444,1.6513,1.68,1.7048,1.7321,1.7642,1.8257,1.8637,1.8891,1.9239,1.9366,1.9366,0.0,0.0,0.0,0.0,0.0,0.0,0.0,0.0,0.0,0.0,1.9422,1.9759,1.9726,2.0526,2.0756,1.9962,2.0917,2.1371,2.0887,0.0,0.0,2.0797,2.0257,2.0207,2.0795,2.1227,2.1787,2.2512,2.4446,2.5922,0.0,0.0,0.0,2.9165,2.8135,2.682,2.5275,2.308,2.2389,2.2667,2.1599,2.1135,2.1096,2.1096,2.1051,2.0976,2.0976,2.2355,2.4329,2.5067,2.6108,0.0,0.0,0.0,2.7321,2.7425,2.8235,2.9134,2.9367,3.0924,3.2904,3.4388,3.3836,3.2949,3.2788,3.266,3.2613,3.2497,3.2437,3.2031,3.0928,3.0685,3.0241,2.903,2.8837,2.9001,2.9503,2.9566,2.9566,2.9566,2.7747,2.6445,2.6281,2.4428,2.3221,2.3057,2.3105,2.3135,2.3135,2.3135,2.3135,2.3135,2.3135,2.3135,2.3135,2.3516,2.3701,2.3711,2.4072,2.3613,2.2429,2.1121,1.9597,1.8105,1.7138,1.682,1.7094,1.7134,1.7321,1.7642,1.8257,1.8517,1.8617,1.9165,1.9366,1.9366,0.0,0.0,0.0,0.0,0.0,0.0,0.0,0.0,0.0,0.0,0.0,1.9948,2.0226,2.0592,2.0519,1.9775,2.0229,2.0602,2.0707,2.0457,2.0592,2.1259,2.039,2.0356,2.1287,2.1758,2.2032,2.2189,2.3885,0.0,0.0,2.8186,2.8817,0.0,0.0,2.5567,2.4388,2.1678,2.0983,2.1657,2.0156,2.0692,2.2173,2.0707,2.1051,2.2188,2.1096,2.1945,2.3699,2.4441,2.5423,2.6407,2.6717,0.0,0.0,0.0,2.73,2.8704,3.0378,3.1866,3.3339,3.4793,3.4447,3.3745,3.3725,3.3361,3.3193,3.3516,3.3217,3.2399,3.1013,3.0609,3.009,2.91,2.9202,2.9503,2.9754,2.9792,2.9534,2.8937,2.8028,2.6871,2.563,2.4628,2.38,2.3135,2.3135,2.3135,2.3135,2.3135,2.3135,2.3135,2.3379,2.3506,2.3506,2.3926,2.4141,2.4141,2.3661,2.3194,2.2739,2.0785,1.9514,1.8833,1.7548,1.7121,1.7388,1.7388,1.7569,1.7889,1.8323,1.8591,1.8784,1.9212,1.9366,1.9366,0.0,0.0,0.0,0.0,0.0,0.0,0.0,0.0,0.0,0.0,0.0,2.0189,2.0425,0.0,0.0,0.0,1.9435,1.9573,1.9945,1.9758,2.0034,2.0897,2.0461,2.0589,2.1427,2.2165,2.2394,2.2013,2.3812,0.0,2.7258,2.8115,2.8887,0.0,2.6907,2.5164,0.0,0.0,0.0,2.1038,1.9924,2.0932,2.2966,2.168,2.2413,2.3834,2.1724,0.0,0.0,0.0,2.4247,2.5321,2.5321,2.5693,0.0,0.0,0.0,2.7875,3.0683,3.1847,3.2714,3.4622,3.4556,3.4163,3.4558,3.4176,3.3874,3.4388,3.3725,3.2656,3.1487,3.0801,3.0194,2.929,2.9515,2.9792,2.9792,2.9534,2.9028,2.8176,2.7591,2.6603,2.4957,2.4542,2.4049,2.3135,2.3135,2.3135,2.3135,2.3242,2.3301,2.3301,2.3721,2.3945,2.3945,2.4365,2.4639,2.4756,2.3786,2.3459,2.3648,2.1056,1.9868,1.9767,1.8065,1.7382,1.7589,1.7669,1.7836,1.8083,1.8457,1.8731,1.8958,1.9259,1.9366,1.9366,0.0,0.0,0.0,0.0,0.0,0.0,0.0,0.0,0.0,0.0,0.0,2.0411,1.9824,2.0333,2.0183,1.8867,1.8747,1.8519,1.7977,1.8527,1.888,1.8946,2.0113,0.0,2.0739,2.2275,2.2727,2.2013,0.0,0.0,2.6775,2.8347,2.9628,3.0525,2.8149,2.5971,2.3941,0.0,0.0,2.079,2.1321,2.165,2.2054,2.4403,0.0,2.5166,0.0,0.0,0.0,0.0,0.0,0.0,2.4574,2.4591,2.4625,0.0,0.0,0.0,2.8535,2.9198,2.9913,3.2879,3.3035,3.2912,3.439,3.4561,3.4445,3.4457,3.3485,3.2623,3.251,3.1748,3.0856,2.9896,2.9779,2.9792,2.9792,2.8858,2.8176,2.8096,2.6273,2.4957,2.4787,2.38,2.3135,2.3135,2.3135,2.3135,2.3135,2.3525,2.375,2.375,2.417,2.4385,2.4385,2.4814,2.5254,2.5664,2.5567,2.5577,2.5499,2.2741,2.1517,2.1415,1.8783,1.7569,1.7602,1.7903,1.8029,1.8103,1.8677,1.8911,1.8958,1.9259,1.9366,1.9366,0.0,0.0,0.0,0.0,0.0,0.0,0.0,0.0,0.0,0.0,0.0,0.0,0.0,2.0965,2.0462,1.956,1.8792,1.8275,1.8065,1.7763,1.8309,1.9947,2.0141,2.0903,2.2415,2.3312,2.3319,2.2443,2.3981,2.5305,2.644,2.6944,2.7683,2.8511,2.6908,2.5631,2.4425,2.0734,0.0,0.0,2.0875,2.2494,0.0,0.0,0.0,0.0,0.0,0.0,0.0,0.0,0.0,0.0,0.0,0.0,0.0,0.0,0.0,2.5193,2.7355,2.7948,0.0,3.1034,3.1765,3.2238,3.3624,3.4257,3.4607,3.504,3.3815,3.2593,3.2593,3.1328,3.0216,2.9856,2.9792,2.9792,2.9792,2.8846,2.7844,2.7128,2.5714,2.4542,2.38,2.3299,2.3135,2.3135,2.3135,2.3262,2.3545,2.3711,2.3916,2.418,2.4609,2.4971,2.5264,2.542,2.5576,2.5742,2.5742,2.5742,2.5635,2.3791,2.2458,2.1558,1.9949,1.859,1.7609,1.7916,1.8156,1.837,1.8764,1.9038,1.9225,1.9325,1.9366,1.9366,0.0,0.0,0.0,0.0,0.0,0.0,0.0,0.0,0.0,2.0885,0.0,0.0,0.0,0.0,2.1007,2.0016,1.904,1.8465,1.8465,1.8012,1.8584,2.0494,2.0537,2.1302,2.301,2.3992,2.3894,2.2698,2.3875,2.4895,2.5695,2.6014,2.6623,2.7326,2.604,2.5249,0.0,0.0,0.0,2.0939,0.0,0.0,2.5188,0.0,0.0,0.0,0.0,0.0,0.0,0.0,0.0,0.0,0.0,0.0,0.0,0.0,0.0,2.4179,2.5892,2.668,2.7612,2.9958,3.0542,3.1192,3.3671,3.3984,3.4143,3.5265,3.3973,3.2593,3.2593,3.1057,2.9792,2.9792,2.9792,2.9792,2.9792,2.853,2.7279,2.6554,2.5136,2.3963,2.3135,2.3135,2.3135,2.3135,2.3271,2.3486,2.3769,2.4062,2.4414,2.4844,2.5146,2.5439,2.5732,2.5742,2.5742,2.5742,2.5742,2.5742,2.5635,2.389,2.2837,2.246,2.0332,1.8751,1.7769,1.8176,1.8457,1.8664,1.8958,1.9192,1.9366,1.9366,1.9366,1.9366,0.0,0.0,0.0,0.0,0.0,0.0,0.0,0.0,2.1323,2.1907,0.0,0.0,0.0,0.0,0.0,2.0263,1.9506,1.9115,1.9066,1.9263,1.9713,2.0314,2.1235,2.1963,2.2496,2.4274,2.4382,2.2731,2.4624,2.5169,2.4489,0.0,2.6613,2.7257,2.5836,2.4965,2.4538,0.0,2.2491,2.2218,0.0,2.4138,2.308,0.0,0.0,0.0,2.7641,2.8818,0.0,2.8976,0.0,0.0,0.0,0.0,0.0,0.0,0.0,0.0,0.0,0.0,0.0,2.9614,2.936,2.9623,3.4353,3.3876,3.2991,3.4961,3.3833,3.2538,3.2522,3.1057,2.9792,2.9792,2.9792,2.9792,2.9792,2.7891,2.6483,2.6483,2.4478,2.3135,2.3135,2.3135,2.3135,2.3135,2.3545,2.3799,2.3809,2.4619,2.5283,2.5723,2.5742,2.5742,2.5742,2.5742,2.5742,2.5742,2.5742,2.5742,2.5635,2.2985,2.2672,2.4056,1.9916,1.8158,1.8116,1.8691,1.8925,1.8951,1.9252,1.9482,1.9482,1.9366,1.9366,1.9366,0.0,0.0,0.0,0.0,0.0,2.3498,2.3798,2.4039,2.4163,0.0,0.0,0.0,0.0,0.0,2.3973,2.3048,2.2266,2.1365,2.0237,2.0003,2.04,2.1529,2.1837,2.2933,2.4944,2.4919,2.4593,2.3984,2.3992,2.39,2.3697,2.4049,2.4586,0.0,2.4889,2.4045,2.2852,2.1159,0.0,2.2557,2.3273,2.5005,0.0,0.0,0.0,0.0,0.0,3.3477,3.2547,0.0,3.007,2.5999,0.0,0.0,0.0,0.0,0.0,0.0,2.2943,0.0,0.0,0.0,0.0,0.0,2.9887,3.0463,3.0904,3.2674,3.1698,3.0706,3.1441,3.0633,2.9792,2.9792,2.9792,2.9792,2.9792,2.7891,2.6483,2.6483,2.4478,2.3135,2.3135,2.3135,2.3135,2.3135,2.3545,2.3926,2.4228,2.5078,2.5605,2.5732,2.5742,2.5742,2.5742,2.5742,2.5742,2.5742,2.5742,2.5742,2.5655,2.5235,2.4188,2.2652,2.2009,2.0619,1.8691,1.8858,1.9576,2.0475,1.9692,2.0033,2.0809,1.9815,1.9366,1.9366,0.0,0.0,2.304,2.4131,2.4436,2.4691,2.5226,2.5398,2.5588,0.0,0.0,0.0,0.0,0.0,2.5932,2.5098,2.4117,2.307,2.184,2.0842,2.0738,2.1811,2.1697,2.2555,2.4543,2.4428,2.4248,2.4036,2.3596,2.3241,2.2936,2.2936,2.3173,2.3579,2.3579,2.3105,2.2226,0.0,0.0,0.0,2.4216,0.0,0.0,3.1041,3.2546,0.0,0.0,0.0,3.3711,3.569,3.2124,0.0,0.0,0.0,0.0,0.0,0.0,2.2128,2.2233,2.2652,2.3385,0.0,0.0,0.0,2.9056,2.9699,3.0365,3.2996,3.2434,3.1555,3.1771,3.1044,3.0279,2.9856,2.9792,2.9792,2.9792,2.7891,2.6483,2.6483,2.4478,2.3135,2.3135,2.3135,2.3213,2.3398,2.3809,2.4394,2.5195,2.5898,2.6269,2.6269,2.6269,2.6269,2.6269,2.6269,2.6182,2.6006,2.6182,2.6182,2.5927,2.5191,2.431,2.3423,2.2025,2.119,2.0874,1.9663,1.9663,2.0444,2.0294,2.0479,2.0587,1.97,1.9366,1.9366,0.0,0.0,2.4895,2.5547,2.5506,2.5612,2.6258,2.6127,2.6355,0.0,2.7592,2.7967,0.0,0.0,0.0,0.0,2.5506,2.4401,2.346,2.1778,2.1097,2.1667,2.1471,2.1795,2.2913,2.3588,2.3782,2.3511,2.3427,2.3054,2.2429,2.2344,2.2344,2.2412,2.226,2.2192,2.2141,2.1739,0.0,2.2046,2.6087,2.6871,0.0,0.0,3.21,3.165,3.4088,3.4573,3.4506,3.752,3.4468,0.0,0.0,0.0,0.0,0.0,2.0542,2.2742,2.1994,2.2682,2.3894,0.0,0.0,0.0,2.9719,3.0043,3.0272,3.3891,3.3893,3.2965,3.2191,3.1315,3.0446,2.9568,2.9578,2.9716,2.9779,2.7891,2.6483,2.6483,2.4478,2.3154,2.3203,2.3213,2.3389,2.3828,2.4297,2.5117,2.6396,2.6816,2.7012,2.7012,2.7012,2.7012,2.7012,2.7012,2.6826,2.6465,2.6836,2.6816,2.6365,2.4018,2.3836,2.4907,2.1145,2.0889,2.3159,2.0823,1.9931,2.004,2.0923,2.0702,1.9591,1.9482,1.9366,1.9366,2.6085,2.6277,2.654,2.7201,2.7655,2.8036,2.8423,2.8311,2.8366,2.8929,2.9361,3.0192,0.0,0.0,0.0,0.0,2.747,2.5798,2.3558,2.3047,2.2887,2.3038,2.3533,2.4188,2.5007,2.5176,2.4905,2.4303,2.368,2.3325,2.3173,2.2581,2.2632,2.3122,2.1938,2.1397,2.1424,2.1307,0.0,2.4831,2.5987,0.0,3.028,3.3018,3.5099,3.6612,3.7736,3.8024,3.7689,3.6245,3.4162,3.1591,0.0,0.0,0.0,2.2825,0.0,0.0,0.0,0.0,0.0,0.0,0.0,0.0,2.6408,2.6976,2.7602,2.9021,2.8809,2.8356,2.8304,2.8163,2.7893,2.7251,2.8222,2.9264,2.9729,2.7891,2.6483,2.6483,2.4478,2.3271,2.3633,2.3662,2.3838,2.4258,2.5029,2.5889,2.6846,2.6973,2.7012,2.7012,2.7012,2.7012,2.7012,2.7012,2.6973,2.6894,2.6973,2.6973,2.6803,2.5487,2.4407,2.3628,2.3037,2.1873,2.0371,2.2153,2.2934,2.271,2.0594,2.0364,2.1031,1.9815,1.9366,1.9366,2.8593,2.8802,2.8967,2.8857,2.9045,2.9251,2.9432,2.9267,2.9365,3.0095,3.1119,0.0,0.0,0.0,0.0,0.0,0.0,2.6601,2.491,2.3578,2.2852,2.2852,2.2835,2.319,2.3951,2.4323,2.4492,2.4506,2.3748,2.3393,2.3376,2.2649,2.3291,2.4949,2.2733,2.2564,2.3863,0.0,2.2716,2.4188,2.6993,0.0,3.3085,3.5334,3.7127,3.8497,3.887,3.9225,3.9191,3.6737,3.4792,0.0,3.1369,2.9109,2.6688,0.0,2.4879,2.5181,0.0,0.0,0.0,2.4029,0.0,0.0,0.0,2.7758,2.8344,2.9676,2.9435,2.8866,2.8469,2.8427,2.8139,2.7389,2.8448,2.9264,2.8988,2.7549,2.6483,2.6483,2.4478,2.3223,2.3447,2.3662,2.415,2.501,2.6084,2.6885,2.7314,2.7539,2.7656,2.7656,2.7656,2.7656,2.7656,2.7656,2.7549,2.7344,2.7549,2.7539,2.725,2.546,2.4208,2.3456,2.2967,2.1813,2.0587,2.2032,2.2702,2.2597,2.1038,2.0479,2.0364,1.97,1.9366,1.9366,3.011,3.0556,3.0779,2.989,2.9839,2.9917,2.9917,2.9689,2.987,3.0864,3.2374,0.0,0.0,0.0,0.0,0.0,0.0,2.7618,2.6532,2.4359,2.3156,2.3156,2.2293,2.2243,2.3139,2.3444,2.3816,2.4303,2.368,2.3393,2.3376,2.2649,2.3646,0.0,0.0,0.0,0.0,0.0,0.0,2.4171,0.0,3.1393,3.3305,3.6332,3.7838,3.8413,3.8988,3.958,3.9783,3.7855,3.6088,3.4612,3.438,3.2286,0.0,0.0,0.0,0.0,0.0,0.0,0.0,0.0,0.0,2.6624,0.0,0.0,0.0,0.0,0.0,0.0,0.0,0.0,0.0,2.7485,0.0,0.0,0.0,2.6839,0.0,2.6203,2.4529,2.332,2.3154,2.3457,2.4277,2.5752,2.667,2.7314,2.7646,2.8066,2.8291,2.8291,2.8291,2.8291,2.8291,2.8291,2.8125,2.7793,2.8135,2.7999,2.7353,2.4911,2.3599,2.3263,2.2145,2.1472,2.1252,2.1472,2.1472,2.1137,2.1137,2.0479,1.9366,1.9366,1.9366,1.9366,2.9363,2.991,3.0217,2.9333,2.9821,3.0336,3.0336,3.0089,3.0181,3.0827,0.0,0.0,0.0,0.0,0.0,0.0,0.0,2.9916,2.7517,2.6627,2.6201,2.6201,2.4879,2.4794,2.6167,2.4983,2.4086,2.3511,2.3427,2.3393,2.3376,2.2649,2.2835,0.0,2.4797,0.0,0.0,0.0,2.6768,0.0,3.0566,2.9668,0.0,3.3761,3.5926,3.6349,3.9005,4.0003,3.9935,0.0,3.8121,3.7133,0.0,3.511,3.4084,3.0799,0.0,0.0,0.0,0.0,0.0,0.0,2.7057,0.0,0.0,0.0,2.7961,2.7461,0.0,0.0,0.0,0.0,0.0,0.0,0.0,0.0,2.5457,2.562,2.5734,2.5217,2.4609,2.3975,2.3213,2.3184,2.4072,2.6162,2.5723,2.6035,2.7588,2.8066,2.8291,2.8291,2.8291,2.8291,2.8291,2.8291,2.8271,2.8223,2.8271,2.759,2.62,2.4582,2.3039,2.1805,2.1699,2.0809,1.97,2.1031,2.0809,1.9707,1.9707,1.9597,1.9366,1.9366,1.9366,1.9366,2.8799,3.0221,3.0687,2.8834,2.9582,3.0279,2.9786,3.0429,3.1038,3.1178,0.0,0.0,0.0,0.0,0.0,0.0,0.0,3.1214,2.9253,2.83,2.7261,2.6099,2.505,2.4811,2.5389,2.4828,2.4371,2.4036,2.3596,2.3393,2.3376,2.2649,2.3613,0.0,2.615,0.0,2.8044,0.0,2.711,0.0,0.0,0.0,0.0,3.5098,3.821,3.8379,3.9631,4.007,4.002,0.0,3.8589,0.0,0.0,0.0,0.0,0.0,0.0,0.0,0.0,0.0,0.0,0.0,0.0,0.0,2.7349,0.0,2.7742,0.0,0.0,0.0,0.0,0.0,0.0,0.0,2.6929,0.0,0.0,0.0,2.5817,0.0,0.0,0.0,2.3477,2.374,2.458,2.626,2.6045,2.6367,2.7598,2.7283,2.7051,2.7051,2.6164,2.5717,2.5717,2.6608,2.7051,2.7051,2.7843,2.7501,2.6045,2.4488,2.3039,2.1586,2.1586,2.0809,1.9475,2.1031,2.0694,1.9366,1.9366,1.9366,1.9366,1.9366,1.9366,1.9366,2.7998,2.9599,3.0051,2.8183,2.9061,2.9912,2.9573,3.0779,3.1669,3.1499,3.316,0.0,3.5239,3.513,0.0,0.0,3.5014,3.3432,3.1816,3.0328,2.8971,2.7809,2.5845,2.5186,2.5998,2.4814,2.4188,2.4188,2.346,2.319,2.3376,2.2649,2.3849,2.664,0.0,2.8602,3.0683,0.0,2.8645,2.8126,2.9197,2.9597,3.026,3.6485,3.9244,3.9782,4.002,4.007,4.0054,3.9615,3.842,3.7195,3.7785,3.643,3.445,0.0,0.0,0.0,2.947,0.0,0.0,0.0,0.0,0.0,0.0,0.0,0.0,0.0,0.0,0.0,0.0,0.0,0.0,0.0,0.0,2.6944,0.0,0.0,0.0,0.0,0.0,0.0,0.0,2.3711,2.4228,2.5898,2.5703,2.6084,2.7422,2.6444,2.5928,2.6145,2.4599,2.3822,2.3822,2.538,2.5927,2.5489,2.6943,2.6717,2.4812,2.371,2.2371,2.1031,2.1031,2.0371,1.9482,2.0587,2.0371,1.9366,1.9366,1.9366,1.9366,1.9366,1.9366,1.9366,2.6804,2.7219,2.7396,2.7251,2.8132,2.9206,3.0213,3.1186,3.1768,3.1703,3.3334,3.4766,0.0,0.0,0.0,0.0,0.0,3.7345,3.5367,3.3069,3.2193,3.3085,2.8281,2.6945,2.9871,2.5659,2.3427,2.3427,2.2699,2.2699,2.3376,2.2649,2.275,2.3697,2.73,2.8146,2.7114,3.065,3.2968,3.42,3.4297,3.6437,3.9326,0.0,3.7067,3.9032,3.9833,4.007,3.9851,3.8396,3.7801,3.7547,3.6146,3.644,0.0,0.0,0.0,0.0,0.0,3.206,0.0,2.8448,0.0,0.0,0.0,0.0,2.7175,0.0,0.0,0.0,0.0,0.0,0.0,0.0,0.0,0.0,0.0,0.0,0.0,0.0,0.0,0.0,0.0,0.0,2.2383,0.0,2.3955,2.4355,2.6904,2.6017,2.564,2.6145,2.4599,2.3822,2.3822,2.538,2.538,2.3933,2.538,2.4591,2.1692,2.1699,2.0923,1.9482,1.9482,1.9482,1.9366,1.9482,1.9482,1.9366,1.9366,1.9366,1.9366,1.9366,1.9366,1.9366,2.5929,2.5736,2.5866,2.7172,2.8174,2.9155,3.0251,3.0703,3.1139,3.17,3.3394,3.5076,3.6386,3.751,3.8598,3.9692,3.8993,3.7729,3.6046,3.4207,3.2932,3.2435,2.9481,2.8078,2.8586,2.6607,2.5101,2.412,2.3866,2.3866,2.4103,2.3376,2.368,2.4949,0.0,2.9313,0.0,0.0,0.0,0.0,0.0,3.615,3.8498,0.0,3.857,3.9731,4.002,4.007,4.0003,3.9421,3.8557,3.7737,3.7631,3.6938,3.6179,3.6163,3.5629,3.483,3.3624,3.2947,3.1936,2.9429,2.8996,2.8613,0.0,0.0,0.0,0.0,0.0,0.0,0.0,0.0,0.0,0.0,0.0,0.0,0.0,0.0,0.0,0.0,0.0,0.0,0.0,0.0,0.0,0.0,0.0,0.0,2.5422,2.3617,2.2774,2.3135,2.1714,2.0938,2.0938,2.2371,2.2806,2.2363,2.3822,2.3479,2.1586,2.1586,2.0809,1.9366,1.9366,1.9366,1.9366,1.9366,1.9366,1.9366,1.9366,1.9366,1.9366,1.9366,1.9366,1.9419,2.5947,2.5531,2.564,2.7528,2.8879,2.9945,3.0751,3.1167,3.1797,3.2965,3.4257,3.5674,3.7286,3.8307,3.9187,3.9943,3.9469,3.844,3.6889,3.5433,3.4278,3.3491,3.1534,3.0597,3.0888,2.8914,2.742,2.6367,2.538,2.4881,2.4864,2.3866,2.4052,2.5253,0.0,2.911,3.2621,3.2652,3.4147,0.0,0.0,3.6937,0.0,0.0,3.9043,3.9344,3.9863,4.0048,3.999,3.9543,3.885,3.8117,3.8154,3.7455,3.6611,3.7045,3.627,3.5138,3.4398,3.3465,3.2267,3.0073,2.968,2.9315,2.7469,0.0,2.7635,0.0,0.0,0.0,0.0,0.0,0.0,0.0,0.0,0.0,0.0,0.0,0.0,0.0,0.0,0.0,0.0,0.0,0.0,0.0,0.0,0.0,0.0,2.2245,2.107,2.1399,2.0092,1.9366,1.9366,2.0809,2.1365,2.0809,2.2258,2.2258,2.0809,2.0809,2.0256,1.9366,1.9366,1.9366,1.9366,1.9366,1.9366,1.9366,1.9366,1.9366,1.9366,1.9366,1.9432,1.9593,2.6766,2.658,2.6775,2.8326,3.0076,3.136,3.1655,3.2411,3.3536,3.5168,3.5725,3.6543,3.8091,3.9126,3.9689,3.9646,3.9943,3.948,3.7953,3.6863,3.6322,3.6464,3.4345,3.4231,3.6441,3.2363,3.0103,2.9839,2.7072,2.571,2.5693,2.4205,2.3866,2.4608,2.5287,0.0,3.1337,3.2751,3.5924,3.9952,3.9193,3.8908,3.8962,3.8887,3.8492,3.8081,3.9446,3.99,3.9748,3.8921,3.8673,3.8477,3.7752,3.7943,3.8437,3.8366,3.8048,3.7253,3.5161,3.3792,3.2529,3.0443,2.9867,2.9578,2.8448,2.8537,2.8449,0.0,0.0,0.0,0.0,0.0,0.0,0.0,0.0,0.0,0.0,0.0,0.0,0.0,0.0,0.0,0.0,0.0,0.0,0.0,0.0,0.0,0.0,0.0,2.0508,2.0966,1.9981,1.9366,1.9366,2.0809,2.0816,1.9366,2.0809,2.0809,1.9366,1.9366,1.9366,1.9366,1.9366,1.9366,1.9366,1.9366,1.9366,1.9366,1.9366,1.9372,1.9386,1.9372,1.9553,1.9846,2.7106,2.8949,3.0164,2.9941,3.0324,3.088,3.159,3.1939,3.2493,3.3576,3.5567,3.7012,3.7444,3.8891,3.9541,3.8811,3.9131,3.9152,3.864,3.7622,3.7546,3.8715,3.5989,3.4995,3.6178,3.3407,3.1479,3.054,2.8657,2.7585,2.7181,2.5744,2.5135,2.5338,0.0,2.7994,3.2029,3.2403,3.5136,3.9193,3.8962,3.9262,3.9729,3.9072,3.904,3.9429,3.9791,3.987,3.9802,3.9448,3.9369,3.9277,3.9003,3.902,3.8996,3.8208,3.7291,3.6314,3.5009,3.3914,3.2701,3.1342,3.0984,3.0696,2.9603,2.9106,2.8587,2.7664,0.0,0.0,0.0,0.0,0.0,0.0,0.0,0.0,0.0,0.0,0.0,0.0,0.0,0.0,0.0,0.0,0.0,0.0,0.0,0.0,0.0,0.0,0.0,1.9443,1.9435,1.9366,1.9366,1.9815,1.9815,1.9366,1.9815,1.9815,1.9366,1.9366,1.9366,1.9366,1.9366,1.9366,1.9366,1.9366,1.9366,1.9366,1.9366,1.9499,1.9659,1.9446,1.9553,1.9846,2.7424,2.9863,0.0,3.1518,3.1487,3.1795,3.266,3.2538,3.2774,3.4023,3.5943,3.7191,3.7168,3.9135,4.0097,3.9149,3.9539,3.9561,3.8869,3.881,3.8968,3.9298,3.8311,3.8133,3.8956,3.6534,3.4566,3.3143,3.1011,2.9214,2.7739,2.6141,2.5289,2.5118,0.0,2.7063,3.0492,3.3155,3.586,3.848,3.8776,3.8925,0.0,3.8878,3.8973,3.9296,3.9604,3.9768,3.9658,3.9527,3.9497,3.9504,3.9433,3.9424,3.9177,3.8069,3.7021,3.5974,3.4979,3.3953,3.293,3.2277,3.2127,3.1755,3.0065,2.9446,2.8714,2.7335,2.5969,2.5044,2.5152,0.0,0.0,0.0,0.0,0.0,0.0,0.0,0.0,0.0,0.0,0.0,0.0,0.0,0.0,0.0,0.0,0.0,0.0,0.0,0.0,1.8711,1.8898,1.9105,1.9366,1.9239,1.9239,1.9366,1.9366,1.9366,1.9366,1.9366,1.9366,1.9366,1.9366,1.9366,1.9366,1.9366,1.9366,1.9379,1.9506,1.9659,1.98,1.976,1.9933,2.0207,2.8038,0.0,0.0,0.0,0.0,3.3353,3.4237,3.3782,3.3897,3.5417,3.6742,3.7468,3.7312,3.9527,4.0664,3.9784,4.0287,4.0102,3.8816,4.0038,4.0364,3.9402,4.0655,4.172,4.2513,4.0029,3.786,3.6096,3.3208,3.045,2.7774,2.6,2.4935,0.0,0.0,0.0,0.0,3.4438,3.725,3.7998,3.8652,3.8492,3.7951,3.8541,3.8707,3.8777,3.9382,3.957,3.9542,3.9414,3.9424,3.9424,3.9424,3.9424,3.9177,3.7979,3.693,3.5974,3.4815,3.3797,3.3081,3.3081,3.3131,3.2648,3.0445,2.9851,2.9109,2.6721,2.5513,2.5033,2.5477,0.0,0.0,0.0,0.0,0.0,0.0,0.0,0.0,0.0,0.0,0.0,0.0,0.0,0.0,0.0,0.0,0.0,0.0,0.0,0.0,1.847,1.8524,1.8791,1.9305,1.9092,1.9092,1.9312,1.9352,1.9366,1.9366,1.9366,1.9366,1.9366,1.9366,1.9366,1.9366,1.9366,1.9392,1.9452,1.97,1.9846,1.9947,2.0201,2.0481,2.0728,2.9872,0.0,0.0,0.0,0.0,3.4276,3.5141,3.5195,3.53,3.5702,3.78,3.9022,3.8396,3.9414,3.9724,3.8743,3.9376,3.9539,3.8911,4.0072,4.0896,4.113,4.1158,4.1302,4.1629,3.9875,3.7782,3.5453,3.3078,3.0468,2.7755,2.6232,2.513,0.0,0.0,0.0,3.2628,3.5537,0.0,3.8722,3.8788,3.9086,3.9452,3.8714,3.923,4.0247,3.9627,3.9444,3.9459,3.9379,3.9424,3.9424,3.9424,3.9424,3.9017,3.7084,3.6369,3.5814,3.3869,3.324,3.3081,3.3081,3.342,3.3332,3.183,3.1101,3.0264,2.8644,2.7094,2.5877,2.5264,2.3887,0.0,0.0,0.0,0.0,0.0,0.0,0.0,0.0,0.0,0.0,0.0,0.0,0.0,0.0,0.0,0.0,0.0,0.0,0.0,0.0,1.8724,1.8898,0.0,1.9192,1.9192,1.9005,1.9252,1.9366,1.9366,1.9366,1.9366,1.9366,1.9366,1.9366,1.9366,1.9366,1.9506,1.9726,1.978,2.0094,2.0528,2.0581,2.0782,2.0995,0.0,0.0,0.0,0.0,0.0,3.5027,3.5481,3.6755,3.7378,3.654,3.8007,3.8999,3.8633,3.9785,4.0348,3.9806,4.0033,3.9984,3.9402,4.0672,4.1394,4.1354,4.1981,4.2282,4.208,4.0999,3.8943,3.5925,3.4332,3.1788,2.8383,2.6702,2.561,2.5135,0.0,2.96,0.0,3.5408,3.6785,3.7776,3.8042,3.8357,3.8592,3.8454,3.9063,3.999,3.9538,3.9424,3.9424,3.9424,3.9424,3.9424,3.9424,3.9424,3.9017,3.6838,3.6198,3.5734,3.3628,3.3081,3.3144,3.3432,3.3231,3.2557,3.1612,3.0611,2.9351,2.788,2.6903,2.5986,2.4648,2.3721,2.2881,0.0,0.0,0.0,0.0,0.0,0.0,0.0,0.0,0.0,0.0,0.0,0.0,0.0,0.0,0.0,0.0,0.0,0.0,0.0,0.0,0.0,1.8918,0.0,1.9145,1.9158,1.9299,1.9366,1.9372,1.9519,1.9593,1.9599,1.9746,1.9733,1.9579,1.9432,1.9539,1.9813,1.9967,2.0294,2.0695,2.0848,2.0989,2.1089,0.0,3.3731,0.0,0.0,3.5064,3.5849,3.6071,3.8246,3.9318,3.7767,3.8495,3.9141,3.9141,4.0351,4.1103,4.0964,4.0789,4.0423,3.9795,4.1118,4.1661,4.1126,4.2514,4.3087,4.2519,4.1895,4.0026,3.68,3.5562,3.3094,2.9434,2.7482,2.6559,2.664,2.8586,3.1112,3.394,3.5133,3.6113,3.6949,3.753,3.7704,3.7689,3.8362,3.8945,3.9424,3.9424,3.9514,3.9634,3.9634,3.9529,3.9424,3.9424,3.9265,3.8694,3.676,3.6053,3.5507,3.3628,3.3081,3.3206,3.3759,3.2942,3.1844,3.1219,3.0035,2.861,2.7031,2.6514,2.5859,2.4111,2.374,2.3437,0.0,0.0,0.0,0.0,0.0,0.0,0.0,0.0,0.0,0.0,0.0,0.0,0.0,0.0,0.0,0.0,0.0,0.0,0.0,0.0,1.8203,1.8731,0.0,1.9165,1.9279,1.9459,1.9519,1.9466,1.976,1.9893,1.9907,2.0134,2.01,1.9873,1.9646,1.972,2.0007,2.0241,2.0508,2.0795,2.1029,2.1109,2.1109,0.0,0.0,0.0,3.4199,3.5526,3.6853,3.7651,3.943,4.0383,3.9564,4.0326,4.0957,4.0957,4.0984,4.0959,4.0824,4.0467,4.007,3.9652,4.0881,4.1456,4.1111,4.2178,4.2519,4.1895,4.1296,3.991,3.778,3.5627,3.333,3.0937,2.8706,2.8384,2.9736,3.0598,3.2629,3.5416,3.5564,3.6355,3.7561,3.8209,3.8421,3.8377,3.9065,3.9364,3.9424,3.9424,3.9798,4.0307,4.0307,3.9903,3.9424,3.9424,3.8708,3.7753,3.6526,3.5588,3.4594,3.3398,3.3081,3.3206,3.3759,3.3223,3.2383,3.1619,3.0781,2.9663,2.793,2.6934,2.5859,2.4111,2.4727,2.4844,2.2832,0.0,0.0,0.0,0.0,0.0,0.0,0.0,0.0,0.0,0.0,0.0,0.0,0.0,0.0,0.0,0.0,0.0,1.7694,0.0,1.7789,1.813,1.9185,1.9466,1.8978,1.9773,2.0013,1.9766,2.006,2.0194,2.0194,2.0221,2.0221,2.0187,2.0167,2.0327,2.0595,2.0621,2.0815,2.1076,2.1096,2.1109,2.1109,3.5001,3.5002,3.5162,3.5617,3.6699,3.78,3.8698,3.9921,4.0655,4.0396,4.0843,4.1171,4.1082,4.0842,4.0626,4.0467,4.0146,3.9775,3.9339,4.0737,4.1445,4.1111,4.2141,4.244,4.1793,4.1223,3.9932,3.7905,3.6062,3.4032,3.1816,3.0463,3.0649,3.2114,3.3311,3.4736,3.6235,3.6213,3.6723,3.7621,3.7826,3.8054,3.8467,3.9155,3.9664,4.0008,4.0008,4.0427,4.0995,4.0995,4.0546,4.0008,4.0008,3.9017,3.7587,3.6526,3.5521,3.4511,3.3398,3.3081,3.3206,3.3759,3.2687,3.1479,3.1491,3.0289,2.87,2.7516,2.6592,2.5781,2.5088,2.4951,2.4922,2.4853,0.0,0.0,0.0,0.0,0.0,0.0,0.0,0.0,0.0,0.0,0.0,0.0,0.0,0.0,0.0,0.0,0.0,1.6767,0.0,1.819,1.831,1.9299,1.9766,1.9713,2.0067,2.0174,2.0067,2.0361,2.0595,2.0748,2.0575,2.0501,2.0481,2.0307,2.0408,2.0675,2.0675,2.0855,2.1109,2.1109,2.1109,2.1109,3.5493,3.572,3.6164,3.6993,3.7841,3.8724,3.9646,4.0297,4.0718,4.0752,4.0875,4.0933,4.0824,4.0574,4.0324,4.0098,3.9776,3.9448,3.9133,4.0587,4.1261,4.0857,4.1865,4.2162,4.1534,4.0967,4.0062,3.8785,3.7119,3.5559,3.4157,3.2998,3.3144,3.4432,3.5431,3.6195,3.6696,3.6805,3.7124,3.756,3.7677,3.8212,3.9035,3.9514,4.0113,4.0681,4.0681,4.1115,4.1669,4.124,4.0852,4.0438,4.0246,3.8905,3.7177,3.6428,3.5472,3.449,3.3604,3.3319,3.3458,3.401,3.2426,3.0838,3.1571,2.9984,2.8086,2.7353,2.6621,2.6113,2.6113,2.5605,2.54,2.6084,2.626,0.0,0.0,0.0,0.0,0.0,0.0,0.0,0.0,0.0,0.0,0.0,0.0,0.0,0.0,0.0,0.0,0.0,0.0,0.0,1.8617,1.9573,2.0114,2.0234,2.0408,2.0448,2.0374,2.0668,2.0915,2.1096,2.0895,2.0802,2.0788,2.0575,2.0615,2.0802,2.0802,2.0929,2.1109,2.1109,2.1109,2.1109,3.5493,3.6257,3.7161,3.8023,3.8855,3.9677,4.0548,4.0703,4.0703,4.0703,4.0529,4.0405,4.0405,4.0293,4.0101,3.9834,3.9373,3.9125,3.9099,4.0357,4.0857,4.0221,4.1248,4.1534,4.0903,4.0368,4.0368,4.0868,3.8867,3.8116,3.859,3.6529,3.5944,3.665,3.6682,3.6651,3.6631,3.7328,3.7525,3.7449,3.8108,3.9185,4.0382,4.0382,4.0786,4.1369,4.1369,4.1788,4.2171,4.0989,4.0622,4.0521,3.9822,3.8117,3.6279,3.6279,3.5543,3.4575,3.4035,3.3884,3.4022,3.4575,3.2699,3.1024,3.1995,3.0214,2.8174,2.7744,2.7305,2.6992,2.6992,2.6992,2.6709,2.5879,2.6816,2.7344,0.0,2.5327,0.0,0.0,2.1481,2.0072,2.1773,0.0,0.0,0.0,0.0,0.0,0.0,0.0,0.0,1.7627,1.7883,0.0,1.8911,2.008,2.0521,2.0241,2.0822,2.0949,2.0681,2.0969,2.1109,2.1109,2.1109,2.1109,2.1102,2.1096,2.1102,2.1109,2.1109,2.1109,2.1109,2.1109,2.1109,2.1109,3.6219,3.7043,3.7932,3.8799,3.9629,4.0246,4.0535,4.0415,4.0281,4.0281,3.9718,3.9229,3.9076,3.9034,3.8982,3.8856,3.8222,3.7923,3.8255,3.9704,4.0437,4.0221,4.1207,4.1707,4.1534,4.092,4.092,4.1534,3.9458,3.8362,3.8103,3.6915,3.7002,3.8163,3.7086,3.6852,3.725,3.6968,3.7345,3.8138,3.8811,3.9619,4.0442,4.0905,4.1474,4.2058,4.2058,4.1947,4.1805,4.1381,4.0252,3.8844,3.8654,3.7538,3.6305,3.6305,3.5556,3.4675,3.4512,3.4462,3.4307,3.3521,3.2285,3.1053,3.0471,2.9054,2.7822,2.7695,2.7314,2.7012,2.7012,2.7012,2.7021,2.7051,2.7393,2.7471,2.6894,0.0,2.5583,2.498,2.2962,2.1698,2.1928,1.9563,0.0,0.0,0.0,0.0,0.0,0.0,0.0,0.0,1.8063,0.0,1.9225,1.9987,2.0528,2.0835,2.1022,2.1062,2.0975,2.1069,2.1109,2.1109,2.1109,2.1109,2.1109,2.1109,2.1109,2.1109,2.1109,2.1109,2.1109,2.1109,2.1109,2.1109,3.6546,3.7429,3.8331,3.9179,3.9933,4.0392,4.0392,4.0119,3.9901,3.9901,3.9164,3.8588,3.8426,3.7977,3.778,3.7935,3.7488,3.7323,3.7614,3.9119,3.9866,3.9615,4.0793,4.1358,4.1168,4.0797,4.0874,4.1446,4.0175,3.9105,3.8271,3.7746,3.7714,3.8003,3.7275,3.7047,3.7204,3.724,3.7659,3.8452,3.914,3.9963,4.0816,4.122,4.1938,4.2716,4.2293,4.1857,4.1504,4.0547,3.9332,3.8017,3.7586,3.6923,3.6353,3.6353,3.5851,3.529,3.509,3.5039,3.4649,3.3371,3.2252,3.1053,2.9446,2.8501,2.79,2.79,2.7685,2.75,2.75,2.75,2.7588,2.7861,2.79,2.7754,2.7324,2.6894,2.6182,0.0,0.0,2.3289,0.0,2.0925,1.9592,0.0,0.0,0.0,0.0,0.0,0.0,1.7515,1.8544,1.9285,1.9686,2.016,2.0641,2.1109,2.1109,2.1109,2.1109,2.1109,2.1109,2.1109,2.1109,2.1109,2.1109,2.1109,2.1109,2.1109,2.1109,2.1109,2.1109,2.1109,2.0716,2.0068,3.6594,3.7553,3.8493,3.9274,3.9827,4.0153,4.0153,3.9791,3.951,3.951,3.8776,3.8272,3.8272,3.7104,3.6539,3.7076,3.7097,3.7097,3.7135,3.8585,3.9188,3.8633,4.0106,4.0672,4.0256,4.0188,4.0417,4.0903,4.0908,4.0218,3.899,3.8865,3.8051,3.6708,3.7234,3.7143,3.6626,3.7823,3.8377,3.8527,3.9215,4.0247,4.1384,4.1429,4.2145,4.3076,4.1947,4.1504,4.0986,3.8801,3.8017,3.7756,3.6709,3.6358,3.6358,3.6358,3.6358,3.6257,3.5742,3.5499,3.5115,3.372,3.2345,3.0773,2.881,2.8291,2.8291,2.8291,2.8291,2.8291,2.8291,2.8291,2.8291,2.8291,2.8271,2.8105,2.7685,2.7246,2.6357,2.4707,2.4893,2.4834,2.4004,2.3159,2.2704,0.0,0.0,0.0,0.0,0.0,1.7194,1.8871,1.9212,1.9646,2.0227,2.0508,2.0802,2.1109,2.1109,2.1109,2.1109,2.1109,2.1109,2.1109,2.1109,2.1109,2.1109,2.1109,2.1109,2.1109,2.1109,2.1109,2.1109,2.0976,1.9935,1.8506,3.7192,3.8051,3.8856,3.945,3.9673,3.9724,3.9724,3.9151,3.8681,3.8681,3.7628,3.689,3.689,3.6215,3.5854,3.5968,3.5968,3.6165,3.6563,3.8014,3.8807,3.8607,4.0106,4.1121,4.1616,4.1013,4.078,4.0903,4.0876,4.0438,3.9621,3.8439,3.7731,3.7312,3.6386,3.6451,3.721,3.7509,3.8242,3.923,3.9903,4.0651,4.1429,4.1938,4.211,4.1947,4.1684,4.0462,3.8801,3.8289,3.7494,3.6803,3.6452,3.6358,3.6358,3.6358,3.6358,3.6332,3.6207,3.5482,3.4292,3.2971,3.0858,2.8876,2.8368,2.8291,2.8291,2.8291,2.8291,2.8291,2.8291,2.8291,2.8291,2.8291,2.8027,2.7666,2.7226,2.6807,2.626,2.5518,2.581,2.5869,2.5322,2.4534,2.3394,0.0,0.0,1.9301,1.8242,1.8023,1.8263,1.8905,1.9212,1.9646,2.0227,2.0301,2.0601,2.1109,2.1109,2.1109,2.1109,2.1109,2.1109,2.1109,2.1109,2.1109,2.1109,2.1109,2.1109,2.1109,2.1109,2.1109,2.0976,1.9546,1.8896,1.825,3.7698,3.8265,3.8793,3.9471,3.9302,3.9059,3.9059,3.8365,3.7853,3.7853,3.7006,3.6374,3.6374,3.5941,3.5757,3.6129,3.6146,3.6265,3.6559,3.7991,3.8814,3.8768,3.9928,4.0906,4.1644,4.1283,4.0999,4.0933,4.0919,4.0351,3.931,3.8466,3.8015,3.7913,3.7158,3.7389,3.8347,3.8646,3.902,3.9514,4.0457,4.107,4.1444,4.1514,4.1558,4.1504,4.0376,3.9156,3.8017,3.7494,3.6883,3.6358,3.6358,3.6358,3.6358,3.6358,3.6358,3.6263,3.5667,3.4969,3.3871,3.1938,2.9807,2.8291,2.8291,2.8291,2.8291,2.8291,2.8291,2.8291,2.8291,2.8291,2.8291,2.8291,2.8096,2.7734,2.71,2.6816,2.6514,2.6084,2.6416,2.666,2.6621,2.6177,2.5405,2.3944,2.2299,2.0948,2.0145,1.9306,1.8965,1.9118,1.9285,1.9586,2.0034,2.0301,2.0661,2.1109,2.1109,2.1109,2.1109,2.1109,2.1109,2.1109,2.1109,2.1109,2.1109,2.1109,2.1109,2.1109,2.1109,2.0589,1.9807,1.8896,1.7468,1.6048,3.792,3.8206,3.8525,3.9146,3.8662,3.8227,3.8227,3.7578,3.7076,3.7076,3.6603,3.6266,3.6266,3.5956,3.6062,3.6721,3.6975,3.711,3.711,3.8497,3.9276,3.9174,3.9969,4.0713,4.1356,4.137,4.1264,4.1025,4.0834,4.0107,3.8781,3.865,3.8552,3.8542,3.8437,3.8826,3.9604,4.0172,4.0127,3.9813,4.0935,4.1353,4.1243,4.0786,4.0778,4.0802,3.8801,3.803,3.7678,3.6709,3.6358,3.6358,3.6358,3.6358,3.6358,3.6358,3.6263,3.5858,3.4678,3.408,3.3166,3.0628,2.9102,2.8291,2.8291,2.8291,2.8291,2.8291,2.8291,2.8291,2.8291,2.8291,2.8252,2.8125,2.8096,2.7803,2.6943,2.6875,2.6787,2.6426,2.6816,2.7256,2.7627,2.7725,2.7493,2.6908,2.4604,2.3018,2.2393,2.0528,1.9392,1.9432,1.9432,1.9593,1.9927,2.0514,2.0935,2.1176,2.1223,2.1243,2.1243,2.1243,2.1243,2.1243,2.1196,2.1176,2.1169,2.1129,2.1109,2.1109,2.1109,2.0068,1.8506,1.8244,1.6043,1.3325,3.7387,3.7882,3.8218,3.7682,3.7452,3.7415,3.7415,3.6904,3.6539,3.6539,3.6054,3.5739,3.5739,3.6243,3.6637,3.6772,3.7922,3.865,3.865,4.0037,4.0595,3.9969,4.1221,4.1999,4.2117,4.2088,4.1667,4.1025,4.0245,3.966,3.9411,3.8766,3.8727,3.923,3.8646,3.908,4.0247,4.0352,4.0666,4.11,4.1294,4.1115,4.0697,4.0608,3.9759,3.8635,3.8198,3.7507,3.6628,3.6452,3.6358,3.6358,3.6358,3.6358,3.6358,3.6358,3.5571,3.4678,3.4483,3.2655,3.0525,2.9006,2.8495,2.8291,2.8291,2.8291,2.8291,2.8291,2.8291,2.8291,2.8291,2.8291,2.8057,2.7324,2.7217,2.6914,2.6055,2.625,2.6465,2.6396,2.709,2.7588,2.7656,2.7988,2.7611,2.6316,2.4708,2.3158,2.1767,2.0207,1.9479,1.9726,1.9733,1.9993,2.0535,2.1122,2.1436,2.149,2.173,2.185,2.185,2.185,2.185,2.1837,2.159,2.1483,2.1463,2.1216,2.1109,2.1109,2.1109,2.0068,1.8378,1.6824,1.5009,1.3062,3.7112,3.7482,3.7648,3.7268,3.696,3.6764,3.6764,3.6333,3.5985,3.5985,3.614,3.6248,3.6248,3.6924,3.7702,3.8497,3.9546,4.0527,4.1322,4.1271,4.1238,4.1288,4.1931,4.2294,4.2239,4.2609,4.2178,4.0817,4.0388,3.9985,3.948,3.9505,3.9828,4.0457,4.0142,4.0352,4.0935,4.0935,4.0696,4.0308,4.0509,4.0392,3.9934,3.9159,3.8553,3.8017,3.7415,3.6896,3.6358,3.6358,3.6358,3.6358,3.6358,3.6358,3.6358,3.6358,3.4957,3.3155,3.2353,3.0732,2.9102,2.8495,2.8291,2.8291,2.8291,2.8291,2.8291,2.8291,2.8291,2.8291,2.8291,2.8291,2.8096,2.7471,2.7363,2.707,2.6211,2.6455,2.6728,2.6728,2.7285,2.7754,2.7978,2.8174,2.7726,2.6155,2.471,2.3151,2.1692,2.0301,1.9659,1.98,1.9953,2.0241,2.0675,2.1102,2.1396,2.1557,2.185,2.1984,2.1984,2.1984,2.1984,2.1977,2.1844,2.179,2.1777,2.1637,2.149,2.1349,2.1349,1.9677,1.6953,1.6172,1.4232,1.1762,3.6925,3.702,3.6981,3.6865,3.6481,3.6224,3.6224,3.5854,3.5622,3.5622,3.6299,3.6772,3.6772,3.7601,3.8616,3.9732,4.0679,4.1762,4.3064,4.2252,4.1965,4.2523,4.2378,4.2311,4.245,4.2631,4.2062,4.069,4.05,4.006,3.9424,4.0098,4.0756,4.1384,4.1534,4.1683,4.1833,4.1833,4.125,4.0338,4.0261,3.9986,3.9541,3.8054,3.7558,3.7586,3.6709,3.6358,3.6358,3.6358,3.6358,3.6358,3.6358,3.6358,3.6358,3.6061,3.3946,3.1531,3.0214,2.9102,2.8291,2.8291,2.8291,2.8291,2.8291,2.8291,2.8291,2.8291,2.8291,2.8291,2.8291,2.8291,2.8096,2.7471,2.7451,2.7178,2.6221,2.6621,2.7012,2.7012,2.749,2.7939,2.8262,2.8291,2.7881,2.6846,2.4958,2.3424,2.2375,2.0801,1.9933,2.0,2.0221,2.0481,2.0775,2.1136,2.143,2.1657,2.2017,2.2191,2.2191,2.2191,2.2191,2.2184,2.2118,2.2084,2.2078,2.2017,2.1817,2.155,2.1149,1.8871,1.5913,1.5394,1.3325,1.0721,3.6545,3.6457,3.6291,3.581,3.5711,3.565,3.565,3.5622,3.5622,3.5622,3.6299,3.6772,3.6772,3.8058,3.8954,3.9056,4.0375,4.1542,4.232,4.2929,4.3284,4.3335,4.2599,4.2525,4.3207,4.1707,4.0811,4.069,3.9864,3.9481,3.9424,4.0098,4.0756,4.1414,4.2013,4.2626,4.318,4.318,4.3135,4.2887,4.1855,4.0858,3.9761,3.8479,3.7376,3.6546,3.6452,3.6358,3.6358,3.6358,3.6358,3.6358,3.6358,3.6358,3.6156,3.4884,3.2655,3.011,2.8794,2.8398,2.8291,2.8291,2.8291,2.8291,2.8291,2.8291,2.8291,2.8291,2.8291,2.8291,2.8291,2.8291,2.7891,2.668,2.6816,2.6621,2.5342,2.623,2.7012,2.7012,2.7744,2.8262,2.8291,2.8291,2.8447,2.862,2.5916,2.4359,2.4688,2.1821,2.0327,2.0601,2.0635,2.0782,2.1076,2.1637,2.1931,2.1964,2.2525,2.2799,2.2799,2.2799,2.2799,2.2779,2.2505,2.2385,2.2365,2.2098,2.1817,2.1421,1.9825,1.7815,1.5654,1.4101,1.2285,1.0721,3.5223,3.5574,3.5854,3.5622,3.5622,3.5622,3.5622,3.5622,3.5791,3.6282,3.7009,3.7652,3.8108,3.9056,3.9851,4.0324,4.0882,4.1483,4.2199,4.2475,4.2841,4.3307,4.2561,4.1979,4.1658,4.1013,4.0432,3.9864,3.9538,3.9424,3.9439,4.0502,4.1145,4.1429,4.2491,4.288,4.2731,4.1945,4.139,4.0851,3.9075,3.8288,3.8025,3.6897,3.6417,3.6358,3.6358,3.6358,3.6358,3.6358,3.6358,3.6358,3.6358,3.6358,3.5953,3.3749,3.1735,3.0016,2.8698,2.8291,2.8291,2.8291,2.8291,2.8291,2.8291,2.8291,2.8291,2.8291,2.8291,2.8291,2.8291,2.8291,2.8047,2.7305,2.7314,2.7148,2.6387,2.6934,2.7412,2.7412,2.7939,2.8291,2.8291,2.8525,2.7958,2.6175,2.5146,2.3949,2.2096,2.0997,2.0641,2.0935,2.0942,2.0995,2.1109,2.151,2.181,2.1991,2.2398,2.2686,2.2859,2.2859,2.2859,2.2853,2.2746,2.2692,2.2686,2.2572,2.2352,2.2071,2.1214,1.8976,1.6105,1.5187,1.3062,1.0721,3.4423,3.4912,3.5351,3.5571,3.5622,3.5622,3.5622,3.5825,3.618,3.6705,3.7635,3.8447,3.8937,3.9648,4.029,4.0798,4.1045,4.1321,4.1791,4.1776,4.2064,4.2831,4.2062,4.1346,4.0675,4.0432,3.999,3.9424,3.9424,3.9529,3.9753,4.0861,4.1489,4.1728,4.2851,4.2902,4.206,4.1294,4.0449,3.9558,3.7604,3.7082,3.7258,3.623,3.6031,3.6358,3.6358,3.6358,3.6358,3.6358,3.6358,3.6358,3.6358,3.5846,3.4739,3.2833,3.1019,2.9513,2.8601,2.8291,2.8291,2.8291,2.8291,2.8291,2.8291,2.8291,2.8291,2.8291,2.8291,2.8291,2.8291,2.8291,2.8154,2.7734,2.7666,2.751,2.708,2.7393,2.7666,2.7666,2.8154,2.8496,2.8496,2.8877,2.8033,2.5626,2.5169,2.3707,2.0617,2.0702,2.0902,2.1102,2.1109,2.1109,2.1109,2.1403,2.1657,2.1857,2.2231,2.2525,2.2726,2.2819,2.2859,2.2859,2.2859,2.2859,2.2859,2.2859,2.2686,2.2264,2.0971,1.8789,1.6232,1.4899,1.2852,1.0721,3.4336,3.4489,3.4726,3.5487,3.5622,3.5622,3.5622,3.6282,3.6772,3.6806,3.8075,3.8988,3.9005,3.9648,4.007,4.007,4.0646,4.0951,4.0968,4.0816,4.108,4.1933,4.1147,4.069,4.069,3.9864,3.9424,3.9424,3.9424,3.9768,4.0427,4.1085,4.1728,4.2387,4.3045,4.2644,4.1587,4.1587,4.0916,3.9812,3.8559,3.8107,3.7939,3.6803,3.6358,3.6358,3.6358,3.6358,3.6358,3.6358,3.6358,3.6358,3.6358,3.4545,3.2331,3.2331,3.0421,2.8291,2.8291,2.8291,2.8291,2.8291,2.8291,2.8291,2.8291,2.8291,2.8291,2.8291,2.8291,2.8291,2.8291,2.8291,2.8154,2.7744,2.7676,2.7529,2.709,2.7402,2.7685,2.7685,2.8418,2.8926,2.8926,2.9316,2.905,2.793,2.6278,2.4037,2.1215,2.1109,2.1109,2.1109,2.1109,2.1109,2.1109,2.1403,2.155,2.1563,2.2138,2.2412,2.2432,2.2726,2.2859,2.2859,2.2859,2.2859,2.2859,2.2859,2.2686,2.2008,1.8424,1.6782,1.5987,1.2281,1.0853,1.0724,3.3575,3.4134,3.4726,3.5487,3.5622,3.5808,3.6349,3.6637,3.7144,3.8193,3.8717,3.9191,3.9698,3.9476,3.9262,3.9262,3.8933,3.8905,3.9282,3.9625,3.9935,4.0185,3.9935,3.9793,3.9793,3.9553,3.9649,4.0113,4.0113,4.0442,4.11,4.1758,4.2177,4.2387,4.2173,4.1932,4.1504,3.9844,3.8992,3.8559,3.7415,3.6883,3.6896,3.6534,3.6358,3.6358,3.6358,3.6358,3.6358,3.6358,3.6358,3.6263,3.5271,3.3761,3.2129,3.1122,2.9608,2.8291,2.8291,2.8291,2.8291,2.8291,2.8291,2.8291,2.8291,2.8291,2.8291,2.8291,2.8291,2.8291,2.8291,2.8291,2.8252,2.8125,2.8359,2.8496,2.8369,2.873,2.9004,2.9004,2.9219,2.9375,2.9375,2.871,2.7705,2.6143,2.3757,2.1985,2.1102,2.1109,2.1109,2.1109,2.1109,2.1109,2.1109,2.1196,2.1349,2.1557,2.173,2.2024,2.2418,2.2512,2.2665,2.2859,2.2859,2.2859,2.2859,2.2859,2.2812,2.2569,2.1255,1.9157,1.6697,1.533,1.3226,1.1029,3.3203,3.3761,3.4387,3.5436,3.5876,3.6231,3.6705,3.728,3.7973,3.887,3.9242,3.958,4.002,3.9368,3.8908,3.8908,3.8418,3.8216,3.8504,3.9078,3.9424,3.9424,3.9424,3.9424,3.9424,3.9679,4.0008,4.0397,4.0666,4.113,4.1773,4.2177,4.2506,4.2761,4.1951,4.1337,4.0817,3.8903,3.7848,3.7415,3.6722,3.6358,3.6358,3.6358,3.6358,3.6358,3.6358,3.6358,3.6358,3.6358,3.6061,3.5475,3.4678,3.3055,3.1327,3.0514,2.9303,2.8291,2.8291,2.8291,2.8291,2.8291,2.8291,2.8291,2.8291,2.8291,2.8291,2.8291,2.8291,2.8291,2.8291,2.8291,2.8291,2.8291,2.8643,2.8916,2.8916,2.9287,2.957,2.957,2.9717,2.9824,2.9824,2.8779,2.7103,2.4819,2.247,2.1109,2.1109,2.1109,2.1109,2.1109,2.1109,2.1109,2.1109,2.1109,2.1196,2.1376,2.1496,2.1797,2.2251,2.2365,2.2579,2.2859,2.2859,2.2859,2.2859,2.216,2.1741,2.1584,1.9875,1.7813,1.5791,1.4853,1.3125,1.1162,3.3017,3.3355,3.388,3.5368,3.6265,3.6823,3.6958,3.8125,3.9005,3.9089,3.9614,4.0003,4.0003,3.9209,3.8674,3.8674,3.8586,3.8458,3.8417,3.9035,3.9424,3.9424,3.9484,3.9514,3.9514,4.0098,4.0457,4.0576,4.1175,4.1803,4.2447,4.2447,4.2682,4.3076,4.1947,4.0831,3.9637,3.8469,3.7322,3.6358,3.6358,3.6358,3.6358,3.6358,3.6358,3.6358,3.6358,3.6358,3.6358,3.6263,3.5367,3.4385,3.408,3.2353,3.0317,3.011,2.9313,2.8291,2.8291,2.8291,2.8291,2.8291,2.8291,2.8291,2.8291,2.8291,2.8291,2.8291,2.8262,2.8252,2.8281,2.8262,2.8252,2.8281,2.8672,2.8975,2.8975,2.9394,2.9687,2.9687,3.0029,3.0264,3.0264,2.9043,2.6841,2.3566,2.1971,2.1109,2.1109,2.1109,2.1109,2.1109,2.1109,2.1109,2.1109,2.1109,2.1109,2.1109,2.1383,2.1663,2.1957,2.2251,2.2539,2.2826,2.2853,2.2859,2.2578,2.0756,2.0057,1.9495,1.5981,1.4463,1.4035,1.2241,1.1461,1.1202,3.2341,3.3,3.388,3.5368,3.6265,3.7178,3.8328,3.8785,3.9191,3.9766,3.9441,3.9139,3.9139,3.793,3.7128,3.7128,3.7437,3.788,3.8347,3.9035,3.9424,3.9424,3.9903,4.0187,4.0187,4.0337,4.0905,4.1938,4.2073,4.2491,4.312,4.312,4.2672,4.1932,4.0746,3.9623,3.8379,3.7243,3.6628,3.6358,3.6358,3.6358,3.6358,3.6358,3.6358,3.6358,3.6358,3.6358,3.6263,3.5174,3.4678,3.3981,3.1847,3.0824,3.011,2.8996,2.8495,2.8291,2.8291,2.8291,2.8291,2.8291,2.8291,2.8291,2.8291,2.8291,2.8291,2.8291,2.8027,2.79,2.8232,2.8027,2.791,2.8242,2.8935,2.9434,2.9434,3.0107,3.0605,3.0605,3.0684,3.0742,3.0742,2.8125,2.513,2.1846,2.1355,2.1109,2.1109,2.1109,2.1109,2.1109,2.1109,2.1109,2.1109,2.1109,2.1109,2.1109,2.1176,2.1363,2.1657,2.1944,2.2238,2.2532,2.2766,2.2022,2.0617,2.0334,1.9217,1.7814,1.6972,1.5675,1.4369,1.3952,1.2809,1.1504,3.208,3.2656,3.3544,3.5307,3.6569,3.7686,3.8819,3.8992,3.9072,3.9492,3.887,3.8358,3.8358,3.7306,3.6446,3.6117,3.6908,3.7554,3.7898,3.8856,3.9424,3.9424,4.0053,4.0546,4.0861,4.1175,4.1669,4.2357,4.2671,4.2733,4.2467,4.2467,4.1864,4.0746,3.9522,3.8649,3.8017,3.6883,3.6358,3.6358,3.6358,3.6358,3.6358,3.6358,3.6358,3.6358,3.6358,3.5966,3.5367,3.4678,3.3575,3.2151,3.0721,2.9807,2.9207,2.8495,2.8291,2.8291,2.8291,2.8291,2.8291,2.8291,2.8291,2.8291,2.8291,2.8291,2.8291,2.8291,2.8115,2.8027,2.8252,2.8115,2.8105,2.8525,2.9141,2.9639,2.9844,3.0459,3.0889,3.0889,3.0147,2.9048,2.7589,2.5879,2.3799,2.1229,2.1109,2.1109,2.1109,2.1109,2.1109,2.1109,2.1109,2.1109,2.1109,2.1109,2.1109,2.1109,2.1109,2.1263,2.1557,2.171,2.1476,2.105,2.1201,2.0359,1.8653,1.7804,1.6821,1.5844,1.4862,1.3876,1.3028,1.3028,1.2466,1.1606,3.19,3.2324,3.3188,3.5431,3.6865,3.7965,3.8874,3.8828,3.869,3.869,3.8076,3.7573,3.7573,3.6859,3.6257,3.5869,3.6701,3.7389,3.7734,3.8691,3.9349,3.9574,4.0217,4.0876,4.1534,4.2192,4.2521,4.2521,4.2887,4.2548,4.1587,4.142,4.0661,3.9536,3.8559,3.803,3.7756,3.6803,3.6358,3.6358,3.6358,3.6358,3.6358,3.6358,3.6358,3.6358,3.6358,3.5571,3.4385,3.408,3.2342,3.0214,3.0016,2.9207,2.8291,2.8291,2.8291,2.8291,2.8291,2.8291,2.8291,2.8291,2.8291,2.8291,2.8291,2.8291,2.8291,2.8291,2.8174,2.8115,2.8262,2.8174,2.8262,2.8828,2.9287,2.9717,3.0137,3.0596,3.0772,3.0518,2.9039,2.6866,2.389,2.3656,2.2935,2.1377,2.1256,2.1236,2.1189,2.1189,2.1162,2.1109,2.1109,2.1109,2.1109,2.1109,2.1109,2.1109,2.1109,2.1236,2.1476,2.1583,2.095,1.9475,1.9699,1.8606,1.6545,1.4995,1.4148,1.3729,1.2183,1.1619,1.1619,1.1619,1.1619,1.1619,3.1259,3.2045,3.3354,3.6139,3.6768,3.7331,3.8685,3.8349,3.7921,3.7921,3.7263,3.6783,3.6783,3.6117,3.6069,3.706,3.6821,3.733,3.9035,3.8766,3.905,4.0217,4.0905,4.1549,4.2207,4.2865,4.321,4.321,4.2246,4.1767,4.1587,4.0575,3.9536,3.8379,3.8198,3.7586,3.6628,3.6452,3.6358,3.6358,3.6358,3.6358,3.6358,3.6358,3.6358,3.6358,3.6358,3.5571,3.4178,3.2944,3.1531,3.012,2.89,2.8504,2.8291,2.8291,2.8291,2.8291,2.8291,2.8291,2.8291,2.8291,2.8291,2.8291,2.8291,2.8291,2.8291,2.8291,2.7705,2.7412,2.8154,2.7685,2.7568,2.873,2.9287,2.9717,3.0137,3.0596,3.0392,2.8911,2.7323,2.5741,2.4081,2.3992,2.3355,2.1975,2.1871,2.1757,2.1503,2.1496,2.1376,2.1116,2.1109,2.1109,2.1109,2.1109,2.1109,2.1109,2.1109,2.1129,2.1189,2.1697,2.1021,1.923,1.981,1.8057,1.4712,1.4428,1.3448,1.19,1.176,1.1619,1.1619,1.1619,1.1619,1.1619,3.1281,3.2308,3.3746,3.5791,3.6481,3.7064,3.814,3.7616,3.7144,3.7144,3.6461,3.6006,3.6006,3.5668,3.5878,3.6821,3.6956,3.7524,3.8766,3.926,3.9768,4.0367,4.1384,4.2073,4.2434,4.3,4.2981,4.2371,4.185,4.0901,3.9582,3.9169,3.8302,3.715,3.715,3.6896,3.6358,3.6358,3.6358,3.6358,3.6358,3.6358,3.6358,3.6358,3.6358,3.6263,3.5571,3.4362,3.3055,3.1633,3.0317,2.9102,2.8495,2.8291,2.8291,2.8291,2.8291,2.8291,2.8291,2.8291,2.8291,2.8291,2.8115,2.7939,2.7939,2.7754,2.7646,2.7891,2.7451,2.7129,2.751,2.7656,2.7988,2.8789,2.9482,3.0078,3.0518,3.0762,2.9903,2.7323,2.5627,2.4108,2.2532,2.2582,2.2288,2.1496,2.165,2.1617,2.1323,2.1303,2.1243,2.1109,2.1109,2.1109,2.1109,2.1109,2.1109,2.1109,2.0068,1.9674,1.9686,1.993,1.8605,1.6185,1.6514,1.5212,1.2888,1.2888,1.2323,1.1619,1.1619,1.1619,1.1619,1.1619,1.1619,1.1619]}]]